<?xml version="1.0" encoding="UTF-8" standalone="no" ?>
<gpx xmlns="http://www.topografix.com/GPX/1/1" xmlns:xsi="http://www.w3.org/2001/XMLSchema-instance" xsi:schemaLocation="http://www.topografix.com/GPX/1/1 http://www.topografix.com/GPX/1/1/gpx.xsd" version="1.1" creator="VisuGPX - https://www.visugpx.com">
  <metadata>
    <name>131221ROBDolmenGazo</name>
    <desc><![CDATA[15 km et 320 m]]></desc>
  </metadata>
  <trk>
    <name><![CDATA[131221ROBDolmenGazo]]></name>
    <trkseg>
      <trkpt lat="43.40403" lon="6.06532">
        <ele>220.80000305176</ele>
        <time>2013-12-21T12:58:57Z</time>
      </trkpt>
      <trkpt lat="43.40404" lon="6.06531">
        <ele>220.80000305176</ele>
        <time>2013-12-21T12:58:58Z</time>
      </trkpt>
      <trkpt lat="43.40404" lon="6.06531">
        <ele>220.80000305176</ele>
        <time>2013-12-21T12:59:01Z</time>
      </trkpt>
      <trkpt lat="43.40404" lon="6.0653">
        <ele>221</ele>
        <time>2013-12-21T12:59:05Z</time>
      </trkpt>
      <trkpt lat="43.40404" lon="6.06529">
        <ele>221</ele>
        <time>2013-12-21T12:59:06Z</time>
      </trkpt>
      <trkpt lat="43.40404" lon="6.06525">
        <ele>221</ele>
        <time>2013-12-21T12:59:11Z</time>
      </trkpt>
      <trkpt lat="43.40406" lon="6.06524">
        <ele>221</ele>
        <time>2013-12-21T12:59:13Z</time>
      </trkpt>
      <trkpt lat="43.40408" lon="6.06508">
        <ele>221</ele>
        <time>2013-12-21T12:59:20Z</time>
      </trkpt>
      <trkpt lat="43.40411" lon="6.06493">
        <ele>221</ele>
        <time>2013-12-21T12:59:26Z</time>
      </trkpt>
      <trkpt lat="43.40414" lon="6.06488">
        <ele>221</ele>
        <time>2013-12-21T12:59:27Z</time>
      </trkpt>
      <trkpt lat="43.40417" lon="6.06483">
        <ele>221</ele>
        <time>2013-12-21T12:59:30Z</time>
      </trkpt>
      <trkpt lat="43.4042" lon="6.06483">
        <ele>221</ele>
        <time>2013-12-21T12:59:31Z</time>
      </trkpt>
      <trkpt lat="43.4043" lon="6.06485">
        <ele>221</ele>
        <time>2013-12-21T12:59:34Z</time>
      </trkpt>
      <trkpt lat="43.40436" lon="6.06488">
        <ele>221</ele>
        <time>2013-12-21T12:59:36Z</time>
      </trkpt>
      <trkpt lat="43.40447" lon="6.0649">
        <ele>221</ele>
        <time>2013-12-21T12:59:39Z</time>
      </trkpt>
      <trkpt lat="43.40462" lon="6.06495">
        <ele>221</ele>
        <time>2013-12-21T12:59:43Z</time>
      </trkpt>
      <trkpt lat="43.40478" lon="6.065">
        <ele>220</ele>
        <time>2013-12-21T12:59:47Z</time>
      </trkpt>
      <trkpt lat="43.40482" lon="6.06501">
        <ele>219.60000610352</ele>
        <time>2013-12-21T12:59:48Z</time>
      </trkpt>
      <trkpt lat="43.40486" lon="6.06502">
        <ele>219.19999694824</ele>
        <time>2013-12-21T12:59:49Z</time>
      </trkpt>
      <trkpt lat="43.40489" lon="6.06503">
        <ele>218.80000305176</ele>
        <time>2013-12-21T12:59:50Z</time>
      </trkpt>
      <trkpt lat="43.40496" lon="6.06505">
        <ele>218.80000305176</ele>
        <time>2013-12-21T12:59:53Z</time>
      </trkpt>
      <trkpt lat="43.40503" lon="6.06508">
        <ele>218.19999694824</ele>
        <time>2013-12-21T12:59:55Z</time>
      </trkpt>
      <trkpt lat="43.40508" lon="6.06509">
        <ele>217.80000305176</ele>
        <time>2013-12-21T12:59:56Z</time>
      </trkpt>
      <trkpt lat="43.40512" lon="6.0651">
        <ele>217.39999389648</ele>
        <time>2013-12-21T12:59:57Z</time>
      </trkpt>
      <trkpt lat="43.40535" lon="6.06515">
        <ele>216.60000610352</ele>
        <time>2013-12-21T13:00:02Z</time>
      </trkpt>
      <trkpt lat="43.4054" lon="6.06517">
        <ele>216.60000610352</ele>
        <time>2013-12-21T13:00:03Z</time>
      </trkpt>
      <trkpt lat="43.40565" lon="6.06524">
        <ele>216.60000610352</ele>
        <time>2013-12-21T13:00:08Z</time>
      </trkpt>
      <trkpt lat="43.40583" lon="6.06529">
        <ele>216.19999694824</ele>
        <time>2013-12-21T13:00:12Z</time>
      </trkpt>
      <trkpt lat="43.40588" lon="6.06529">
        <ele>215.80000305176</ele>
        <time>2013-12-21T13:00:13Z</time>
      </trkpt>
      <trkpt lat="43.40593" lon="6.06529">
        <ele>215.39999389648</ele>
        <time>2013-12-21T13:00:14Z</time>
      </trkpt>
      <trkpt lat="43.40596" lon="6.0653">
        <ele>215</ele>
        <time>2013-12-21T13:00:15Z</time>
      </trkpt>
      <trkpt lat="43.40604" lon="6.06532">
        <ele>214.60000610352</ele>
        <time>2013-12-21T13:00:17Z</time>
      </trkpt>
      <trkpt lat="43.40612" lon="6.06533">
        <ele>213.60000610352</ele>
        <time>2013-12-21T13:00:20Z</time>
      </trkpt>
      <trkpt lat="43.40613" lon="6.06534">
        <ele>213.19999694824</ele>
        <time>2013-12-21T13:00:21Z</time>
      </trkpt>
      <trkpt lat="43.40614" lon="6.06534">
        <ele>212.80000305176</ele>
        <time>2013-12-21T13:00:22Z</time>
      </trkpt>
      <trkpt lat="43.40615" lon="6.06535">
        <ele>212.39999389648</ele>
        <time>2013-12-21T13:00:23Z</time>
      </trkpt>
      <trkpt lat="43.40617" lon="6.06533">
        <ele>212.39999389648</ele>
        <time>2013-12-21T13:00:24Z</time>
      </trkpt>
      <trkpt lat="43.40621" lon="6.06528">
        <ele>212.39999389648</ele>
        <time>2013-12-21T13:00:26Z</time>
      </trkpt>
      <trkpt lat="43.40623" lon="6.06521">
        <ele>212.39999389648</ele>
        <time>2013-12-21T13:00:28Z</time>
      </trkpt>
      <trkpt lat="43.40627" lon="6.06512">
        <ele>212.39999389648</ele>
        <time>2013-12-21T13:00:30Z</time>
      </trkpt>
      <trkpt lat="43.40629" lon="6.06508">
        <ele>212.39999389648</ele>
        <time>2013-12-21T13:00:31Z</time>
      </trkpt>
      <trkpt lat="43.40642" lon="6.06488">
        <ele>212</ele>
        <time>2013-12-21T13:00:35Z</time>
      </trkpt>
      <trkpt lat="43.40646" lon="6.06483">
        <ele>211.60000610352</ele>
        <time>2013-12-21T13:00:36Z</time>
      </trkpt>
      <trkpt lat="43.40657" lon="6.06472">
        <ele>210.80000305176</ele>
        <time>2013-12-21T13:00:38Z</time>
      </trkpt>
      <trkpt lat="43.40662" lon="6.06466">
        <ele>210.39999389648</ele>
        <time>2013-12-21T13:00:39Z</time>
      </trkpt>
      <trkpt lat="43.40673" lon="6.06454">
        <ele>210.39999389648</ele>
        <time>2013-12-21T13:00:41Z</time>
      </trkpt>
      <trkpt lat="43.4068" lon="6.06448">
        <ele>210</ele>
        <time>2013-12-21T13:00:42Z</time>
      </trkpt>
      <trkpt lat="43.40686" lon="6.06442">
        <ele>209.39999389648</ele>
        <time>2013-12-21T13:00:43Z</time>
      </trkpt>
      <trkpt lat="43.40694" lon="6.06437">
        <ele>209</ele>
        <time>2013-12-21T13:00:44Z</time>
      </trkpt>
      <trkpt lat="43.40702" lon="6.06434">
        <ele>207.80000305176</ele>
        <time>2013-12-21T13:00:45Z</time>
      </trkpt>
      <trkpt lat="43.40711" lon="6.0643">
        <ele>207.19999694824</ele>
        <time>2013-12-21T13:00:46Z</time>
      </trkpt>
      <trkpt lat="43.4072" lon="6.06429">
        <ele>206.60000610352</ele>
        <time>2013-12-21T13:00:47Z</time>
      </trkpt>
      <trkpt lat="43.40728" lon="6.06427">
        <ele>206</ele>
        <time>2013-12-21T13:00:48Z</time>
      </trkpt>
      <trkpt lat="43.40737" lon="6.06426">
        <ele>206</ele>
        <time>2013-12-21T13:00:49Z</time>
      </trkpt>
      <trkpt lat="43.40745" lon="6.06426">
        <ele>205.60000610352</ele>
        <time>2013-12-21T13:00:50Z</time>
      </trkpt>
      <trkpt lat="43.40754" lon="6.06425">
        <ele>205</ele>
        <time>2013-12-21T13:00:51Z</time>
      </trkpt>
      <trkpt lat="43.40762" lon="6.06424">
        <ele>204.60000610352</ele>
        <time>2013-12-21T13:00:52Z</time>
      </trkpt>
      <trkpt lat="43.40771" lon="6.06421">
        <ele>204.19999694824</ele>
        <time>2013-12-21T13:00:53Z</time>
      </trkpt>
      <trkpt lat="43.40779" lon="6.06417">
        <ele>203.60000610352</ele>
        <time>2013-12-21T13:00:54Z</time>
      </trkpt>
      <trkpt lat="43.40803" lon="6.0641">
        <ele>203.60000610352</ele>
        <time>2013-12-21T13:00:57Z</time>
      </trkpt>
      <trkpt lat="43.40818" lon="6.06415">
        <ele>203.60000610352</ele>
        <time>2013-12-21T13:00:59Z</time>
      </trkpt>
      <trkpt lat="43.40844" lon="6.06415">
        <ele>203.60000610352</ele>
        <time>2013-12-21T13:01:03Z</time>
      </trkpt>
      <trkpt lat="43.40862" lon="6.06403">
        <ele>203.60000610352</ele>
        <time>2013-12-21T13:01:06Z</time>
      </trkpt>
      <trkpt lat="43.40873" lon="6.06393">
        <ele>203.60000610352</ele>
        <time>2013-12-21T13:01:08Z</time>
      </trkpt>
      <trkpt lat="43.40895" lon="6.06363">
        <ele>203.60000610352</ele>
        <time>2013-12-21T13:01:13Z</time>
      </trkpt>
      <trkpt lat="43.40904" lon="6.06352">
        <ele>203.60000610352</ele>
        <time>2013-12-21T13:01:15Z</time>
      </trkpt>
      <trkpt lat="43.40908" lon="6.06347">
        <ele>203.60000610352</ele>
        <time>2013-12-21T13:01:16Z</time>
      </trkpt>
      <trkpt lat="43.40918" lon="6.06336">
        <ele>203.60000610352</ele>
        <time>2013-12-21T13:01:18Z</time>
      </trkpt>
      <trkpt lat="43.4093" lon="6.0632">
        <ele>203.60000610352</ele>
        <time>2013-12-21T13:01:21Z</time>
      </trkpt>
      <trkpt lat="43.40949" lon="6.06301">
        <ele>203.60000610352</ele>
        <time>2013-12-21T13:01:26Z</time>
      </trkpt>
      <trkpt lat="43.40951" lon="6.063">
        <ele>203.60000610352</ele>
        <time>2013-12-21T13:01:30Z</time>
      </trkpt>
      <trkpt lat="43.40951" lon="6.063">
        <ele>203.60000610352</ele>
        <time>2013-12-21T13:01:55Z</time>
      </trkpt>
      <trkpt lat="43.40951" lon="6.063">
        <ele>203.60000610352</ele>
        <time>2013-12-21T13:02:05Z</time>
      </trkpt>
      <trkpt lat="43.40952" lon="6.063">
        <ele>203.60000610352</ele>
        <time>2013-12-21T13:02:07Z</time>
      </trkpt>
      <trkpt lat="43.40956" lon="6.063">
        <ele>203.60000610352</ele>
        <time>2013-12-21T13:02:10Z</time>
      </trkpt>
      <trkpt lat="43.40967" lon="6.06306">
        <ele>203.60000610352</ele>
        <time>2013-12-21T13:02:14Z</time>
      </trkpt>
      <trkpt lat="43.40969" lon="6.06305">
        <ele>203.60000610352</ele>
        <time>2013-12-21T13:02:15Z</time>
      </trkpt>
      <trkpt lat="43.40975" lon="6.06301">
        <ele>203.60000610352</ele>
        <time>2013-12-21T13:02:17Z</time>
      </trkpt>
      <trkpt lat="43.4098" lon="6.06288">
        <ele>203.60000610352</ele>
        <time>2013-12-21T13:02:20Z</time>
      </trkpt>
      <trkpt lat="43.40982" lon="6.06284">
        <ele>203.60000610352</ele>
        <time>2013-12-21T13:02:21Z</time>
      </trkpt>
      <trkpt lat="43.4099" lon="6.06279">
        <ele>203.60000610352</ele>
        <time>2013-12-21T13:02:23Z</time>
      </trkpt>
      <trkpt lat="43.40999" lon="6.06277">
        <ele>203.60000610352</ele>
        <time>2013-12-21T13:02:25Z</time>
      </trkpt>
      <trkpt lat="43.41012" lon="6.06273">
        <ele>203.60000610352</ele>
        <time>2013-12-21T13:02:28Z</time>
      </trkpt>
      <trkpt lat="43.4103" lon="6.06267">
        <ele>203.60000610352</ele>
        <time>2013-12-21T13:02:32Z</time>
      </trkpt>
      <trkpt lat="43.41062" lon="6.06256">
        <ele>203.60000610352</ele>
        <time>2013-12-21T13:02:39Z</time>
      </trkpt>
      <trkpt lat="43.41096" lon="6.06247">
        <ele>203.60000610352</ele>
        <time>2013-12-21T13:02:47Z</time>
      </trkpt>
      <trkpt lat="43.41126" lon="6.06239">
        <ele>203.60000610352</ele>
        <time>2013-12-21T13:02:54Z</time>
      </trkpt>
      <trkpt lat="43.4113" lon="6.06238">
        <ele>203.60000610352</ele>
        <time>2013-12-21T13:02:55Z</time>
      </trkpt>
      <trkpt lat="43.41158" lon="6.06229">
        <ele>203.60000610352</ele>
        <time>2013-12-21T13:03:02Z</time>
      </trkpt>
      <trkpt lat="43.41183" lon="6.06221">
        <ele>204</ele>
        <time>2013-12-21T13:03:10Z</time>
      </trkpt>
      <trkpt lat="43.41188" lon="6.06219">
        <ele>204.80000305176</ele>
        <time>2013-12-21T13:03:12Z</time>
      </trkpt>
      <trkpt lat="43.41195" lon="6.06217">
        <ele>205.60000610352</ele>
        <time>2013-12-21T13:03:14Z</time>
      </trkpt>
      <trkpt lat="43.4122" lon="6.0621">
        <ele>205.60000610352</ele>
        <time>2013-12-21T13:03:21Z</time>
      </trkpt>
      <trkpt lat="43.41239" lon="6.06203">
        <ele>205.60000610352</ele>
        <time>2013-12-21T13:03:26Z</time>
      </trkpt>
      <trkpt lat="43.41251" lon="6.06198">
        <ele>205.60000610352</ele>
        <time>2013-12-21T13:03:29Z</time>
      </trkpt>
      <trkpt lat="43.41266" lon="6.06193">
        <ele>205.60000610352</ele>
        <time>2013-12-21T13:03:33Z</time>
      </trkpt>
      <trkpt lat="43.41282" lon="6.0619">
        <ele>205.60000610352</ele>
        <time>2013-12-21T13:03:37Z</time>
      </trkpt>
      <trkpt lat="43.41335" lon="6.06186">
        <ele>208</ele>
        <time>2013-12-21T13:03:51Z</time>
      </trkpt>
      <trkpt lat="43.41353" lon="6.06186">
        <ele>208.80000305176</ele>
        <time>2013-12-21T13:03:56Z</time>
      </trkpt>
      <trkpt lat="43.41357" lon="6.06186">
        <ele>209.19999694824</ele>
        <time>2013-12-21T13:03:57Z</time>
      </trkpt>
      <trkpt lat="43.41365" lon="6.06186">
        <ele>210</ele>
        <time>2013-12-21T13:03:59Z</time>
      </trkpt>
      <trkpt lat="43.41386" lon="6.06188">
        <ele>210.39999389648</ele>
        <time>2013-12-21T13:04:05Z</time>
      </trkpt>
      <trkpt lat="43.41389" lon="6.06189">
        <ele>210.80000305176</ele>
        <time>2013-12-21T13:04:06Z</time>
      </trkpt>
      <trkpt lat="43.41399" lon="6.06191">
        <ele>212</ele>
        <time>2013-12-21T13:04:09Z</time>
      </trkpt>
      <trkpt lat="43.41416" lon="6.06194">
        <ele>212</ele>
        <time>2013-12-21T13:04:14Z</time>
      </trkpt>
      <trkpt lat="43.41442" lon="6.062">
        <ele>212.39999389648</ele>
        <time>2013-12-21T13:04:22Z</time>
      </trkpt>
      <trkpt lat="43.41455" lon="6.06204">
        <ele>214</ele>
        <time>2013-12-21T13:04:26Z</time>
      </trkpt>
      <trkpt lat="43.41464" lon="6.06207">
        <ele>214</ele>
        <time>2013-12-21T13:04:29Z</time>
      </trkpt>
      <trkpt lat="43.41491" lon="6.06216">
        <ele>214</ele>
        <time>2013-12-21T13:04:38Z</time>
      </trkpt>
      <trkpt lat="43.41497" lon="6.06218">
        <ele>214.39999389648</ele>
        <time>2013-12-21T13:04:40Z</time>
      </trkpt>
      <trkpt lat="43.41507" lon="6.06222">
        <ele>216</ele>
        <time>2013-12-21T13:04:44Z</time>
      </trkpt>
      <trkpt lat="43.41509" lon="6.06222">
        <ele>216</ele>
        <time>2013-12-21T13:04:45Z</time>
      </trkpt>
      <trkpt lat="43.41513" lon="6.0622">
        <ele>216</ele>
        <time>2013-12-21T13:04:47Z</time>
      </trkpt>
      <trkpt lat="43.41514" lon="6.06219">
        <ele>216</ele>
        <time>2013-12-21T13:04:48Z</time>
      </trkpt>
      <trkpt lat="43.41518" lon="6.06218">
        <ele>216</ele>
        <time>2013-12-21T13:04:50Z</time>
      </trkpt>
      <trkpt lat="43.41524" lon="6.06218">
        <ele>216</ele>
        <time>2013-12-21T13:04:53Z</time>
      </trkpt>
      <trkpt lat="43.41526" lon="6.06217">
        <ele>216</ele>
        <time>2013-12-21T13:04:55Z</time>
      </trkpt>
      <trkpt lat="43.41526" lon="6.06217">
        <ele>216</ele>
        <time>2013-12-21T13:04:57Z</time>
      </trkpt>
      <trkpt lat="43.41526" lon="6.06217">
        <ele>216</ele>
        <time>2013-12-21T13:05:01Z</time>
      </trkpt>
      <trkpt lat="43.41526" lon="6.06217">
        <ele>216</ele>
        <time>2013-12-21T13:05:03Z</time>
      </trkpt>
      <trkpt lat="43.41527" lon="6.06211">
        <ele>216</ele>
        <time>2013-12-21T13:05:06Z</time>
      </trkpt>
      <trkpt lat="43.41529" lon="6.06204">
        <ele>216</ele>
        <time>2013-12-21T13:05:09Z</time>
      </trkpt>
      <trkpt lat="43.41531" lon="6.06199">
        <ele>216.39999389648</ele>
        <time>2013-12-21T13:05:11Z</time>
      </trkpt>
      <trkpt lat="43.41533" lon="6.06197">
        <ele>216.80000305176</ele>
        <time>2013-12-21T13:05:12Z</time>
      </trkpt>
      <trkpt lat="43.41534" lon="6.06195">
        <ele>217.39999389648</ele>
        <time>2013-12-21T13:05:13Z</time>
      </trkpt>
      <trkpt lat="43.41535" lon="6.06193">
        <ele>217.80000305176</ele>
        <time>2013-12-21T13:05:14Z</time>
      </trkpt>
      <trkpt lat="43.41536" lon="6.0619">
        <ele>218.19999694824</ele>
        <time>2013-12-21T13:05:15Z</time>
      </trkpt>
      <trkpt lat="43.41539" lon="6.06182">
        <ele>218.19999694824</ele>
        <time>2013-12-21T13:05:18Z</time>
      </trkpt>
      <trkpt lat="43.41541" lon="6.0618">
        <ele>218.19999694824</ele>
        <time>2013-12-21T13:05:19Z</time>
      </trkpt>
      <trkpt lat="43.41545" lon="6.06181">
        <ele>218.19999694824</ele>
        <time>2013-12-21T13:05:21Z</time>
      </trkpt>
      <trkpt lat="43.41553" lon="6.06174">
        <ele>218.19999694824</ele>
        <time>2013-12-21T13:05:25Z</time>
      </trkpt>
      <trkpt lat="43.41559" lon="6.06173">
        <ele>218.19999694824</ele>
        <time>2013-12-21T13:05:28Z</time>
      </trkpt>
      <trkpt lat="43.41565" lon="6.06175">
        <ele>218.19999694824</ele>
        <time>2013-12-21T13:05:31Z</time>
      </trkpt>
      <trkpt lat="43.41579" lon="6.06179">
        <ele>218.19999694824</ele>
        <time>2013-12-21T13:05:38Z</time>
      </trkpt>
      <trkpt lat="43.41586" lon="6.06175">
        <ele>219</ele>
        <time>2013-12-21T13:05:41Z</time>
      </trkpt>
      <trkpt lat="43.4159" lon="6.06179">
        <ele>219.80000305176</ele>
        <time>2013-12-21T13:05:43Z</time>
      </trkpt>
      <trkpt lat="43.41598" lon="6.06198">
        <ele>220.19999694824</ele>
        <time>2013-12-21T13:05:50Z</time>
      </trkpt>
      <trkpt lat="43.41608" lon="6.06207">
        <ele>220.19999694824</ele>
        <time>2013-12-21T13:05:55Z</time>
      </trkpt>
      <trkpt lat="43.41619" lon="6.0622">
        <ele>220.19999694824</ele>
        <time>2013-12-21T13:06:01Z</time>
      </trkpt>
      <trkpt lat="43.41628" lon="6.06229">
        <ele>220.19999694824</ele>
        <time>2013-12-21T13:06:05Z</time>
      </trkpt>
      <trkpt lat="43.41631" lon="6.06234">
        <ele>220.19999694824</ele>
        <time>2013-12-21T13:06:07Z</time>
      </trkpt>
      <trkpt lat="43.41643" lon="6.0624">
        <ele>220.60000610352</ele>
        <time>2013-12-21T13:06:12Z</time>
      </trkpt>
      <trkpt lat="43.41645" lon="6.06241">
        <ele>221</ele>
        <time>2013-12-21T13:06:13Z</time>
      </trkpt>
      <trkpt lat="43.4165" lon="6.06243">
        <ele>221.80000305176</ele>
        <time>2013-12-21T13:06:15Z</time>
      </trkpt>
      <trkpt lat="43.4167" lon="6.06248">
        <ele>222.19999694824</ele>
        <time>2013-12-21T13:06:22Z</time>
      </trkpt>
      <trkpt lat="43.41687" lon="6.0625">
        <ele>222.19999694824</ele>
        <time>2013-12-21T13:06:27Z</time>
      </trkpt>
      <trkpt lat="43.417" lon="6.06251">
        <ele>222.19999694824</ele>
        <time>2013-12-21T13:06:31Z</time>
      </trkpt>
      <trkpt lat="43.41722" lon="6.06251">
        <ele>222.19999694824</ele>
        <time>2013-12-21T13:06:38Z</time>
      </trkpt>
      <trkpt lat="43.41738" lon="6.06253">
        <ele>222.19999694824</ele>
        <time>2013-12-21T13:06:45Z</time>
      </trkpt>
      <trkpt lat="43.41747" lon="6.06253">
        <ele>222.60000610352</ele>
        <time>2013-12-21T13:06:49Z</time>
      </trkpt>
      <trkpt lat="43.41749" lon="6.06254">
        <ele>223</ele>
        <time>2013-12-21T13:06:50Z</time>
      </trkpt>
      <trkpt lat="43.41751" lon="6.06254">
        <ele>223.39999389648</ele>
        <time>2013-12-21T13:06:51Z</time>
      </trkpt>
      <trkpt lat="43.41753" lon="6.06255">
        <ele>223.80000305176</ele>
        <time>2013-12-21T13:06:52Z</time>
      </trkpt>
      <trkpt lat="43.41755" lon="6.06256">
        <ele>224.19999694824</ele>
        <time>2013-12-21T13:06:53Z</time>
      </trkpt>
      <trkpt lat="43.41784" lon="6.06271">
        <ele>224.60000610352</ele>
        <time>2013-12-21T13:07:06Z</time>
      </trkpt>
      <trkpt lat="43.41799" lon="6.06285">
        <ele>226.39999389648</ele>
        <time>2013-12-21T13:07:14Z</time>
      </trkpt>
      <trkpt lat="43.41815" lon="6.06292">
        <ele>226.39999389648</ele>
        <time>2013-12-21T13:07:21Z</time>
      </trkpt>
      <trkpt lat="43.41822" lon="6.06292">
        <ele>226.80000305176</ele>
        <time>2013-12-21T13:07:24Z</time>
      </trkpt>
      <trkpt lat="43.41826" lon="6.06293">
        <ele>227.60000610352</ele>
        <time>2013-12-21T13:07:26Z</time>
      </trkpt>
      <trkpt lat="43.41835" lon="6.06293">
        <ele>228.39999389648</ele>
        <time>2013-12-21T13:07:30Z</time>
      </trkpt>
      <trkpt lat="43.41858" lon="6.06293">
        <ele>228.80000305176</ele>
        <time>2013-12-21T13:07:41Z</time>
      </trkpt>
      <trkpt lat="43.41865" lon="6.06292">
        <ele>230</ele>
        <time>2013-12-21T13:07:44Z</time>
      </trkpt>
      <trkpt lat="43.41875" lon="6.06294">
        <ele>230.39999389648</ele>
        <time>2013-12-21T13:07:49Z</time>
      </trkpt>
      <trkpt lat="43.41892" lon="6.06294">
        <ele>231.19999694824</ele>
        <time>2013-12-21T13:07:57Z</time>
      </trkpt>
      <trkpt lat="43.41894" lon="6.06295">
        <ele>231.60000610352</ele>
        <time>2013-12-21T13:07:58Z</time>
      </trkpt>
      <trkpt lat="43.41896" lon="6.06294">
        <ele>232</ele>
        <time>2013-12-21T13:07:59Z</time>
      </trkpt>
      <trkpt lat="43.41913" lon="6.06292">
        <ele>232.39999389648</ele>
        <time>2013-12-21T13:08:07Z</time>
      </trkpt>
      <trkpt lat="43.41924" lon="6.06291">
        <ele>234.60000610352</ele>
        <time>2013-12-21T13:08:12Z</time>
      </trkpt>
      <trkpt lat="43.41937" lon="6.06287">
        <ele>234.60000610352</ele>
        <time>2013-12-21T13:08:18Z</time>
      </trkpt>
      <trkpt lat="43.41953" lon="6.06282">
        <ele>234.60000610352</ele>
        <time>2013-12-21T13:08:25Z</time>
      </trkpt>
      <trkpt lat="43.41972" lon="6.06274">
        <ele>235.39999389648</ele>
        <time>2013-12-21T13:08:34Z</time>
      </trkpt>
      <trkpt lat="43.41974" lon="6.06273">
        <ele>235.80000305176</ele>
        <time>2013-12-21T13:08:35Z</time>
      </trkpt>
      <trkpt lat="43.41988" lon="6.06272">
        <ele>237</ele>
        <time>2013-12-21T13:08:42Z</time>
      </trkpt>
      <trkpt lat="43.41991" lon="6.06272">
        <ele>237.39999389648</ele>
        <time>2013-12-21T13:08:43Z</time>
      </trkpt>
      <trkpt lat="43.42007" lon="6.06265">
        <ele>239.19999694824</ele>
        <time>2013-12-21T13:08:51Z</time>
      </trkpt>
      <trkpt lat="43.42014" lon="6.06263">
        <ele>241</ele>
        <time>2013-12-21T13:08:55Z</time>
      </trkpt>
      <trkpt lat="43.42025" lon="6.06258">
        <ele>242.19999694824</ele>
        <time>2013-12-21T13:09:01Z</time>
      </trkpt>
      <trkpt lat="43.42028" lon="6.06257">
        <ele>243</ele>
        <time>2013-12-21T13:09:03Z</time>
      </trkpt>
      <trkpt lat="43.42038" lon="6.06255">
        <ele>243.39999389648</ele>
        <time>2013-12-21T13:09:08Z</time>
      </trkpt>
      <trkpt lat="43.42042" lon="6.06253">
        <ele>244.19999694824</ele>
        <time>2013-12-21T13:09:10Z</time>
      </trkpt>
      <trkpt lat="43.42058" lon="6.06249">
        <ele>245.39999389648</ele>
        <time>2013-12-21T13:09:18Z</time>
      </trkpt>
      <trkpt lat="43.42061" lon="6.06247">
        <ele>246.19999694824</ele>
        <time>2013-12-21T13:09:20Z</time>
      </trkpt>
      <trkpt lat="43.42065" lon="6.06245">
        <ele>247</ele>
        <time>2013-12-21T13:09:22Z</time>
      </trkpt>
      <trkpt lat="43.42072" lon="6.06243">
        <ele>247</ele>
        <time>2013-12-21T13:09:26Z</time>
      </trkpt>
      <trkpt lat="43.42076" lon="6.06242">
        <ele>247.80000305176</ele>
        <time>2013-12-21T13:09:28Z</time>
      </trkpt>
      <trkpt lat="43.42078" lon="6.06242">
        <ele>248.19999694824</ele>
        <time>2013-12-21T13:09:29Z</time>
      </trkpt>
      <trkpt lat="43.42081" lon="6.06241">
        <ele>249.19999694824</ele>
        <time>2013-12-21T13:09:31Z</time>
      </trkpt>
      <trkpt lat="43.42083" lon="6.06239">
        <ele>249.19999694824</ele>
        <time>2013-12-21T13:09:33Z</time>
      </trkpt>
      <trkpt lat="43.42089" lon="6.06236">
        <ele>249.60000610352</ele>
        <time>2013-12-21T13:09:38Z</time>
      </trkpt>
      <trkpt lat="43.42093" lon="6.06235">
        <ele>250.39999389648</ele>
        <time>2013-12-21T13:09:40Z</time>
      </trkpt>
      <trkpt lat="43.42098" lon="6.06234">
        <ele>251.19999694824</ele>
        <time>2013-12-21T13:09:44Z</time>
      </trkpt>
      <trkpt lat="43.4211" lon="6.06232">
        <ele>251.19999694824</ele>
        <time>2013-12-21T13:09:52Z</time>
      </trkpt>
      <trkpt lat="43.42114" lon="6.06231">
        <ele>251.60000610352</ele>
        <time>2013-12-21T13:09:55Z</time>
      </trkpt>
      <trkpt lat="43.42117" lon="6.0623">
        <ele>252.39999389648</ele>
        <time>2013-12-21T13:09:57Z</time>
      </trkpt>
      <trkpt lat="43.42122" lon="6.06227">
        <ele>253.19999694824</ele>
        <time>2013-12-21T13:10:00Z</time>
      </trkpt>
      <trkpt lat="43.42136" lon="6.06221">
        <ele>253.19999694824</ele>
        <time>2013-12-21T13:10:08Z</time>
      </trkpt>
      <trkpt lat="43.42142" lon="6.0622">
        <ele>253.19999694824</ele>
        <time>2013-12-21T13:10:13Z</time>
      </trkpt>
      <trkpt lat="43.42145" lon="6.06219">
        <ele>253.19999694824</ele>
        <time>2013-12-21T13:10:15Z</time>
      </trkpt>
      <trkpt lat="43.42147" lon="6.06218">
        <ele>253.19999694824</ele>
        <time>2013-12-21T13:10:17Z</time>
      </trkpt>
      <trkpt lat="43.42147" lon="6.06218">
        <ele>253.19999694824</ele>
        <time>2013-12-21T13:10:21Z</time>
      </trkpt>
      <trkpt lat="43.42147" lon="6.06218">
        <ele>255.19999694824</ele>
        <time>2013-12-21T13:10:37Z</time>
      </trkpt>
      <trkpt lat="43.42147" lon="6.06218">
        <ele>255.19999694824</ele>
        <time>2013-12-21T13:10:56Z</time>
      </trkpt>
      <trkpt lat="43.42148" lon="6.06219">
        <ele>255.19999694824</ele>
        <time>2013-12-21T13:11:02Z</time>
      </trkpt>
      <trkpt lat="43.42149" lon="6.06218">
        <ele>255.19999694824</ele>
        <time>2013-12-21T13:11:03Z</time>
      </trkpt>
      <trkpt lat="43.42152" lon="6.06216">
        <ele>255.19999694824</ele>
        <time>2013-12-21T13:11:06Z</time>
      </trkpt>
      <trkpt lat="43.4215" lon="6.06206">
        <ele>255.19999694824</ele>
        <time>2013-12-21T13:11:10Z</time>
      </trkpt>
      <trkpt lat="43.42147" lon="6.06191">
        <ele>255.19999694824</ele>
        <time>2013-12-21T13:11:14Z</time>
      </trkpt>
      <trkpt lat="43.42137" lon="6.0617">
        <ele>255.19999694824</ele>
        <time>2013-12-21T13:11:19Z</time>
      </trkpt>
      <trkpt lat="43.42127" lon="6.06137">
        <ele>255.19999694824</ele>
        <time>2013-12-21T13:11:24Z</time>
      </trkpt>
      <trkpt lat="43.42125" lon="6.0613">
        <ele>254.80000305176</ele>
        <time>2013-12-21T13:11:25Z</time>
      </trkpt>
      <trkpt lat="43.42124" lon="6.06123">
        <ele>254.39999389648</ele>
        <time>2013-12-21T13:11:26Z</time>
      </trkpt>
      <trkpt lat="43.42122" lon="6.06117">
        <ele>253.60000610352</ele>
        <time>2013-12-21T13:11:27Z</time>
      </trkpt>
      <trkpt lat="43.42121" lon="6.06112">
        <ele>253.19999694824</ele>
        <time>2013-12-21T13:11:28Z</time>
      </trkpt>
      <trkpt lat="43.4212" lon="6.06102">
        <ele>253.19999694824</ele>
        <time>2013-12-21T13:11:30Z</time>
      </trkpt>
      <trkpt lat="43.42117" lon="6.06084">
        <ele>253.19999694824</ele>
        <time>2013-12-21T13:11:34Z</time>
      </trkpt>
      <trkpt lat="43.42117" lon="6.06076">
        <ele>253.19999694824</ele>
        <time>2013-12-21T13:11:36Z</time>
      </trkpt>
      <trkpt lat="43.42115" lon="6.06068">
        <ele>253.60000610352</ele>
        <time>2013-12-21T13:11:38Z</time>
      </trkpt>
      <trkpt lat="43.42115" lon="6.06064">
        <ele>254</ele>
        <time>2013-12-21T13:11:39Z</time>
      </trkpt>
      <trkpt lat="43.42114" lon="6.06056">
        <ele>254.80000305176</ele>
        <time>2013-12-21T13:11:41Z</time>
      </trkpt>
      <trkpt lat="43.42112" lon="6.06046">
        <ele>255.19999694824</ele>
        <time>2013-12-21T13:11:43Z</time>
      </trkpt>
      <trkpt lat="43.42109" lon="6.06033">
        <ele>255.19999694824</ele>
        <time>2013-12-21T13:11:46Z</time>
      </trkpt>
      <trkpt lat="43.42104" lon="6.06015">
        <ele>255.19999694824</ele>
        <time>2013-12-21T13:11:50Z</time>
      </trkpt>
      <trkpt lat="43.42095" lon="6.05977">
        <ele>255.19999694824</ele>
        <time>2013-12-21T13:11:57Z</time>
      </trkpt>
      <trkpt lat="43.42089" lon="6.0595">
        <ele>255.19999694824</ele>
        <time>2013-12-21T13:12:02Z</time>
      </trkpt>
      <trkpt lat="43.42076" lon="6.05906">
        <ele>255.19999694824</ele>
        <time>2013-12-21T13:12:10Z</time>
      </trkpt>
      <trkpt lat="43.42071" lon="6.05883">
        <ele>255.19999694824</ele>
        <time>2013-12-21T13:12:14Z</time>
      </trkpt>
      <trkpt lat="43.4207" lon="6.05878">
        <ele>255.19999694824</ele>
        <time>2013-12-21T13:12:15Z</time>
      </trkpt>
      <trkpt lat="43.4206" lon="6.05837">
        <ele>255.19999694824</ele>
        <time>2013-12-21T13:12:21Z</time>
      </trkpt>
      <trkpt lat="43.42055" lon="6.05818">
        <ele>254.80000305176</ele>
        <time>2013-12-21T13:12:23Z</time>
      </trkpt>
      <trkpt lat="43.42053" lon="6.05809">
        <ele>254.39999389648</ele>
        <time>2013-12-21T13:12:24Z</time>
      </trkpt>
      <trkpt lat="43.42049" lon="6.05791">
        <ele>253.39999389648</ele>
        <time>2013-12-21T13:12:26Z</time>
      </trkpt>
      <trkpt lat="43.42048" lon="6.05782">
        <ele>253</ele>
        <time>2013-12-21T13:12:27Z</time>
      </trkpt>
      <trkpt lat="43.42043" lon="6.05757">
        <ele>253</ele>
        <time>2013-12-21T13:12:30Z</time>
      </trkpt>
      <trkpt lat="43.42041" lon="6.05749">
        <ele>253</ele>
        <time>2013-12-21T13:12:31Z</time>
      </trkpt>
      <trkpt lat="43.42035" lon="6.05716">
        <ele>253</ele>
        <time>2013-12-21T13:12:35Z</time>
      </trkpt>
      <trkpt lat="43.42033" lon="6.057">
        <ele>253</ele>
        <time>2013-12-21T13:12:37Z</time>
      </trkpt>
      <trkpt lat="43.4203" lon="6.05677">
        <ele>251.80000305176</ele>
        <time>2013-12-21T13:12:40Z</time>
      </trkpt>
      <trkpt lat="43.4203" lon="6.0567">
        <ele>250.80000305176</ele>
        <time>2013-12-21T13:12:41Z</time>
      </trkpt>
      <trkpt lat="43.42027" lon="6.05651">
        <ele>250.80000305176</ele>
        <time>2013-12-21T13:12:44Z</time>
      </trkpt>
      <trkpt lat="43.42023" lon="6.05634">
        <ele>250.80000305176</ele>
        <time>2013-12-21T13:12:47Z</time>
      </trkpt>
      <trkpt lat="43.4202" lon="6.05619">
        <ele>252.19999694824</ele>
        <time>2013-12-21T13:12:50Z</time>
      </trkpt>
      <trkpt lat="43.42019" lon="6.05613">
        <ele>252.60000610352</ele>
        <time>2013-12-21T13:12:51Z</time>
      </trkpt>
      <trkpt lat="43.42017" lon="6.05599">
        <ele>253</ele>
        <time>2013-12-21T13:12:54Z</time>
      </trkpt>
      <trkpt lat="43.42012" lon="6.05576">
        <ele>254.60000610352</ele>
        <time>2013-12-21T13:12:59Z</time>
      </trkpt>
      <trkpt lat="43.4201" lon="6.05557">
        <ele>255</ele>
        <time>2013-12-21T13:13:04Z</time>
      </trkpt>
      <trkpt lat="43.4201" lon="6.05551">
        <ele>256</ele>
        <time>2013-12-21T13:13:06Z</time>
      </trkpt>
      <trkpt lat="43.42009" lon="6.05544">
        <ele>256.79998779297</ele>
        <time>2013-12-21T13:13:08Z</time>
      </trkpt>
      <trkpt lat="43.42009" lon="6.05541">
        <ele>257.20001220703</ele>
        <time>2013-12-21T13:13:09Z</time>
      </trkpt>
      <trkpt lat="43.42007" lon="6.05531">
        <ele>257.20001220703</ele>
        <time>2013-12-21T13:13:12Z</time>
      </trkpt>
      <trkpt lat="43.42004" lon="6.05513">
        <ele>257.60000610352</ele>
        <time>2013-12-21T13:13:17Z</time>
      </trkpt>
      <trkpt lat="43.42003" lon="6.05507">
        <ele>258.39999389648</ele>
        <time>2013-12-21T13:13:19Z</time>
      </trkpt>
      <trkpt lat="43.42002" lon="6.05504">
        <ele>258.79998779297</ele>
        <time>2013-12-21T13:13:20Z</time>
      </trkpt>
      <trkpt lat="43.42002" lon="6.05501">
        <ele>259.39999389648</ele>
        <time>2013-12-21T13:13:21Z</time>
      </trkpt>
      <trkpt lat="43.41999" lon="6.05484">
        <ele>259.39999389648</ele>
        <time>2013-12-21T13:13:26Z</time>
      </trkpt>
      <trkpt lat="43.41993" lon="6.05459">
        <ele>259.39999389648</ele>
        <time>2013-12-21T13:13:32Z</time>
      </trkpt>
      <trkpt lat="43.41986" lon="6.05432">
        <ele>259.39999389648</ele>
        <time>2013-12-21T13:13:37Z</time>
      </trkpt>
      <trkpt lat="43.41984" lon="6.05426">
        <ele>259.39999389648</ele>
        <time>2013-12-21T13:13:38Z</time>
      </trkpt>
      <trkpt lat="43.41974" lon="6.05388">
        <ele>258.79998779297</ele>
        <time>2013-12-21T13:13:43Z</time>
      </trkpt>
      <trkpt lat="43.41972" lon="6.0538">
        <ele>258.39999389648</ele>
        <time>2013-12-21T13:13:44Z</time>
      </trkpt>
      <trkpt lat="43.4197" lon="6.05371">
        <ele>257.79998779297</ele>
        <time>2013-12-21T13:13:45Z</time>
      </trkpt>
      <trkpt lat="43.41967" lon="6.05353">
        <ele>257</ele>
        <time>2013-12-21T13:13:47Z</time>
      </trkpt>
      <trkpt lat="43.41962" lon="6.05333">
        <ele>256.39999389648</ele>
        <time>2013-12-21T13:13:49Z</time>
      </trkpt>
      <trkpt lat="43.4196" lon="6.05323">
        <ele>256</ele>
        <time>2013-12-21T13:13:50Z</time>
      </trkpt>
      <trkpt lat="43.41958" lon="6.05313">
        <ele>255.60000610352</ele>
        <time>2013-12-21T13:13:51Z</time>
      </trkpt>
      <trkpt lat="43.41955" lon="6.05303">
        <ele>255.19999694824</ele>
        <time>2013-12-21T13:13:52Z</time>
      </trkpt>
      <trkpt lat="43.41953" lon="6.05292">
        <ele>254.60000610352</ele>
        <time>2013-12-21T13:13:53Z</time>
      </trkpt>
      <trkpt lat="43.41949" lon="6.0527">
        <ele>253.60000610352</ele>
        <time>2013-12-21T13:13:55Z</time>
      </trkpt>
      <trkpt lat="43.41948" lon="6.05259">
        <ele>253.19999694824</ele>
        <time>2013-12-21T13:13:56Z</time>
      </trkpt>
      <trkpt lat="43.41945" lon="6.05246">
        <ele>252.80000305176</ele>
        <time>2013-12-21T13:13:57Z</time>
      </trkpt>
      <trkpt lat="43.41943" lon="6.05234">
        <ele>252.19999694824</ele>
        <time>2013-12-21T13:13:58Z</time>
      </trkpt>
      <trkpt lat="43.41942" lon="6.05222">
        <ele>251.60000610352</ele>
        <time>2013-12-21T13:13:59Z</time>
      </trkpt>
      <trkpt lat="43.41941" lon="6.05211">
        <ele>251.19999694824</ele>
        <time>2013-12-21T13:14:00Z</time>
      </trkpt>
      <trkpt lat="43.41941" lon="6.05201">
        <ele>250.60000610352</ele>
        <time>2013-12-21T13:14:01Z</time>
      </trkpt>
      <trkpt lat="43.4194" lon="6.05192">
        <ele>250.19999694824</ele>
        <time>2013-12-21T13:14:02Z</time>
      </trkpt>
      <trkpt lat="43.4194" lon="6.05183">
        <ele>249.80000305176</ele>
        <time>2013-12-21T13:14:03Z</time>
      </trkpt>
      <trkpt lat="43.41939" lon="6.05175">
        <ele>249.39999389648</ele>
        <time>2013-12-21T13:14:04Z</time>
      </trkpt>
      <trkpt lat="43.41939" lon="6.05166">
        <ele>248.80000305176</ele>
        <time>2013-12-21T13:14:05Z</time>
      </trkpt>
      <trkpt lat="43.4194" lon="6.05159">
        <ele>248.39999389648</ele>
        <time>2013-12-21T13:14:06Z</time>
      </trkpt>
      <trkpt lat="43.41946" lon="6.05147">
        <ele>247.19999694824</ele>
        <time>2013-12-21T13:14:08Z</time>
      </trkpt>
      <trkpt lat="43.41954" lon="6.05144">
        <ele>246</ele>
        <time>2013-12-21T13:14:10Z</time>
      </trkpt>
      <trkpt lat="43.41957" lon="6.05142">
        <ele>245.39999389648</ele>
        <time>2013-12-21T13:14:11Z</time>
      </trkpt>
      <trkpt lat="43.41971" lon="6.05137">
        <ele>245.39999389648</ele>
        <time>2013-12-21T13:14:16Z</time>
      </trkpt>
      <trkpt lat="43.4198" lon="6.05134">
        <ele>245.39999389648</ele>
        <time>2013-12-21T13:14:19Z</time>
      </trkpt>
      <trkpt lat="43.41991" lon="6.05133">
        <ele>245.39999389648</ele>
        <time>2013-12-21T13:14:23Z</time>
      </trkpt>
      <trkpt lat="43.42001" lon="6.05131">
        <ele>245.80000305176</ele>
        <time>2013-12-21T13:14:27Z</time>
      </trkpt>
      <trkpt lat="43.42025" lon="6.05124">
        <ele>247.60000610352</ele>
        <time>2013-12-21T13:14:35Z</time>
      </trkpt>
      <trkpt lat="43.42046" lon="6.05117">
        <ele>247.60000610352</ele>
        <time>2013-12-21T13:14:42Z</time>
      </trkpt>
      <trkpt lat="43.42062" lon="6.05114">
        <ele>247.60000610352</ele>
        <time>2013-12-21T13:14:48Z</time>
      </trkpt>
      <trkpt lat="43.42068" lon="6.05113">
        <ele>248</ele>
        <time>2013-12-21T13:14:50Z</time>
      </trkpt>
      <trkpt lat="43.42076" lon="6.05113">
        <ele>249.19999694824</ele>
        <time>2013-12-21T13:14:53Z</time>
      </trkpt>
      <trkpt lat="43.42086" lon="6.05114">
        <ele>249.60000610352</ele>
        <time>2013-12-21T13:14:57Z</time>
      </trkpt>
      <trkpt lat="43.42095" lon="6.05113">
        <ele>249.60000610352</ele>
        <time>2013-12-21T13:15:01Z</time>
      </trkpt>
      <trkpt lat="43.42106" lon="6.05112">
        <ele>249.60000610352</ele>
        <time>2013-12-21T13:15:05Z</time>
      </trkpt>
      <trkpt lat="43.42116" lon="6.05114">
        <ele>250.39999389648</ele>
        <time>2013-12-21T13:15:09Z</time>
      </trkpt>
      <trkpt lat="43.42122" lon="6.05117">
        <ele>251.19999694824</ele>
        <time>2013-12-21T13:15:11Z</time>
      </trkpt>
      <trkpt lat="43.42124" lon="6.05118">
        <ele>251.60000610352</ele>
        <time>2013-12-21T13:15:12Z</time>
      </trkpt>
      <trkpt lat="43.42136" lon="6.05131">
        <ele>251.60000610352</ele>
        <time>2013-12-21T13:15:18Z</time>
      </trkpt>
      <trkpt lat="43.42147" lon="6.05146">
        <ele>252</ele>
        <time>2013-12-21T13:15:25Z</time>
      </trkpt>
      <trkpt lat="43.42149" lon="6.05148">
        <ele>252.39999389648</ele>
        <time>2013-12-21T13:15:26Z</time>
      </trkpt>
      <trkpt lat="43.42155" lon="6.05154">
        <ele>253.80000305176</ele>
        <time>2013-12-21T13:15:29Z</time>
      </trkpt>
      <trkpt lat="43.42163" lon="6.0516">
        <ele>253.80000305176</ele>
        <time>2013-12-21T13:15:33Z</time>
      </trkpt>
      <trkpt lat="43.42176" lon="6.05169">
        <ele>253.80000305176</ele>
        <time>2013-12-21T13:15:39Z</time>
      </trkpt>
      <trkpt lat="43.42194" lon="6.05167">
        <ele>253.80000305176</ele>
        <time>2013-12-21T13:15:43Z</time>
      </trkpt>
      <trkpt lat="43.42195" lon="6.05168">
        <ele>254.19999694824</ele>
        <time>2013-12-21T13:15:45Z</time>
      </trkpt>
      <trkpt lat="43.42196" lon="6.05168">
        <ele>254.60000610352</ele>
        <time>2013-12-21T13:15:46Z</time>
      </trkpt>
      <trkpt lat="43.42197" lon="6.05168">
        <ele>255</ele>
        <time>2013-12-21T13:15:47Z</time>
      </trkpt>
      <trkpt lat="43.42197" lon="6.05169">
        <ele>255.39999389648</ele>
        <time>2013-12-21T13:15:48Z</time>
      </trkpt>
      <trkpt lat="43.42197" lon="6.05169">
        <ele>255.80000305176</ele>
        <time>2013-12-21T13:15:49Z</time>
      </trkpt>
      <trkpt lat="43.42197" lon="6.05169">
        <ele>255.80000305176</ele>
        <time>2013-12-21T13:16:01Z</time>
      </trkpt>
      <trkpt lat="43.42198" lon="6.0517">
        <ele>255.80000305176</ele>
        <time>2013-12-21T13:16:05Z</time>
      </trkpt>
      <trkpt lat="43.42198" lon="6.0517">
        <ele>255.80000305176</ele>
        <time>2013-12-21T13:16:11Z</time>
      </trkpt>
      <trkpt lat="43.42198" lon="6.0517">
        <ele>255.80000305176</ele>
        <time>2013-12-21T13:16:28Z</time>
      </trkpt>
      <trkpt lat="43.42198" lon="6.0517">
        <ele>255.80000305176</ele>
        <time>2013-12-21T13:17:23Z</time>
      </trkpt>
      <trkpt lat="43.42199" lon="6.05169">
        <ele>255.80000305176</ele>
        <time>2013-12-21T13:17:29Z</time>
      </trkpt>
      <trkpt lat="43.42199" lon="6.05169">
        <ele>255.80000305176</ele>
        <time>2013-12-21T13:17:33Z</time>
      </trkpt>
      <trkpt lat="43.42199" lon="6.05169">
        <ele>255.80000305176</ele>
        <time>2013-12-21T13:17:35Z</time>
      </trkpt>
      <trkpt lat="43.422" lon="6.05172">
        <ele>255.80000305176</ele>
        <time>2013-12-21T13:17:37Z</time>
      </trkpt>
      <trkpt lat="43.42206" lon="6.05177">
        <ele>255.80000305176</ele>
        <time>2013-12-21T13:17:42Z</time>
      </trkpt>
      <trkpt lat="43.4221" lon="6.0518">
        <ele>255.80000305176</ele>
        <time>2013-12-21T13:17:46Z</time>
      </trkpt>
      <trkpt lat="43.42212" lon="6.05181">
        <ele>255.80000305176</ele>
        <time>2013-12-21T13:17:47Z</time>
      </trkpt>
      <trkpt lat="43.42218" lon="6.05186">
        <ele>255.80000305176</ele>
        <time>2013-12-21T13:17:51Z</time>
      </trkpt>
      <trkpt lat="43.42226" lon="6.0519">
        <ele>255.80000305176</ele>
        <time>2013-12-21T13:17:56Z</time>
      </trkpt>
      <trkpt lat="43.42227" lon="6.05191">
        <ele>255.80000305176</ele>
        <time>2013-12-21T13:17:57Z</time>
      </trkpt>
      <trkpt lat="43.42228" lon="6.05194">
        <ele>255.80000305176</ele>
        <time>2013-12-21T13:17:58Z</time>
      </trkpt>
      <trkpt lat="43.42236" lon="6.052">
        <ele>256.20001220703</ele>
        <time>2013-12-21T13:18:02Z</time>
      </trkpt>
      <trkpt lat="43.42237" lon="6.05201">
        <ele>256.60000610352</ele>
        <time>2013-12-21T13:18:03Z</time>
      </trkpt>
      <trkpt lat="43.42243" lon="6.05207">
        <ele>257.79998779297</ele>
        <time>2013-12-21T13:18:06Z</time>
      </trkpt>
      <trkpt lat="43.42248" lon="6.05208">
        <ele>257.79998779297</ele>
        <time>2013-12-21T13:18:09Z</time>
      </trkpt>
      <trkpt lat="43.42249" lon="6.05208">
        <ele>257.79998779297</ele>
        <time>2013-12-21T13:18:10Z</time>
      </trkpt>
      <trkpt lat="43.42261" lon="6.05209">
        <ele>257.79998779297</ele>
        <time>2013-12-21T13:18:16Z</time>
      </trkpt>
      <trkpt lat="43.42272" lon="6.05203">
        <ele>257.79998779297</ele>
        <time>2013-12-21T13:18:23Z</time>
      </trkpt>
      <trkpt lat="43.42278" lon="6.05197">
        <ele>260</ele>
        <time>2013-12-21T13:18:27Z</time>
      </trkpt>
      <trkpt lat="43.42281" lon="6.05195">
        <ele>260</ele>
        <time>2013-12-21T13:18:29Z</time>
      </trkpt>
      <trkpt lat="43.42288" lon="6.05193">
        <ele>260</ele>
        <time>2013-12-21T13:18:33Z</time>
      </trkpt>
      <trkpt lat="43.4229" lon="6.05194">
        <ele>260</ele>
        <time>2013-12-21T13:18:34Z</time>
      </trkpt>
      <trkpt lat="43.42303" lon="6.05205">
        <ele>260</ele>
        <time>2013-12-21T13:18:41Z</time>
      </trkpt>
      <trkpt lat="43.42314" lon="6.05205">
        <ele>260</ele>
        <time>2013-12-21T13:18:47Z</time>
      </trkpt>
      <trkpt lat="43.42325" lon="6.05199">
        <ele>261.60000610352</ele>
        <time>2013-12-21T13:18:53Z</time>
      </trkpt>
      <trkpt lat="43.42332" lon="6.05201">
        <ele>262.20001220703</ele>
        <time>2013-12-21T13:18:58Z</time>
      </trkpt>
      <trkpt lat="43.4234" lon="6.05198">
        <ele>262.20001220703</ele>
        <time>2013-12-21T13:19:03Z</time>
      </trkpt>
      <trkpt lat="43.42348" lon="6.05199">
        <ele>264.20001220703</ele>
        <time>2013-12-21T13:19:09Z</time>
      </trkpt>
      <trkpt lat="43.42355" lon="6.05198">
        <ele>264.20001220703</ele>
        <time>2013-12-21T13:19:14Z</time>
      </trkpt>
      <trkpt lat="43.42361" lon="6.05191">
        <ele>266.20001220703</ele>
        <time>2013-12-21T13:19:21Z</time>
      </trkpt>
      <trkpt lat="43.42365" lon="6.05189">
        <ele>266.20001220703</ele>
        <time>2013-12-21T13:19:25Z</time>
      </trkpt>
      <trkpt lat="43.42369" lon="6.05187">
        <ele>266.20001220703</ele>
        <time>2013-12-21T13:19:28Z</time>
      </trkpt>
      <trkpt lat="43.42373" lon="6.05186">
        <ele>266.79998779297</ele>
        <time>2013-12-21T13:19:31Z</time>
      </trkpt>
      <trkpt lat="43.42374" lon="6.05186">
        <ele>267.20001220703</ele>
        <time>2013-12-21T13:19:32Z</time>
      </trkpt>
      <trkpt lat="43.42376" lon="6.05186">
        <ele>268</ele>
        <time>2013-12-21T13:19:34Z</time>
      </trkpt>
      <trkpt lat="43.42376" lon="6.05186">
        <ele>268.39999389648</ele>
        <time>2013-12-21T13:19:36Z</time>
      </trkpt>
      <trkpt lat="43.42376" lon="6.05186">
        <ele>268.39999389648</ele>
        <time>2013-12-21T13:19:39Z</time>
      </trkpt>
      <trkpt lat="43.42377" lon="6.05187">
        <ele>268.39999389648</ele>
        <time>2013-12-21T13:19:43Z</time>
      </trkpt>
      <trkpt lat="43.42384" lon="6.05187">
        <ele>268.79998779297</ele>
        <time>2013-12-21T13:19:49Z</time>
      </trkpt>
      <trkpt lat="43.42385" lon="6.05186">
        <ele>269.20001220703</ele>
        <time>2013-12-21T13:19:50Z</time>
      </trkpt>
      <trkpt lat="43.42385" lon="6.05185">
        <ele>269.60000610352</ele>
        <time>2013-12-21T13:19:51Z</time>
      </trkpt>
      <trkpt lat="43.42386" lon="6.05183">
        <ele>270</ele>
        <time>2013-12-21T13:19:52Z</time>
      </trkpt>
      <trkpt lat="43.42387" lon="6.05182">
        <ele>270.39999389648</ele>
        <time>2013-12-21T13:19:53Z</time>
      </trkpt>
      <trkpt lat="43.42392" lon="6.05176">
        <ele>270.39999389648</ele>
        <time>2013-12-21T13:19:59Z</time>
      </trkpt>
      <trkpt lat="43.42396" lon="6.05175">
        <ele>270.39999389648</ele>
        <time>2013-12-21T13:20:04Z</time>
      </trkpt>
      <trkpt lat="43.42396" lon="6.05175">
        <ele>270.39999389648</ele>
        <time>2013-12-21T13:20:30Z</time>
      </trkpt>
      <trkpt lat="43.42396" lon="6.05175">
        <ele>270.39999389648</ele>
        <time>2013-12-21T13:20:49Z</time>
      </trkpt>
      <trkpt lat="43.42395" lon="6.05175">
        <ele>270.39999389648</ele>
        <time>2013-12-21T13:20:55Z</time>
      </trkpt>
      <trkpt lat="43.42395" lon="6.05175">
        <ele>270.39999389648</ele>
        <time>2013-12-21T13:21:02Z</time>
      </trkpt>
      <trkpt lat="43.42395" lon="6.05175">
        <ele>270.39999389648</ele>
        <time>2013-12-21T13:21:42Z</time>
      </trkpt>
      <trkpt lat="43.42395" lon="6.05175">
        <ele>270.39999389648</ele>
        <time>2013-12-21T13:22:27Z</time>
      </trkpt>
      <trkpt lat="43.42395" lon="6.05175">
        <ele>270.39999389648</ele>
        <time>2013-12-21T13:22:44Z</time>
      </trkpt>
      <trkpt lat="43.42395" lon="6.05174">
        <ele>270.39999389648</ele>
        <time>2013-12-21T13:23:15Z</time>
      </trkpt>
      <trkpt lat="43.42395" lon="6.05174">
        <ele>270.39999389648</ele>
        <time>2013-12-21T13:23:31Z</time>
      </trkpt>
      <trkpt lat="43.42395" lon="6.05174">
        <ele>270.39999389648</ele>
        <time>2013-12-21T13:23:43Z</time>
      </trkpt>
      <trkpt lat="43.42395" lon="6.05174">
        <ele>270.39999389648</ele>
        <time>2013-12-21T13:24:14Z</time>
      </trkpt>
      <trkpt lat="43.42395" lon="6.05175">
        <ele>270.39999389648</ele>
        <time>2013-12-21T13:27:41Z</time>
      </trkpt>
      <trkpt lat="43.42395" lon="6.05175">
        <ele>270.39999389648</ele>
        <time>2013-12-21T13:28:02Z</time>
      </trkpt>
      <trkpt lat="43.42395" lon="6.05175">
        <ele>270.39999389648</ele>
        <time>2013-12-21T13:28:23Z</time>
      </trkpt>
      <trkpt lat="43.42395" lon="6.05175">
        <ele>270.39999389648</ele>
        <time>2013-12-21T13:28:39Z</time>
      </trkpt>
      <trkpt lat="43.42395" lon="6.05175">
        <ele>270.39999389648</ele>
        <time>2013-12-21T13:29:25Z</time>
      </trkpt>
      <trkpt lat="43.42395" lon="6.05175">
        <ele>270.39999389648</ele>
        <time>2013-12-21T13:29:38Z</time>
      </trkpt>
      <trkpt lat="43.42395" lon="6.05174">
        <ele>270.39999389648</ele>
        <time>2013-12-21T13:29:43Z</time>
      </trkpt>
      <trkpt lat="43.42395" lon="6.05174">
        <ele>270.39999389648</ele>
        <time>2013-12-21T13:30:04Z</time>
      </trkpt>
      <trkpt lat="43.42395" lon="6.05174">
        <ele>270.39999389648</ele>
        <time>2013-12-21T13:30:13Z</time>
      </trkpt>
      <trkpt lat="43.42395" lon="6.05175">
        <ele>270.39999389648</ele>
        <time>2013-12-21T13:30:22Z</time>
      </trkpt>
      <trkpt lat="43.42395" lon="6.05175">
        <ele>270.39999389648</ele>
        <time>2013-12-21T13:30:28Z</time>
      </trkpt>
      <trkpt lat="43.42396" lon="6.05176">
        <ele>270.39999389648</ele>
        <time>2013-12-21T13:30:35Z</time>
      </trkpt>
      <trkpt lat="43.42396" lon="6.05176">
        <ele>270.39999389648</ele>
        <time>2013-12-21T13:30:40Z</time>
      </trkpt>
      <trkpt lat="43.42396" lon="6.05176">
        <ele>270.39999389648</ele>
        <time>2013-12-21T13:30:49Z</time>
      </trkpt>
      <trkpt lat="43.42396" lon="6.05177">
        <ele>270.39999389648</ele>
        <time>2013-12-21T13:30:58Z</time>
      </trkpt>
      <trkpt lat="43.42396" lon="6.05177">
        <ele>270.39999389648</ele>
        <time>2013-12-21T13:31:09Z</time>
      </trkpt>
      <trkpt lat="43.42396" lon="6.05177">
        <ele>270.39999389648</ele>
        <time>2013-12-21T13:31:24Z</time>
      </trkpt>
      <trkpt lat="43.42397" lon="6.05178">
        <ele>270.39999389648</ele>
        <time>2013-12-21T13:31:31Z</time>
      </trkpt>
      <trkpt lat="43.42397" lon="6.05178">
        <ele>270.39999389648</ele>
        <time>2013-12-21T13:31:57Z</time>
      </trkpt>
      <trkpt lat="43.42397" lon="6.05178">
        <ele>270.39999389648</ele>
        <time>2013-12-21T13:32:10Z</time>
      </trkpt>
      <trkpt lat="43.42397" lon="6.05178">
        <ele>270.39999389648</ele>
        <time>2013-12-21T13:32:37Z</time>
      </trkpt>
      <trkpt lat="43.42397" lon="6.05186">
        <ele>270.39999389648</ele>
        <time>2013-12-21T13:32:44Z</time>
      </trkpt>
      <trkpt lat="43.42401" lon="6.052">
        <ele>270</ele>
        <time>2013-12-21T13:32:48Z</time>
      </trkpt>
      <trkpt lat="43.42403" lon="6.05205">
        <ele>269.39999389648</ele>
        <time>2013-12-21T13:32:49Z</time>
      </trkpt>
      <trkpt lat="43.42405" lon="6.0521">
        <ele>268.60000610352</ele>
        <time>2013-12-21T13:32:50Z</time>
      </trkpt>
      <trkpt lat="43.42407" lon="6.05215">
        <ele>268</ele>
        <time>2013-12-21T13:32:51Z</time>
      </trkpt>
      <trkpt lat="43.4241" lon="6.05219">
        <ele>267.39999389648</ele>
        <time>2013-12-21T13:32:52Z</time>
      </trkpt>
      <trkpt lat="43.42414" lon="6.05223">
        <ele>267</ele>
        <time>2013-12-21T13:32:53Z</time>
      </trkpt>
      <trkpt lat="43.42419" lon="6.05226">
        <ele>266.39999389648</ele>
        <time>2013-12-21T13:32:54Z</time>
      </trkpt>
      <trkpt lat="43.42423" lon="6.05227">
        <ele>266</ele>
        <time>2013-12-21T13:32:55Z</time>
      </trkpt>
      <trkpt lat="43.42433" lon="6.05224">
        <ele>266</ele>
        <time>2013-12-21T13:32:58Z</time>
      </trkpt>
      <trkpt lat="43.42436" lon="6.05224">
        <ele>266</ele>
        <time>2013-12-21T13:32:59Z</time>
      </trkpt>
      <trkpt lat="43.42441" lon="6.05223">
        <ele>266</ele>
        <time>2013-12-21T13:33:01Z</time>
      </trkpt>
      <trkpt lat="43.42443" lon="6.05222">
        <ele>266</ele>
        <time>2013-12-21T13:33:02Z</time>
      </trkpt>
      <trkpt lat="43.42458" lon="6.05213">
        <ele>266</ele>
        <time>2013-12-21T13:33:09Z</time>
      </trkpt>
      <trkpt lat="43.42459" lon="6.05213">
        <ele>266</ele>
        <time>2013-12-21T13:33:10Z</time>
      </trkpt>
      <trkpt lat="43.42461" lon="6.05213">
        <ele>266</ele>
        <time>2013-12-21T13:33:11Z</time>
      </trkpt>
      <trkpt lat="43.42464" lon="6.05213">
        <ele>266.39999389648</ele>
        <time>2013-12-21T13:33:12Z</time>
      </trkpt>
      <trkpt lat="43.42467" lon="6.05214">
        <ele>267.20001220703</ele>
        <time>2013-12-21T13:33:14Z</time>
      </trkpt>
      <trkpt lat="43.42469" lon="6.05214">
        <ele>268</ele>
        <time>2013-12-21T13:33:15Z</time>
      </trkpt>
      <trkpt lat="43.42472" lon="6.05215">
        <ele>268</ele>
        <time>2013-12-21T13:33:17Z</time>
      </trkpt>
      <trkpt lat="43.42483" lon="6.05219">
        <ele>268</ele>
        <time>2013-12-21T13:33:23Z</time>
      </trkpt>
      <trkpt lat="43.42493" lon="6.05225">
        <ele>268</ele>
        <time>2013-12-21T13:33:28Z</time>
      </trkpt>
      <trkpt lat="43.42514" lon="6.05226">
        <ele>268</ele>
        <time>2013-12-21T13:33:39Z</time>
      </trkpt>
      <trkpt lat="43.42541" lon="6.05225">
        <ele>268</ele>
        <time>2013-12-21T13:33:52Z</time>
      </trkpt>
      <trkpt lat="43.4255" lon="6.05222">
        <ele>268.79998779297</ele>
        <time>2013-12-21T13:33:56Z</time>
      </trkpt>
      <trkpt lat="43.42551" lon="6.05221">
        <ele>269.20001220703</ele>
        <time>2013-12-21T13:33:57Z</time>
      </trkpt>
      <trkpt lat="43.42555" lon="6.05221">
        <ele>270</ele>
        <time>2013-12-21T13:33:59Z</time>
      </trkpt>
      <trkpt lat="43.42561" lon="6.05222">
        <ele>270</ele>
        <time>2013-12-21T13:34:02Z</time>
      </trkpt>
      <trkpt lat="43.42566" lon="6.05222">
        <ele>270</ele>
        <time>2013-12-21T13:34:04Z</time>
      </trkpt>
      <trkpt lat="43.42582" lon="6.05229">
        <ele>270</ele>
        <time>2013-12-21T13:34:11Z</time>
      </trkpt>
      <trkpt lat="43.42594" lon="6.0524">
        <ele>270</ele>
        <time>2013-12-21T13:34:17Z</time>
      </trkpt>
      <trkpt lat="43.42603" lon="6.05246">
        <ele>270</ele>
        <time>2013-12-21T13:34:22Z</time>
      </trkpt>
      <trkpt lat="43.42613" lon="6.05253">
        <ele>270</ele>
        <time>2013-12-21T13:34:27Z</time>
      </trkpt>
      <trkpt lat="43.42618" lon="6.05257">
        <ele>270.60000610352</ele>
        <time>2013-12-21T13:34:30Z</time>
      </trkpt>
      <trkpt lat="43.42628" lon="6.05264">
        <ele>272.39999389648</ele>
        <time>2013-12-21T13:34:37Z</time>
      </trkpt>
      <trkpt lat="43.42632" lon="6.05269">
        <ele>272.39999389648</ele>
        <time>2013-12-21T13:34:40Z</time>
      </trkpt>
      <trkpt lat="43.42633" lon="6.05272">
        <ele>272.39999389648</ele>
        <time>2013-12-21T13:34:42Z</time>
      </trkpt>
      <trkpt lat="43.42638" lon="6.05277">
        <ele>272.39999389648</ele>
        <time>2013-12-21T13:34:46Z</time>
      </trkpt>
      <trkpt lat="43.42642" lon="6.0528">
        <ele>272.39999389648</ele>
        <time>2013-12-21T13:34:49Z</time>
      </trkpt>
      <trkpt lat="43.4265" lon="6.0529">
        <ele>273.20001220703</ele>
        <time>2013-12-21T13:34:55Z</time>
      </trkpt>
      <trkpt lat="43.42651" lon="6.05291">
        <ele>273.60000610352</ele>
        <time>2013-12-21T13:34:56Z</time>
      </trkpt>
      <trkpt lat="43.42656" lon="6.05301">
        <ele>274.39999389648</ele>
        <time>2013-12-21T13:35:01Z</time>
      </trkpt>
      <trkpt lat="43.42662" lon="6.05312">
        <ele>274.39999389648</ele>
        <time>2013-12-21T13:35:07Z</time>
      </trkpt>
      <trkpt lat="43.42674" lon="6.05328">
        <ele>275.79998779297</ele>
        <time>2013-12-21T13:35:16Z</time>
      </trkpt>
      <trkpt lat="43.42677" lon="6.0533">
        <ele>276.60000610352</ele>
        <time>2013-12-21T13:35:18Z</time>
      </trkpt>
      <trkpt lat="43.42678" lon="6.05333">
        <ele>276.60000610352</ele>
        <time>2013-12-21T13:35:20Z</time>
      </trkpt>
      <trkpt lat="43.42682" lon="6.05338">
        <ele>277</ele>
        <time>2013-12-21T13:35:23Z</time>
      </trkpt>
      <trkpt lat="43.42685" lon="6.0534">
        <ele>277.79998779297</ele>
        <time>2013-12-21T13:35:25Z</time>
      </trkpt>
      <trkpt lat="43.42686" lon="6.0534">
        <ele>278.20001220703</ele>
        <time>2013-12-21T13:35:26Z</time>
      </trkpt>
      <trkpt lat="43.42688" lon="6.0534">
        <ele>278.60000610352</ele>
        <time>2013-12-21T13:35:27Z</time>
      </trkpt>
      <trkpt lat="43.4269" lon="6.0534">
        <ele>278.60000610352</ele>
        <time>2013-12-21T13:35:30Z</time>
      </trkpt>
      <trkpt lat="43.42691" lon="6.05341">
        <ele>278.60000610352</ele>
        <time>2013-12-21T13:35:33Z</time>
      </trkpt>
      <trkpt lat="43.42691" lon="6.05342">
        <ele>278.60000610352</ele>
        <time>2013-12-21T13:35:36Z</time>
      </trkpt>
      <trkpt lat="43.42691" lon="6.05342">
        <ele>278.60000610352</ele>
        <time>2013-12-21T13:35:41Z</time>
      </trkpt>
      <trkpt lat="43.42691" lon="6.05342">
        <ele>278.60000610352</ele>
        <time>2013-12-21T13:35:42Z</time>
      </trkpt>
      <trkpt lat="43.42694" lon="6.05341">
        <ele>278.60000610352</ele>
        <time>2013-12-21T13:35:50Z</time>
      </trkpt>
      <trkpt lat="43.427" lon="6.05342">
        <ele>278.60000610352</ele>
        <time>2013-12-21T13:35:54Z</time>
      </trkpt>
      <trkpt lat="43.42704" lon="6.0534">
        <ele>278.60000610352</ele>
        <time>2013-12-21T13:35:56Z</time>
      </trkpt>
      <trkpt lat="43.42712" lon="6.05342">
        <ele>278.60000610352</ele>
        <time>2013-12-21T13:36:01Z</time>
      </trkpt>
      <trkpt lat="43.42717" lon="6.05348">
        <ele>279</ele>
        <time>2013-12-21T13:36:05Z</time>
      </trkpt>
      <trkpt lat="43.42716" lon="6.05378">
        <ele>280.79998779297</ele>
        <time>2013-12-21T13:36:18Z</time>
      </trkpt>
      <trkpt lat="43.42716" lon="6.05382">
        <ele>281.20001220703</ele>
        <time>2013-12-21T13:36:20Z</time>
      </trkpt>
      <trkpt lat="43.42718" lon="6.05387">
        <ele>282.39999389648</ele>
        <time>2013-12-21T13:36:23Z</time>
      </trkpt>
      <trkpt lat="43.4272" lon="6.05392">
        <ele>282.79998779297</ele>
        <time>2013-12-21T13:36:25Z</time>
      </trkpt>
      <trkpt lat="43.42723" lon="6.054">
        <ele>282.79998779297</ele>
        <time>2013-12-21T13:36:29Z</time>
      </trkpt>
      <trkpt lat="43.42725" lon="6.0541">
        <ele>283.20001220703</ele>
        <time>2013-12-21T13:36:33Z</time>
      </trkpt>
      <trkpt lat="43.42728" lon="6.05414">
        <ele>284</ele>
        <time>2013-12-21T13:36:35Z</time>
      </trkpt>
      <trkpt lat="43.42729" lon="6.05423">
        <ele>284.79998779297</ele>
        <time>2013-12-21T13:36:39Z</time>
      </trkpt>
      <trkpt lat="43.42731" lon="6.05437">
        <ele>284.79998779297</ele>
        <time>2013-12-21T13:36:45Z</time>
      </trkpt>
      <trkpt lat="43.4273" lon="6.05451">
        <ele>284.79998779297</ele>
        <time>2013-12-21T13:36:51Z</time>
      </trkpt>
      <trkpt lat="43.42725" lon="6.05461">
        <ele>286.79998779297</ele>
        <time>2013-12-21T13:36:57Z</time>
      </trkpt>
      <trkpt lat="43.42723" lon="6.05469">
        <ele>286.79998779297</ele>
        <time>2013-12-21T13:37:01Z</time>
      </trkpt>
      <trkpt lat="43.42724" lon="6.05484">
        <ele>286.79998779297</ele>
        <time>2013-12-21T13:37:07Z</time>
      </trkpt>
      <trkpt lat="43.42725" lon="6.05499">
        <ele>287.20001220703</ele>
        <time>2013-12-21T13:37:13Z</time>
      </trkpt>
      <trkpt lat="43.42725" lon="6.05503">
        <ele>288</ele>
        <time>2013-12-21T13:37:15Z</time>
      </trkpt>
      <trkpt lat="43.42727" lon="6.05517">
        <ele>288.79998779297</ele>
        <time>2013-12-21T13:37:21Z</time>
      </trkpt>
      <trkpt lat="43.42728" lon="6.05529">
        <ele>289.20001220703</ele>
        <time>2013-12-21T13:37:27Z</time>
      </trkpt>
      <trkpt lat="43.42733" lon="6.05547">
        <ele>290.79998779297</ele>
        <time>2013-12-21T13:37:35Z</time>
      </trkpt>
      <trkpt lat="43.42737" lon="6.05557">
        <ele>290.79998779297</ele>
        <time>2013-12-21T13:37:40Z</time>
      </trkpt>
      <trkpt lat="43.42739" lon="6.05567">
        <ele>291.20001220703</ele>
        <time>2013-12-21T13:37:45Z</time>
      </trkpt>
      <trkpt lat="43.42749" lon="6.05579">
        <ele>293</ele>
        <time>2013-12-21T13:37:53Z</time>
      </trkpt>
      <trkpt lat="43.42754" lon="6.05593">
        <ele>294.79998779297</ele>
        <time>2013-12-21T13:38:02Z</time>
      </trkpt>
      <trkpt lat="43.42754" lon="6.05596">
        <ele>295.20001220703</ele>
        <time>2013-12-21T13:38:03Z</time>
      </trkpt>
      <trkpt lat="43.42752" lon="6.05609">
        <ele>295.20001220703</ele>
        <time>2013-12-21T13:38:10Z</time>
      </trkpt>
      <trkpt lat="43.4275" lon="6.05615">
        <ele>296.39999389648</ele>
        <time>2013-12-21T13:38:13Z</time>
      </trkpt>
      <trkpt lat="43.42747" lon="6.05621">
        <ele>297.20001220703</ele>
        <time>2013-12-21T13:38:17Z</time>
      </trkpt>
      <trkpt lat="43.42744" lon="6.05632">
        <ele>297.20001220703</ele>
        <time>2013-12-21T13:38:23Z</time>
      </trkpt>
      <trkpt lat="43.42734" lon="6.05641">
        <ele>299.39999389648</ele>
        <time>2013-12-21T13:38:31Z</time>
      </trkpt>
      <trkpt lat="43.42731" lon="6.05644">
        <ele>299.39999389648</ele>
        <time>2013-12-21T13:38:33Z</time>
      </trkpt>
      <trkpt lat="43.42726" lon="6.05654">
        <ele>299.39999389648</ele>
        <time>2013-12-21T13:38:39Z</time>
      </trkpt>
      <trkpt lat="43.42723" lon="6.05665">
        <ele>299.39999389648</ele>
        <time>2013-12-21T13:38:45Z</time>
      </trkpt>
      <trkpt lat="43.42719" lon="6.05672">
        <ele>299.39999389648</ele>
        <time>2013-12-21T13:38:49Z</time>
      </trkpt>
      <trkpt lat="43.42717" lon="6.05673">
        <ele>299.79998779297</ele>
        <time>2013-12-21T13:38:50Z</time>
      </trkpt>
      <trkpt lat="43.42712" lon="6.05677">
        <ele>301.39999389648</ele>
        <time>2013-12-21T13:38:54Z</time>
      </trkpt>
      <trkpt lat="43.42709" lon="6.05681">
        <ele>301.39999389648</ele>
        <time>2013-12-21T13:38:57Z</time>
      </trkpt>
      <trkpt lat="43.42705" lon="6.05687">
        <ele>301.39999389648</ele>
        <time>2013-12-21T13:39:02Z</time>
      </trkpt>
      <trkpt lat="43.42704" lon="6.05691">
        <ele>301.79998779297</ele>
        <time>2013-12-21T13:39:04Z</time>
      </trkpt>
      <trkpt lat="43.42705" lon="6.05696">
        <ele>303</ele>
        <time>2013-12-21T13:39:07Z</time>
      </trkpt>
      <trkpt lat="43.42703" lon="6.057">
        <ele>303.39999389648</ele>
        <time>2013-12-21T13:39:12Z</time>
      </trkpt>
      <trkpt lat="43.42701" lon="6.05706">
        <ele>303.39999389648</ele>
        <time>2013-12-21T13:39:17Z</time>
      </trkpt>
      <trkpt lat="43.42698" lon="6.05718">
        <ele>305.39999389648</ele>
        <time>2013-12-21T13:39:25Z</time>
      </trkpt>
      <trkpt lat="43.42697" lon="6.0572">
        <ele>305.39999389648</ele>
        <time>2013-12-21T13:39:27Z</time>
      </trkpt>
      <trkpt lat="43.42697" lon="6.05731">
        <ele>305.39999389648</ele>
        <time>2013-12-21T13:39:34Z</time>
      </trkpt>
      <trkpt lat="43.42698" lon="6.05733">
        <ele>306</ele>
        <time>2013-12-21T13:39:36Z</time>
      </trkpt>
      <trkpt lat="43.42699" lon="6.05735">
        <ele>306.79998779297</ele>
        <time>2013-12-21T13:39:38Z</time>
      </trkpt>
      <trkpt lat="43.427" lon="6.05735">
        <ele>307.20001220703</ele>
        <time>2013-12-21T13:39:39Z</time>
      </trkpt>
      <trkpt lat="43.42701" lon="6.05736">
        <ele>307.60000610352</ele>
        <time>2013-12-21T13:39:40Z</time>
      </trkpt>
      <trkpt lat="43.42702" lon="6.05736">
        <ele>307.60000610352</ele>
        <time>2013-12-21T13:39:44Z</time>
      </trkpt>
      <trkpt lat="43.42702" lon="6.05736">
        <ele>307.60000610352</ele>
        <time>2013-12-21T13:40:01Z</time>
      </trkpt>
      <trkpt lat="43.42702" lon="6.05736">
        <ele>307.60000610352</ele>
        <time>2013-12-21T13:40:22Z</time>
      </trkpt>
      <trkpt lat="43.42704" lon="6.05737">
        <ele>307.60000610352</ele>
        <time>2013-12-21T13:40:25Z</time>
      </trkpt>
      <trkpt lat="43.42705" lon="6.05736">
        <ele>307.60000610352</ele>
        <time>2013-12-21T13:40:26Z</time>
      </trkpt>
      <trkpt lat="43.42716" lon="6.05737">
        <ele>307.60000610352</ele>
        <time>2013-12-21T13:40:32Z</time>
      </trkpt>
      <trkpt lat="43.42728" lon="6.05739">
        <ele>307.60000610352</ele>
        <time>2013-12-21T13:40:38Z</time>
      </trkpt>
      <trkpt lat="43.42743" lon="6.05741">
        <ele>307.60000610352</ele>
        <time>2013-12-21T13:40:45Z</time>
      </trkpt>
      <trkpt lat="43.4275" lon="6.05741">
        <ele>307.60000610352</ele>
        <time>2013-12-21T13:40:49Z</time>
      </trkpt>
      <trkpt lat="43.42759" lon="6.05732">
        <ele>307.60000610352</ele>
        <time>2013-12-21T13:40:55Z</time>
      </trkpt>
      <trkpt lat="43.42773" lon="6.0573">
        <ele>307.60000610352</ele>
        <time>2013-12-21T13:41:02Z</time>
      </trkpt>
      <trkpt lat="43.42778" lon="6.05733">
        <ele>308</ele>
        <time>2013-12-21T13:41:05Z</time>
      </trkpt>
      <trkpt lat="43.42778" lon="6.05734">
        <ele>308.39999389648</ele>
        <time>2013-12-21T13:41:06Z</time>
      </trkpt>
      <trkpt lat="43.42784" lon="6.05735">
        <ele>309.60000610352</ele>
        <time>2013-12-21T13:41:09Z</time>
      </trkpt>
      <trkpt lat="43.42789" lon="6.0574">
        <ele>309.60000610352</ele>
        <time>2013-12-21T13:41:13Z</time>
      </trkpt>
      <trkpt lat="43.42796" lon="6.05744">
        <ele>309.60000610352</ele>
        <time>2013-12-21T13:41:17Z</time>
      </trkpt>
      <trkpt lat="43.428" lon="6.05744">
        <ele>309.60000610352</ele>
        <time>2013-12-21T13:41:19Z</time>
      </trkpt>
      <trkpt lat="43.42805" lon="6.05741">
        <ele>309.60000610352</ele>
        <time>2013-12-21T13:41:22Z</time>
      </trkpt>
      <trkpt lat="43.4281" lon="6.05738">
        <ele>309.60000610352</ele>
        <time>2013-12-21T13:41:24Z</time>
      </trkpt>
      <trkpt lat="43.42815" lon="6.05737">
        <ele>309.60000610352</ele>
        <time>2013-12-21T13:41:26Z</time>
      </trkpt>
      <trkpt lat="43.42823" lon="6.05735">
        <ele>309.60000610352</ele>
        <time>2013-12-21T13:41:30Z</time>
      </trkpt>
      <trkpt lat="43.42825" lon="6.05735">
        <ele>309.60000610352</ele>
        <time>2013-12-21T13:41:31Z</time>
      </trkpt>
      <trkpt lat="43.42831" lon="6.05732">
        <ele>309.60000610352</ele>
        <time>2013-12-21T13:41:37Z</time>
      </trkpt>
      <trkpt lat="43.42831" lon="6.05732">
        <ele>309.60000610352</ele>
        <time>2013-12-21T13:41:57Z</time>
      </trkpt>
      <trkpt lat="43.42831" lon="6.05732">
        <ele>309.60000610352</ele>
        <time>2013-12-21T13:42:12Z</time>
      </trkpt>
      <trkpt lat="43.42832" lon="6.05732">
        <ele>309.60000610352</ele>
        <time>2013-12-21T13:42:19Z</time>
      </trkpt>
      <trkpt lat="43.42832" lon="6.05732">
        <ele>309.60000610352</ele>
        <time>2013-12-21T13:42:34Z</time>
      </trkpt>
      <trkpt lat="43.42832" lon="6.05731">
        <ele>309.60000610352</ele>
        <time>2013-12-21T13:43:14Z</time>
      </trkpt>
      <trkpt lat="43.42832" lon="6.05731">
        <ele>309.60000610352</ele>
        <time>2013-12-21T13:43:46Z</time>
      </trkpt>
      <trkpt lat="43.42833" lon="6.0573">
        <ele>309.60000610352</ele>
        <time>2013-12-21T13:43:56Z</time>
      </trkpt>
      <trkpt lat="43.42836" lon="6.05727">
        <ele>309.60000610352</ele>
        <time>2013-12-21T13:43:58Z</time>
      </trkpt>
      <trkpt lat="43.42841" lon="6.05713">
        <ele>309.60000610352</ele>
        <time>2013-12-21T13:44:03Z</time>
      </trkpt>
      <trkpt lat="43.42843" lon="6.05693">
        <ele>309.60000610352</ele>
        <time>2013-12-21T13:44:09Z</time>
      </trkpt>
      <trkpt lat="43.42845" lon="6.05673">
        <ele>309.60000610352</ele>
        <time>2013-12-21T13:44:15Z</time>
      </trkpt>
      <trkpt lat="43.42847" lon="6.05653">
        <ele>309.60000610352</ele>
        <time>2013-12-21T13:44:20Z</time>
      </trkpt>
      <trkpt lat="43.42848" lon="6.05643">
        <ele>309.60000610352</ele>
        <time>2013-12-21T13:44:22Z</time>
      </trkpt>
      <trkpt lat="43.42851" lon="6.05606">
        <ele>309.60000610352</ele>
        <time>2013-12-21T13:44:30Z</time>
      </trkpt>
      <trkpt lat="43.42855" lon="6.05574">
        <ele>309.60000610352</ele>
        <time>2013-12-21T13:44:37Z</time>
      </trkpt>
      <trkpt lat="43.42861" lon="6.05537">
        <ele>309.60000610352</ele>
        <time>2013-12-21T13:44:44Z</time>
      </trkpt>
      <trkpt lat="43.42866" lon="6.05504">
        <ele>309.60000610352</ele>
        <time>2013-12-21T13:44:51Z</time>
      </trkpt>
      <trkpt lat="43.42869" lon="6.05479">
        <ele>309.60000610352</ele>
        <time>2013-12-21T13:44:56Z</time>
      </trkpt>
      <trkpt lat="43.42876" lon="6.05425">
        <ele>309.60000610352</ele>
        <time>2013-12-21T13:45:09Z</time>
      </trkpt>
      <trkpt lat="43.42879" lon="6.054">
        <ele>309.60000610352</ele>
        <time>2013-12-21T13:45:15Z</time>
      </trkpt>
      <trkpt lat="43.4288" lon="6.05374">
        <ele>309.60000610352</ele>
        <time>2013-12-21T13:45:22Z</time>
      </trkpt>
      <trkpt lat="43.42881" lon="6.05364">
        <ele>309.60000610352</ele>
        <time>2013-12-21T13:45:25Z</time>
      </trkpt>
      <trkpt lat="43.42883" lon="6.05351">
        <ele>310.39999389648</ele>
        <time>2013-12-21T13:45:29Z</time>
      </trkpt>
      <trkpt lat="43.42884" lon="6.05344">
        <ele>311.20001220703</ele>
        <time>2013-12-21T13:45:31Z</time>
      </trkpt>
      <trkpt lat="43.42887" lon="6.05319">
        <ele>311.79998779297</ele>
        <time>2013-12-21T13:45:38Z</time>
      </trkpt>
      <trkpt lat="43.42889" lon="6.05306">
        <ele>312.20001220703</ele>
        <time>2013-12-21T13:45:42Z</time>
      </trkpt>
      <trkpt lat="43.4289" lon="6.05299">
        <ele>313</ele>
        <time>2013-12-21T13:45:44Z</time>
      </trkpt>
      <trkpt lat="43.42891" lon="6.05296">
        <ele>313.39999389648</ele>
        <time>2013-12-21T13:45:45Z</time>
      </trkpt>
      <trkpt lat="43.42891" lon="6.05293">
        <ele>313.79998779297</ele>
        <time>2013-12-21T13:45:46Z</time>
      </trkpt>
      <trkpt lat="43.42894" lon="6.05271">
        <ele>313.79998779297</ele>
        <time>2013-12-21T13:45:52Z</time>
      </trkpt>
      <trkpt lat="43.42897" lon="6.05241">
        <ele>313.79998779297</ele>
        <time>2013-12-21T13:45:59Z</time>
      </trkpt>
      <trkpt lat="43.42901" lon="6.05204">
        <ele>313.79998779297</ele>
        <time>2013-12-21T13:46:07Z</time>
      </trkpt>
      <trkpt lat="43.42904" lon="6.05181">
        <ele>313.79998779297</ele>
        <time>2013-12-21T13:46:12Z</time>
      </trkpt>
      <trkpt lat="43.42905" lon="6.05172">
        <ele>313.79998779297</ele>
        <time>2013-12-21T13:46:14Z</time>
      </trkpt>
      <trkpt lat="43.42909" lon="6.05141">
        <ele>313.79998779297</ele>
        <time>2013-12-21T13:46:20Z</time>
      </trkpt>
      <trkpt lat="43.4291" lon="6.05129">
        <ele>313.39999389648</ele>
        <time>2013-12-21T13:46:22Z</time>
      </trkpt>
      <trkpt lat="43.42912" lon="6.05117">
        <ele>312.60000610352</ele>
        <time>2013-12-21T13:46:24Z</time>
      </trkpt>
      <trkpt lat="43.42913" lon="6.0511">
        <ele>312.20001220703</ele>
        <time>2013-12-21T13:46:25Z</time>
      </trkpt>
      <trkpt lat="43.42913" lon="6.05105">
        <ele>311.79998779297</ele>
        <time>2013-12-21T13:46:26Z</time>
      </trkpt>
      <trkpt lat="43.42914" lon="6.05098">
        <ele>311.79998779297</ele>
        <time>2013-12-21T13:46:27Z</time>
      </trkpt>
      <trkpt lat="43.42916" lon="6.05074">
        <ele>311.79998779297</ele>
        <time>2013-12-21T13:46:31Z</time>
      </trkpt>
      <trkpt lat="43.42919" lon="6.05046">
        <ele>310.79998779297</ele>
        <time>2013-12-21T13:46:37Z</time>
      </trkpt>
      <trkpt lat="43.4292" lon="6.05041">
        <ele>310.39999389648</ele>
        <time>2013-12-21T13:46:38Z</time>
      </trkpt>
      <trkpt lat="43.42921" lon="6.05032">
        <ele>309.60000610352</ele>
        <time>2013-12-21T13:46:40Z</time>
      </trkpt>
      <trkpt lat="43.42923" lon="6.05006">
        <ele>309.60000610352</ele>
        <time>2013-12-21T13:46:45Z</time>
      </trkpt>
      <trkpt lat="43.42928" lon="6.04972">
        <ele>309.60000610352</ele>
        <time>2013-12-21T13:46:52Z</time>
      </trkpt>
      <trkpt lat="43.42931" lon="6.04943">
        <ele>309.20001220703</ele>
        <time>2013-12-21T13:46:59Z</time>
      </trkpt>
      <trkpt lat="43.42932" lon="6.04936">
        <ele>308.39999389648</ele>
        <time>2013-12-21T13:47:01Z</time>
      </trkpt>
      <trkpt lat="43.42933" lon="6.04921">
        <ele>307.60000610352</ele>
        <time>2013-12-21T13:47:05Z</time>
      </trkpt>
      <trkpt lat="43.42933" lon="6.04905">
        <ele>307.60000610352</ele>
        <time>2013-12-21T13:47:10Z</time>
      </trkpt>
      <trkpt lat="43.42935" lon="6.04896">
        <ele>307.20001220703</ele>
        <time>2013-12-21T13:47:13Z</time>
      </trkpt>
      <trkpt lat="43.42936" lon="6.04892">
        <ele>306.39999389648</ele>
        <time>2013-12-21T13:47:15Z</time>
      </trkpt>
      <trkpt lat="43.42936" lon="6.0489">
        <ele>305.60000610352</ele>
        <time>2013-12-21T13:47:16Z</time>
      </trkpt>
      <trkpt lat="43.42938" lon="6.0488">
        <ele>305.20001220703</ele>
        <time>2013-12-21T13:47:20Z</time>
      </trkpt>
      <trkpt lat="43.42939" lon="6.04878">
        <ele>304.79998779297</ele>
        <time>2013-12-21T13:47:21Z</time>
      </trkpt>
      <trkpt lat="43.42941" lon="6.04877">
        <ele>304.20001220703</ele>
        <time>2013-12-21T13:47:22Z</time>
      </trkpt>
      <trkpt lat="43.42943" lon="6.04876">
        <ele>303.79998779297</ele>
        <time>2013-12-21T13:47:23Z</time>
      </trkpt>
      <trkpt lat="43.42944" lon="6.04874">
        <ele>303.39999389648</ele>
        <time>2013-12-21T13:47:24Z</time>
      </trkpt>
      <trkpt lat="43.42946" lon="6.04872">
        <ele>303.39999389648</ele>
        <time>2013-12-21T13:47:26Z</time>
      </trkpt>
      <trkpt lat="43.4295" lon="6.0487">
        <ele>303.39999389648</ele>
        <time>2013-12-21T13:47:28Z</time>
      </trkpt>
      <trkpt lat="43.42953" lon="6.04868">
        <ele>303</ele>
        <time>2013-12-21T13:47:29Z</time>
      </trkpt>
      <trkpt lat="43.42955" lon="6.04865">
        <ele>302.60000610352</ele>
        <time>2013-12-21T13:47:30Z</time>
      </trkpt>
      <trkpt lat="43.4296" lon="6.04861">
        <ele>301.60000610352</ele>
        <time>2013-12-21T13:47:32Z</time>
      </trkpt>
      <trkpt lat="43.42962" lon="6.04859">
        <ele>301.20001220703</ele>
        <time>2013-12-21T13:47:33Z</time>
      </trkpt>
      <trkpt lat="43.42967" lon="6.04852">
        <ele>300.39999389648</ele>
        <time>2013-12-21T13:47:35Z</time>
      </trkpt>
      <trkpt lat="43.42969" lon="6.04848">
        <ele>300</ele>
        <time>2013-12-21T13:47:36Z</time>
      </trkpt>
      <trkpt lat="43.42972" lon="6.04845">
        <ele>299.60000610352</ele>
        <time>2013-12-21T13:47:37Z</time>
      </trkpt>
      <trkpt lat="43.42976" lon="6.04842">
        <ele>299</ele>
        <time>2013-12-21T13:47:38Z</time>
      </trkpt>
      <trkpt lat="43.42979" lon="6.04838">
        <ele>298.39999389648</ele>
        <time>2013-12-21T13:47:39Z</time>
      </trkpt>
      <trkpt lat="43.42982" lon="6.04835">
        <ele>297</ele>
        <time>2013-12-21T13:47:40Z</time>
      </trkpt>
      <trkpt lat="43.42985" lon="6.04831">
        <ele>296.39999389648</ele>
        <time>2013-12-21T13:47:41Z</time>
      </trkpt>
      <trkpt lat="43.42987" lon="6.04827">
        <ele>295.60000610352</ele>
        <time>2013-12-21T13:47:42Z</time>
      </trkpt>
      <trkpt lat="43.42988" lon="6.04822">
        <ele>295</ele>
        <time>2013-12-21T13:47:43Z</time>
      </trkpt>
      <trkpt lat="43.42989" lon="6.04816">
        <ele>294.39999389648</ele>
        <time>2013-12-21T13:47:44Z</time>
      </trkpt>
      <trkpt lat="43.4299" lon="6.04812">
        <ele>293.79998779297</ele>
        <time>2013-12-21T13:47:45Z</time>
      </trkpt>
      <trkpt lat="43.42991" lon="6.04809">
        <ele>293.20001220703</ele>
        <time>2013-12-21T13:47:46Z</time>
      </trkpt>
      <trkpt lat="43.42997" lon="6.04802">
        <ele>292</ele>
        <time>2013-12-21T13:47:48Z</time>
      </trkpt>
      <trkpt lat="43.43003" lon="6.04794">
        <ele>292</ele>
        <time>2013-12-21T13:47:52Z</time>
      </trkpt>
      <trkpt lat="43.43007" lon="6.04789">
        <ele>291.20001220703</ele>
        <time>2013-12-21T13:47:55Z</time>
      </trkpt>
      <trkpt lat="43.4301" lon="6.04788">
        <ele>290.79998779297</ele>
        <time>2013-12-21T13:47:56Z</time>
      </trkpt>
      <trkpt lat="43.4302" lon="6.04784">
        <ele>288.60000610352</ele>
        <time>2013-12-21T13:48:00Z</time>
      </trkpt>
      <trkpt lat="43.43026" lon="6.04778">
        <ele>287.39999389648</ele>
        <time>2013-12-21T13:48:02Z</time>
      </trkpt>
      <trkpt lat="43.43027" lon="6.04776">
        <ele>286.79998779297</ele>
        <time>2013-12-21T13:48:03Z</time>
      </trkpt>
      <trkpt lat="43.43027" lon="6.04777">
        <ele>286.20001220703</ele>
        <time>2013-12-21T13:48:04Z</time>
      </trkpt>
      <trkpt lat="43.43027" lon="6.04777">
        <ele>284.79998779297</ele>
        <time>2013-12-21T13:48:05Z</time>
      </trkpt>
      <trkpt lat="43.43027" lon="6.04777">
        <ele>283.39999389648</ele>
        <time>2013-12-21T13:48:15Z</time>
      </trkpt>
      <trkpt lat="43.43029" lon="6.04774">
        <ele>283.39999389648</ele>
        <time>2013-12-21T13:48:19Z</time>
      </trkpt>
      <trkpt lat="43.43033" lon="6.04762">
        <ele>283.39999389648</ele>
        <time>2013-12-21T13:48:25Z</time>
      </trkpt>
      <trkpt lat="43.43039" lon="6.04751">
        <ele>283.39999389648</ele>
        <time>2013-12-21T13:48:30Z</time>
      </trkpt>
      <trkpt lat="43.43046" lon="6.04739">
        <ele>283.39999389648</ele>
        <time>2013-12-21T13:48:36Z</time>
      </trkpt>
      <trkpt lat="43.43053" lon="6.04728">
        <ele>283.79998779297</ele>
        <time>2013-12-21T13:48:41Z</time>
      </trkpt>
      <trkpt lat="43.43058" lon="6.04717">
        <ele>285.60000610352</ele>
        <time>2013-12-21T13:48:45Z</time>
      </trkpt>
      <trkpt lat="43.4306" lon="6.04708">
        <ele>285.60000610352</ele>
        <time>2013-12-21T13:48:48Z</time>
      </trkpt>
      <trkpt lat="43.43057" lon="6.04694">
        <ele>285.60000610352</ele>
        <time>2013-12-21T13:48:52Z</time>
      </trkpt>
      <trkpt lat="43.43055" lon="6.04687">
        <ele>286.39999389648</ele>
        <time>2013-12-21T13:48:54Z</time>
      </trkpt>
      <trkpt lat="43.43052" lon="6.04676">
        <ele>287.60000610352</ele>
        <time>2013-12-21T13:48:57Z</time>
      </trkpt>
      <trkpt lat="43.43052" lon="6.04652">
        <ele>287.60000610352</ele>
        <time>2013-12-21T13:49:05Z</time>
      </trkpt>
      <trkpt lat="43.43048" lon="6.04636">
        <ele>287.60000610352</ele>
        <time>2013-12-21T13:49:10Z</time>
      </trkpt>
      <trkpt lat="43.43045" lon="6.04613">
        <ele>287.60000610352</ele>
        <time>2013-12-21T13:49:17Z</time>
      </trkpt>
      <trkpt lat="43.43042" lon="6.04593">
        <ele>288.79998779297</ele>
        <time>2013-12-21T13:49:24Z</time>
      </trkpt>
      <trkpt lat="43.43043" lon="6.04588">
        <ele>289.60000610352</ele>
        <time>2013-12-21T13:49:26Z</time>
      </trkpt>
      <trkpt lat="43.4305" lon="6.04548">
        <ele>289.60000610352</ele>
        <time>2013-12-21T13:49:39Z</time>
      </trkpt>
      <trkpt lat="43.43054" lon="6.04532">
        <ele>290.39999389648</ele>
        <time>2013-12-21T13:49:44Z</time>
      </trkpt>
      <trkpt lat="43.43055" lon="6.04523">
        <ele>291.60000610352</ele>
        <time>2013-12-21T13:49:47Z</time>
      </trkpt>
      <trkpt lat="43.43058" lon="6.04503">
        <ele>291.60000610352</ele>
        <time>2013-12-21T13:49:54Z</time>
      </trkpt>
      <trkpt lat="43.43062" lon="6.04484">
        <ele>291.60000610352</ele>
        <time>2013-12-21T13:50:01Z</time>
      </trkpt>
      <trkpt lat="43.43066" lon="6.04472">
        <ele>291.60000610352</ele>
        <time>2013-12-21T13:50:06Z</time>
      </trkpt>
      <trkpt lat="43.43068" lon="6.04457">
        <ele>291.60000610352</ele>
        <time>2013-12-21T13:50:11Z</time>
      </trkpt>
      <trkpt lat="43.43074" lon="6.04441">
        <ele>293.79998779297</ele>
        <time>2013-12-21T13:50:18Z</time>
      </trkpt>
      <trkpt lat="43.43077" lon="6.04433">
        <ele>293.79998779297</ele>
        <time>2013-12-21T13:50:21Z</time>
      </trkpt>
      <trkpt lat="43.43078" lon="6.04417">
        <ele>293.79998779297</ele>
        <time>2013-12-21T13:50:27Z</time>
      </trkpt>
      <trkpt lat="43.43082" lon="6.04402">
        <ele>293.79998779297</ele>
        <time>2013-12-21T13:50:32Z</time>
      </trkpt>
      <trkpt lat="43.43087" lon="6.0439">
        <ele>294.60000610352</ele>
        <time>2013-12-21T13:50:36Z</time>
      </trkpt>
      <trkpt lat="43.43089" lon="6.04388">
        <ele>295</ele>
        <time>2013-12-21T13:50:37Z</time>
      </trkpt>
      <trkpt lat="43.43092" lon="6.04384">
        <ele>295.79998779297</ele>
        <time>2013-12-21T13:50:39Z</time>
      </trkpt>
      <trkpt lat="43.43097" lon="6.04375">
        <ele>295.79998779297</ele>
        <time>2013-12-21T13:50:43Z</time>
      </trkpt>
      <trkpt lat="43.43103" lon="6.04339">
        <ele>297.79998779297</ele>
        <time>2013-12-21T13:50:55Z</time>
      </trkpt>
      <trkpt lat="43.43103" lon="6.04325">
        <ele>297.79998779297</ele>
        <time>2013-12-21T13:51:00Z</time>
      </trkpt>
      <trkpt lat="43.431" lon="6.04308">
        <ele>297.79998779297</ele>
        <time>2013-12-21T13:51:06Z</time>
      </trkpt>
      <trkpt lat="43.43097" lon="6.04283">
        <ele>299.60000610352</ele>
        <time>2013-12-21T13:51:15Z</time>
      </trkpt>
      <trkpt lat="43.43096" lon="6.0428">
        <ele>300.20001220703</ele>
        <time>2013-12-21T13:51:16Z</time>
      </trkpt>
      <trkpt lat="43.43095" lon="6.04276">
        <ele>300.20001220703</ele>
        <time>2013-12-21T13:51:18Z</time>
      </trkpt>
      <trkpt lat="43.43089" lon="6.04252">
        <ele>300.20001220703</ele>
        <time>2013-12-21T13:51:26Z</time>
      </trkpt>
      <trkpt lat="43.43082" lon="6.04233">
        <ele>300.20001220703</ele>
        <time>2013-12-21T13:51:32Z</time>
      </trkpt>
      <trkpt lat="43.43076" lon="6.04219">
        <ele>300.20001220703</ele>
        <time>2013-12-21T13:51:37Z</time>
      </trkpt>
      <trkpt lat="43.43073" lon="6.04208">
        <ele>300.60000610352</ele>
        <time>2013-12-21T13:51:41Z</time>
      </trkpt>
      <trkpt lat="43.43072" lon="6.04204">
        <ele>301</ele>
        <time>2013-12-21T13:51:42Z</time>
      </trkpt>
      <trkpt lat="43.43076" lon="6.04185">
        <ele>302.20001220703</ele>
        <time>2013-12-21T13:51:48Z</time>
      </trkpt>
      <trkpt lat="43.43076" lon="6.04167">
        <ele>302.20001220703</ele>
        <time>2013-12-21T13:51:54Z</time>
      </trkpt>
      <trkpt lat="43.43072" lon="6.04143">
        <ele>302.20001220703</ele>
        <time>2013-12-21T13:52:01Z</time>
      </trkpt>
      <trkpt lat="43.43076" lon="6.04128">
        <ele>302.20001220703</ele>
        <time>2013-12-21T13:52:06Z</time>
      </trkpt>
      <trkpt lat="43.43081" lon="6.04107">
        <ele>303.79998779297</ele>
        <time>2013-12-21T13:52:13Z</time>
      </trkpt>
      <trkpt lat="43.43081" lon="6.04104">
        <ele>304.20001220703</ele>
        <time>2013-12-21T13:52:14Z</time>
      </trkpt>
      <trkpt lat="43.43081" lon="6.04088">
        <ele>304.20001220703</ele>
        <time>2013-12-21T13:52:19Z</time>
      </trkpt>
      <trkpt lat="43.4308" lon="6.0407">
        <ele>304.20001220703</ele>
        <time>2013-12-21T13:52:26Z</time>
      </trkpt>
      <trkpt lat="43.4308" lon="6.04062">
        <ele>304.20001220703</ele>
        <time>2013-12-21T13:52:30Z</time>
      </trkpt>
      <trkpt lat="43.43082" lon="6.04059">
        <ele>304.20001220703</ele>
        <time>2013-12-21T13:52:33Z</time>
      </trkpt>
      <trkpt lat="43.43086" lon="6.0406">
        <ele>304.20001220703</ele>
        <time>2013-12-21T13:52:36Z</time>
      </trkpt>
      <trkpt lat="43.4309" lon="6.0406">
        <ele>304.20001220703</ele>
        <time>2013-12-21T13:52:39Z</time>
      </trkpt>
      <trkpt lat="43.43097" lon="6.04061">
        <ele>304.20001220703</ele>
        <time>2013-12-21T13:52:43Z</time>
      </trkpt>
      <trkpt lat="43.431" lon="6.04062">
        <ele>305</ele>
        <time>2013-12-21T13:52:45Z</time>
      </trkpt>
      <trkpt lat="43.43106" lon="6.04063">
        <ele>306.39999389648</ele>
        <time>2013-12-21T13:52:49Z</time>
      </trkpt>
      <trkpt lat="43.43109" lon="6.04064">
        <ele>306.79998779297</ele>
        <time>2013-12-21T13:52:51Z</time>
      </trkpt>
      <trkpt lat="43.4311" lon="6.04065">
        <ele>307.20001220703</ele>
        <time>2013-12-21T13:52:52Z</time>
      </trkpt>
      <trkpt lat="43.4311" lon="6.04066">
        <ele>307.60000610352</ele>
        <time>2013-12-21T13:52:53Z</time>
      </trkpt>
      <trkpt lat="43.43111" lon="6.04066">
        <ele>308</ele>
        <time>2013-12-21T13:52:54Z</time>
      </trkpt>
      <trkpt lat="43.43115" lon="6.04067">
        <ele>309</ele>
        <time>2013-12-21T13:52:58Z</time>
      </trkpt>
      <trkpt lat="43.43118" lon="6.04067">
        <ele>309.79998779297</ele>
        <time>2013-12-21T13:53:00Z</time>
      </trkpt>
      <trkpt lat="43.43121" lon="6.04067">
        <ele>310.79998779297</ele>
        <time>2013-12-21T13:53:03Z</time>
      </trkpt>
      <trkpt lat="43.43124" lon="6.04067">
        <ele>310.79998779297</ele>
        <time>2013-12-21T13:53:06Z</time>
      </trkpt>
      <trkpt lat="43.43128" lon="6.04065">
        <ele>312</ele>
        <time>2013-12-21T13:53:09Z</time>
      </trkpt>
      <trkpt lat="43.43129" lon="6.04065">
        <ele>312.39999389648</ele>
        <time>2013-12-21T13:53:10Z</time>
      </trkpt>
      <trkpt lat="43.43129" lon="6.04065">
        <ele>312.79998779297</ele>
        <time>2013-12-21T13:53:11Z</time>
      </trkpt>
      <trkpt lat="43.43134" lon="6.04061">
        <ele>312.79998779297</ele>
        <time>2013-12-21T13:53:15Z</time>
      </trkpt>
      <trkpt lat="43.43135" lon="6.04061">
        <ele>312.79998779297</ele>
        <time>2013-12-21T13:53:16Z</time>
      </trkpt>
      <trkpt lat="43.43136" lon="6.0406">
        <ele>312.79998779297</ele>
        <time>2013-12-21T13:53:19Z</time>
      </trkpt>
      <trkpt lat="43.43136" lon="6.0406">
        <ele>312.79998779297</ele>
        <time>2013-12-21T13:53:32Z</time>
      </trkpt>
      <trkpt lat="43.43136" lon="6.0406">
        <ele>312.79998779297</ele>
        <time>2013-12-21T13:53:51Z</time>
      </trkpt>
      <trkpt lat="43.43137" lon="6.0406">
        <ele>312.79998779297</ele>
        <time>2013-12-21T13:53:53Z</time>
      </trkpt>
      <trkpt lat="43.43143" lon="6.04053">
        <ele>312.79998779297</ele>
        <time>2013-12-21T13:53:58Z</time>
      </trkpt>
      <trkpt lat="43.43145" lon="6.04049">
        <ele>312.79998779297</ele>
        <time>2013-12-21T13:54:00Z</time>
      </trkpt>
      <trkpt lat="43.43147" lon="6.04038">
        <ele>312.79998779297</ele>
        <time>2013-12-21T13:54:04Z</time>
      </trkpt>
      <trkpt lat="43.4315" lon="6.04029">
        <ele>312.79998779297</ele>
        <time>2013-12-21T13:54:07Z</time>
      </trkpt>
      <trkpt lat="43.43153" lon="6.04019">
        <ele>312.79998779297</ele>
        <time>2013-12-21T13:54:10Z</time>
      </trkpt>
      <trkpt lat="43.43158" lon="6.03999">
        <ele>312.79998779297</ele>
        <time>2013-12-21T13:54:15Z</time>
      </trkpt>
      <trkpt lat="43.43167" lon="6.03965">
        <ele>312.79998779297</ele>
        <time>2013-12-21T13:54:22Z</time>
      </trkpt>
      <trkpt lat="43.43169" lon="6.03954">
        <ele>312.79998779297</ele>
        <time>2013-12-21T13:54:24Z</time>
      </trkpt>
      <trkpt lat="43.43168" lon="6.03944">
        <ele>312.79998779297</ele>
        <time>2013-12-21T13:54:26Z</time>
      </trkpt>
      <trkpt lat="43.43169" lon="6.03926">
        <ele>312.79998779297</ele>
        <time>2013-12-21T13:54:30Z</time>
      </trkpt>
      <trkpt lat="43.4317" lon="6.03923">
        <ele>312.79998779297</ele>
        <time>2013-12-21T13:54:31Z</time>
      </trkpt>
      <trkpt lat="43.43172" lon="6.03917">
        <ele>312.79998779297</ele>
        <time>2013-12-21T13:54:33Z</time>
      </trkpt>
      <trkpt lat="43.43175" lon="6.03911">
        <ele>312.79998779297</ele>
        <time>2013-12-21T13:54:35Z</time>
      </trkpt>
      <trkpt lat="43.43176" lon="6.03909">
        <ele>312.79998779297</ele>
        <time>2013-12-21T13:54:36Z</time>
      </trkpt>
      <trkpt lat="43.43177" lon="6.03906">
        <ele>312.79998779297</ele>
        <time>2013-12-21T13:54:38Z</time>
      </trkpt>
      <trkpt lat="43.43179" lon="6.03903">
        <ele>313.20001220703</ele>
        <time>2013-12-21T13:54:40Z</time>
      </trkpt>
      <trkpt lat="43.43182" lon="6.03899">
        <ele>314</ele>
        <time>2013-12-21T13:54:42Z</time>
      </trkpt>
      <trkpt lat="43.43184" lon="6.03896">
        <ele>314.79998779297</ele>
        <time>2013-12-21T13:54:44Z</time>
      </trkpt>
      <trkpt lat="43.43185" lon="6.03891">
        <ele>314.79998779297</ele>
        <time>2013-12-21T13:54:46Z</time>
      </trkpt>
      <trkpt lat="43.43188" lon="6.03879">
        <ele>314.79998779297</ele>
        <time>2013-12-21T13:54:51Z</time>
      </trkpt>
      <trkpt lat="43.43191" lon="6.0387">
        <ele>315.20001220703</ele>
        <time>2013-12-21T13:54:55Z</time>
      </trkpt>
      <trkpt lat="43.43195" lon="6.03853">
        <ele>316.79998779297</ele>
        <time>2013-12-21T13:55:02Z</time>
      </trkpt>
      <trkpt lat="43.43204" lon="6.03845">
        <ele>316.79998779297</ele>
        <time>2013-12-21T13:55:08Z</time>
      </trkpt>
      <trkpt lat="43.43213" lon="6.03841">
        <ele>316.79998779297</ele>
        <time>2013-12-21T13:55:13Z</time>
      </trkpt>
      <trkpt lat="43.43226" lon="6.03836">
        <ele>316.79998779297</ele>
        <time>2013-12-21T13:55:20Z</time>
      </trkpt>
      <trkpt lat="43.43232" lon="6.03835">
        <ele>316.79998779297</ele>
        <time>2013-12-21T13:55:23Z</time>
      </trkpt>
      <trkpt lat="43.43234" lon="6.03834">
        <ele>316.79998779297</ele>
        <time>2013-12-21T13:55:25Z</time>
      </trkpt>
      <trkpt lat="43.43234" lon="6.03834">
        <ele>316.79998779297</ele>
        <time>2013-12-21T13:55:29Z</time>
      </trkpt>
      <trkpt lat="43.43234" lon="6.03834">
        <ele>316.79998779297</ele>
        <time>2013-12-21T13:55:44Z</time>
      </trkpt>
      <trkpt lat="43.43234" lon="6.03834">
        <ele>316.79998779297</ele>
        <time>2013-12-21T13:56:02Z</time>
      </trkpt>
      <trkpt lat="43.43234" lon="6.03834">
        <ele>316.79998779297</ele>
        <time>2013-12-21T13:56:04Z</time>
      </trkpt>
      <trkpt lat="43.43238" lon="6.03833">
        <ele>316.79998779297</ele>
        <time>2013-12-21T13:56:06Z</time>
      </trkpt>
      <trkpt lat="43.43242" lon="6.03832">
        <ele>316.79998779297</ele>
        <time>2013-12-21T13:56:09Z</time>
      </trkpt>
      <trkpt lat="43.43245" lon="6.03832">
        <ele>316.79998779297</ele>
        <time>2013-12-21T13:56:11Z</time>
      </trkpt>
      <trkpt lat="43.43248" lon="6.03833">
        <ele>316.79998779297</ele>
        <time>2013-12-21T13:56:14Z</time>
      </trkpt>
      <trkpt lat="43.43256" lon="6.03837">
        <ele>316.79998779297</ele>
        <time>2013-12-21T13:56:18Z</time>
      </trkpt>
      <trkpt lat="43.43259" lon="6.03838">
        <ele>316.39999389648</ele>
        <time>2013-12-21T13:56:19Z</time>
      </trkpt>
      <trkpt lat="43.43264" lon="6.03842">
        <ele>315.60000610352</ele>
        <time>2013-12-21T13:56:21Z</time>
      </trkpt>
      <trkpt lat="43.43267" lon="6.03844">
        <ele>315.20001220703</ele>
        <time>2013-12-21T13:56:22Z</time>
      </trkpt>
      <trkpt lat="43.43269" lon="6.03847">
        <ele>314.79998779297</ele>
        <time>2013-12-21T13:56:23Z</time>
      </trkpt>
      <trkpt lat="43.43272" lon="6.0385">
        <ele>314.39999389648</ele>
        <time>2013-12-21T13:56:24Z</time>
      </trkpt>
      <trkpt lat="43.43275" lon="6.03853">
        <ele>314</ele>
        <time>2013-12-21T13:56:25Z</time>
      </trkpt>
      <trkpt lat="43.43277" lon="6.03857">
        <ele>313.60000610352</ele>
        <time>2013-12-21T13:56:26Z</time>
      </trkpt>
      <trkpt lat="43.4328" lon="6.03867">
        <ele>312.79998779297</ele>
        <time>2013-12-21T13:56:28Z</time>
      </trkpt>
      <trkpt lat="43.43284" lon="6.03879">
        <ele>312.39999389648</ele>
        <time>2013-12-21T13:56:31Z</time>
      </trkpt>
      <trkpt lat="43.43285" lon="6.03882">
        <ele>311.79998779297</ele>
        <time>2013-12-21T13:56:32Z</time>
      </trkpt>
      <trkpt lat="43.43287" lon="6.03885">
        <ele>311.39999389648</ele>
        <time>2013-12-21T13:56:33Z</time>
      </trkpt>
      <trkpt lat="43.43288" lon="6.03892">
        <ele>310.60000610352</ele>
        <time>2013-12-21T13:56:35Z</time>
      </trkpt>
      <trkpt lat="43.43288" lon="6.03896">
        <ele>310.60000610352</ele>
        <time>2013-12-21T13:56:36Z</time>
      </trkpt>
      <trkpt lat="43.43287" lon="6.03906">
        <ele>309.60000610352</ele>
        <time>2013-12-21T13:56:38Z</time>
      </trkpt>
      <trkpt lat="43.43285" lon="6.03919">
        <ele>308.39999389648</ele>
        <time>2013-12-21T13:56:42Z</time>
      </trkpt>
      <trkpt lat="43.43284" lon="6.03927">
        <ele>308.39999389648</ele>
        <time>2013-12-21T13:56:45Z</time>
      </trkpt>
      <trkpt lat="43.43285" lon="6.03929">
        <ele>307.79998779297</ele>
        <time>2013-12-21T13:56:46Z</time>
      </trkpt>
      <trkpt lat="43.43286" lon="6.03931">
        <ele>307.39999389648</ele>
        <time>2013-12-21T13:56:47Z</time>
      </trkpt>
      <trkpt lat="43.43287" lon="6.03937">
        <ele>306.39999389648</ele>
        <time>2013-12-21T13:56:49Z</time>
      </trkpt>
      <trkpt lat="43.43287" lon="6.03942">
        <ele>305.60000610352</ele>
        <time>2013-12-21T13:56:51Z</time>
      </trkpt>
      <trkpt lat="43.43288" lon="6.03946">
        <ele>305</ele>
        <time>2013-12-21T13:56:52Z</time>
      </trkpt>
      <trkpt lat="43.43288" lon="6.03952">
        <ele>304.60000610352</ele>
        <time>2013-12-21T13:56:53Z</time>
      </trkpt>
      <trkpt lat="43.43288" lon="6.03956">
        <ele>304.20001220703</ele>
        <time>2013-12-21T13:56:54Z</time>
      </trkpt>
      <trkpt lat="43.43288" lon="6.03958">
        <ele>303.60000610352</ele>
        <time>2013-12-21T13:56:55Z</time>
      </trkpt>
      <trkpt lat="43.43288" lon="6.03958">
        <ele>301.39999389648</ele>
        <time>2013-12-21T13:57:12Z</time>
      </trkpt>
      <trkpt lat="43.43288" lon="6.03958">
        <ele>301.39999389648</ele>
        <time>2013-12-21T13:57:33Z</time>
      </trkpt>
      <trkpt lat="43.43288" lon="6.03958">
        <ele>301.39999389648</ele>
        <time>2013-12-21T13:57:36Z</time>
      </trkpt>
      <trkpt lat="43.43288" lon="6.03958">
        <ele>301.39999389648</ele>
        <time>2013-12-21T13:57:57Z</time>
      </trkpt>
      <trkpt lat="43.4329" lon="6.03964">
        <ele>301.39999389648</ele>
        <time>2013-12-21T13:58:00Z</time>
      </trkpt>
      <trkpt lat="43.4329" lon="6.03967">
        <ele>301.39999389648</ele>
        <time>2013-12-21T13:58:01Z</time>
      </trkpt>
      <trkpt lat="43.4329" lon="6.03976">
        <ele>301.39999389648</ele>
        <time>2013-12-21T13:58:05Z</time>
      </trkpt>
      <trkpt lat="43.4329" lon="6.03979">
        <ele>301.39999389648</ele>
        <time>2013-12-21T13:58:08Z</time>
      </trkpt>
      <trkpt lat="43.4329" lon="6.0398">
        <ele>301.39999389648</ele>
        <time>2013-12-21T13:58:09Z</time>
      </trkpt>
      <trkpt lat="43.43293" lon="6.03996">
        <ele>301.39999389648</ele>
        <time>2013-12-21T13:58:15Z</time>
      </trkpt>
      <trkpt lat="43.43293" lon="6.03998">
        <ele>301.39999389648</ele>
        <time>2013-12-21T13:58:16Z</time>
      </trkpt>
      <trkpt lat="43.43292" lon="6.04001">
        <ele>301.39999389648</ele>
        <time>2013-12-21T13:58:19Z</time>
      </trkpt>
      <trkpt lat="43.43291" lon="6.04002">
        <ele>301.39999389648</ele>
        <time>2013-12-21T13:58:24Z</time>
      </trkpt>
      <trkpt lat="43.43291" lon="6.04003">
        <ele>301.39999389648</ele>
        <time>2013-12-21T13:58:26Z</time>
      </trkpt>
      <trkpt lat="43.43291" lon="6.04003">
        <ele>301.39999389648</ele>
        <time>2013-12-21T13:58:28Z</time>
      </trkpt>
      <trkpt lat="43.43291" lon="6.04005">
        <ele>301.39999389648</ele>
        <time>2013-12-21T13:58:34Z</time>
      </trkpt>
      <trkpt lat="43.43291" lon="6.04005">
        <ele>301.39999389648</ele>
        <time>2013-12-21T13:58:43Z</time>
      </trkpt>
      <trkpt lat="43.43291" lon="6.04005">
        <ele>301.39999389648</ele>
        <time>2013-12-21T13:58:52Z</time>
      </trkpt>
      <trkpt lat="43.43291" lon="6.04005">
        <ele>301.39999389648</ele>
        <time>2013-12-21T13:58:55Z</time>
      </trkpt>
      <trkpt lat="43.43293" lon="6.04013">
        <ele>301.39999389648</ele>
        <time>2013-12-21T13:58:58Z</time>
      </trkpt>
      <trkpt lat="43.43295" lon="6.04023">
        <ele>301</ele>
        <time>2013-12-21T13:59:01Z</time>
      </trkpt>
      <trkpt lat="43.43296" lon="6.04029">
        <ele>300.20001220703</ele>
        <time>2013-12-21T13:59:03Z</time>
      </trkpt>
      <trkpt lat="43.43296" lon="6.04033">
        <ele>299.79998779297</ele>
        <time>2013-12-21T13:59:04Z</time>
      </trkpt>
      <trkpt lat="43.43296" lon="6.04036">
        <ele>299.39999389648</ele>
        <time>2013-12-21T13:59:05Z</time>
      </trkpt>
      <trkpt lat="43.43298" lon="6.04049">
        <ele>298.79998779297</ele>
        <time>2013-12-21T13:59:09Z</time>
      </trkpt>
      <trkpt lat="43.43298" lon="6.04051">
        <ele>298.39999389648</ele>
        <time>2013-12-21T13:59:10Z</time>
      </trkpt>
      <trkpt lat="43.43298" lon="6.0406">
        <ele>296</ele>
        <time>2013-12-21T13:59:14Z</time>
      </trkpt>
      <trkpt lat="43.433" lon="6.04077">
        <ele>294.39999389648</ele>
        <time>2013-12-21T13:59:18Z</time>
      </trkpt>
      <trkpt lat="43.43301" lon="6.04088">
        <ele>293.39999389648</ele>
        <time>2013-12-21T13:59:20Z</time>
      </trkpt>
      <trkpt lat="43.43302" lon="6.04094">
        <ele>293</ele>
        <time>2013-12-21T13:59:21Z</time>
      </trkpt>
      <trkpt lat="43.43303" lon="6.041">
        <ele>292.60000610352</ele>
        <time>2013-12-21T13:59:22Z</time>
      </trkpt>
      <trkpt lat="43.43303" lon="6.04105">
        <ele>292.60000610352</ele>
        <time>2013-12-21T13:59:23Z</time>
      </trkpt>
      <trkpt lat="43.43304" lon="6.04117">
        <ele>292.60000610352</ele>
        <time>2013-12-21T13:59:25Z</time>
      </trkpt>
      <trkpt lat="43.43305" lon="6.04123">
        <ele>292.20001220703</ele>
        <time>2013-12-21T13:59:26Z</time>
      </trkpt>
      <trkpt lat="43.43306" lon="6.04129">
        <ele>291.79998779297</ele>
        <time>2013-12-21T13:59:27Z</time>
      </trkpt>
      <trkpt lat="43.43306" lon="6.04136">
        <ele>291.39999389648</ele>
        <time>2013-12-21T13:59:28Z</time>
      </trkpt>
      <trkpt lat="43.43307" lon="6.04141">
        <ele>290.79998779297</ele>
        <time>2013-12-21T13:59:29Z</time>
      </trkpt>
      <trkpt lat="43.43307" lon="6.04146">
        <ele>290.39999389648</ele>
        <time>2013-12-21T13:59:30Z</time>
      </trkpt>
      <trkpt lat="43.43307" lon="6.04151">
        <ele>290.39999389648</ele>
        <time>2013-12-21T13:59:31Z</time>
      </trkpt>
      <trkpt lat="43.43307" lon="6.04157">
        <ele>290.39999389648</ele>
        <time>2013-12-21T13:59:34Z</time>
      </trkpt>
      <trkpt lat="43.43308" lon="6.04162">
        <ele>290.39999389648</ele>
        <time>2013-12-21T13:59:38Z</time>
      </trkpt>
      <trkpt lat="43.43308" lon="6.04174">
        <ele>290.39999389648</ele>
        <time>2013-12-21T13:59:42Z</time>
      </trkpt>
      <trkpt lat="43.43309" lon="6.04182">
        <ele>290.39999389648</ele>
        <time>2013-12-21T13:59:46Z</time>
      </trkpt>
      <trkpt lat="43.43309" lon="6.04185">
        <ele>290</ele>
        <time>2013-12-21T13:59:47Z</time>
      </trkpt>
      <trkpt lat="43.43309" lon="6.04188">
        <ele>289.60000610352</ele>
        <time>2013-12-21T13:59:48Z</time>
      </trkpt>
      <trkpt lat="43.43309" lon="6.04191">
        <ele>289.20001220703</ele>
        <time>2013-12-21T13:59:49Z</time>
      </trkpt>
      <trkpt lat="43.43308" lon="6.04194">
        <ele>288.79998779297</ele>
        <time>2013-12-21T13:59:50Z</time>
      </trkpt>
      <trkpt lat="43.43308" lon="6.04196">
        <ele>288.39999389648</ele>
        <time>2013-12-21T13:59:51Z</time>
      </trkpt>
      <trkpt lat="43.43308" lon="6.04203">
        <ele>288.39999389648</ele>
        <time>2013-12-21T13:59:54Z</time>
      </trkpt>
      <trkpt lat="43.43308" lon="6.04205">
        <ele>288.39999389648</ele>
        <time>2013-12-21T13:59:56Z</time>
      </trkpt>
      <trkpt lat="43.43308" lon="6.04205">
        <ele>288.39999389648</ele>
        <time>2013-12-21T14:00:08Z</time>
      </trkpt>
      <trkpt lat="43.43308" lon="6.04205">
        <ele>288.39999389648</ele>
        <time>2013-12-21T14:00:16Z</time>
      </trkpt>
      <trkpt lat="43.43309" lon="6.04207">
        <ele>288.39999389648</ele>
        <time>2013-12-21T14:00:18Z</time>
      </trkpt>
      <trkpt lat="43.43313" lon="6.04222">
        <ele>288</ele>
        <time>2013-12-21T14:00:23Z</time>
      </trkpt>
      <trkpt lat="43.43314" lon="6.04226">
        <ele>287</ele>
        <time>2013-12-21T14:00:24Z</time>
      </trkpt>
      <trkpt lat="43.43314" lon="6.04231">
        <ele>286.39999389648</ele>
        <time>2013-12-21T14:00:25Z</time>
      </trkpt>
      <trkpt lat="43.43314" lon="6.04235">
        <ele>285.79998779297</ele>
        <time>2013-12-21T14:00:26Z</time>
      </trkpt>
      <trkpt lat="43.43315" lon="6.0424">
        <ele>285.20001220703</ele>
        <time>2013-12-21T14:00:27Z</time>
      </trkpt>
      <trkpt lat="43.43315" lon="6.04246">
        <ele>284.39999389648</ele>
        <time>2013-12-21T14:00:28Z</time>
      </trkpt>
      <trkpt lat="43.43315" lon="6.04252">
        <ele>283.79998779297</ele>
        <time>2013-12-21T14:00:29Z</time>
      </trkpt>
      <trkpt lat="43.43316" lon="6.04258">
        <ele>283.20001220703</ele>
        <time>2013-12-21T14:00:30Z</time>
      </trkpt>
      <trkpt lat="43.43317" lon="6.04264">
        <ele>282.39999389648</ele>
        <time>2013-12-21T14:00:31Z</time>
      </trkpt>
      <trkpt lat="43.43317" lon="6.04266">
        <ele>281.79998779297</ele>
        <time>2013-12-21T14:00:32Z</time>
      </trkpt>
      <trkpt lat="43.43319" lon="6.04273">
        <ele>281.79998779297</ele>
        <time>2013-12-21T14:00:36Z</time>
      </trkpt>
      <trkpt lat="43.43319" lon="6.04276">
        <ele>281.79998779297</ele>
        <time>2013-12-21T14:00:37Z</time>
      </trkpt>
      <trkpt lat="43.43319" lon="6.04284">
        <ele>281.79998779297</ele>
        <time>2013-12-21T14:00:40Z</time>
      </trkpt>
      <trkpt lat="43.4332" lon="6.04287">
        <ele>281.79998779297</ele>
        <time>2013-12-21T14:00:41Z</time>
      </trkpt>
      <trkpt lat="43.43322" lon="6.04311">
        <ele>281.79998779297</ele>
        <time>2013-12-21T14:00:47Z</time>
      </trkpt>
      <trkpt lat="43.43323" lon="6.04335">
        <ele>281.79998779297</ele>
        <time>2013-12-21T14:00:53Z</time>
      </trkpt>
      <trkpt lat="43.43325" lon="6.04347">
        <ele>281.39999389648</ele>
        <time>2013-12-21T14:00:57Z</time>
      </trkpt>
      <trkpt lat="43.43327" lon="6.04369">
        <ele>278.60000610352</ele>
        <time>2013-12-21T14:01:04Z</time>
      </trkpt>
      <trkpt lat="43.43327" lon="6.04377">
        <ele>277.60000610352</ele>
        <time>2013-12-21T14:01:06Z</time>
      </trkpt>
      <trkpt lat="43.43327" lon="6.04381">
        <ele>277.20001220703</ele>
        <time>2013-12-21T14:01:07Z</time>
      </trkpt>
      <trkpt lat="43.43328" lon="6.04384">
        <ele>276.60000610352</ele>
        <time>2013-12-21T14:01:08Z</time>
      </trkpt>
      <trkpt lat="43.43327" lon="6.04391">
        <ele>275.60000610352</ele>
        <time>2013-12-21T14:01:10Z</time>
      </trkpt>
      <trkpt lat="43.43327" lon="6.04394">
        <ele>275</ele>
        <time>2013-12-21T14:01:11Z</time>
      </trkpt>
      <trkpt lat="43.43327" lon="6.04404">
        <ele>275</ele>
        <time>2013-12-21T14:01:14Z</time>
      </trkpt>
      <trkpt lat="43.43328" lon="6.04414">
        <ele>275</ele>
        <time>2013-12-21T14:01:16Z</time>
      </trkpt>
      <trkpt lat="43.4333" lon="6.0444">
        <ele>274.20001220703</ele>
        <time>2013-12-21T14:01:20Z</time>
      </trkpt>
      <trkpt lat="43.4333" lon="6.04444">
        <ele>273.79998779297</ele>
        <time>2013-12-21T14:01:21Z</time>
      </trkpt>
      <trkpt lat="43.4333" lon="6.04449">
        <ele>273.39999389648</ele>
        <time>2013-12-21T14:01:22Z</time>
      </trkpt>
      <trkpt lat="43.43331" lon="6.04453">
        <ele>272.79998779297</ele>
        <time>2013-12-21T14:01:23Z</time>
      </trkpt>
      <trkpt lat="43.43333" lon="6.04469">
        <ele>272.79998779297</ele>
        <time>2013-12-21T14:01:27Z</time>
      </trkpt>
      <trkpt lat="43.43334" lon="6.04484">
        <ele>272.79998779297</ele>
        <time>2013-12-21T14:01:31Z</time>
      </trkpt>
      <trkpt lat="43.43334" lon="6.04488">
        <ele>272.79998779297</ele>
        <time>2013-12-21T14:01:32Z</time>
      </trkpt>
      <trkpt lat="43.43332" lon="6.04506">
        <ele>272.79998779297</ele>
        <time>2013-12-21T14:01:37Z</time>
      </trkpt>
      <trkpt lat="43.43332" lon="6.04512">
        <ele>272.79998779297</ele>
        <time>2013-12-21T14:01:41Z</time>
      </trkpt>
      <trkpt lat="43.43332" lon="6.04512">
        <ele>272.79998779297</ele>
        <time>2013-12-21T14:02:04Z</time>
      </trkpt>
      <trkpt lat="43.43332" lon="6.04512">
        <ele>272.79998779297</ele>
        <time>2013-12-21T14:02:30Z</time>
      </trkpt>
      <trkpt lat="43.43332" lon="6.04512">
        <ele>272.79998779297</ele>
        <time>2013-12-21T14:02:33Z</time>
      </trkpt>
      <trkpt lat="43.43332" lon="6.04521">
        <ele>272.79998779297</ele>
        <time>2013-12-21T14:02:37Z</time>
      </trkpt>
      <trkpt lat="43.43336" lon="6.04534">
        <ele>272.79998779297</ele>
        <time>2013-12-21T14:02:40Z</time>
      </trkpt>
      <trkpt lat="43.43341" lon="6.04544">
        <ele>272.39999389648</ele>
        <time>2013-12-21T14:02:44Z</time>
      </trkpt>
      <trkpt lat="43.43342" lon="6.04548">
        <ele>272</ele>
        <time>2013-12-21T14:02:45Z</time>
      </trkpt>
      <trkpt lat="43.43343" lon="6.04553">
        <ele>271.60000610352</ele>
        <time>2013-12-21T14:02:46Z</time>
      </trkpt>
      <trkpt lat="43.43344" lon="6.04559">
        <ele>271</ele>
        <time>2013-12-21T14:02:47Z</time>
      </trkpt>
      <trkpt lat="43.43345" lon="6.04571">
        <ele>270</ele>
        <time>2013-12-21T14:02:49Z</time>
      </trkpt>
      <trkpt lat="43.43344" lon="6.04582">
        <ele>268.79998779297</ele>
        <time>2013-12-21T14:02:51Z</time>
      </trkpt>
      <trkpt lat="43.43345" lon="6.04587">
        <ele>268.20001220703</ele>
        <time>2013-12-21T14:02:52Z</time>
      </trkpt>
      <trkpt lat="43.43346" lon="6.04591">
        <ele>267.79998779297</ele>
        <time>2013-12-21T14:02:53Z</time>
      </trkpt>
      <trkpt lat="43.43347" lon="6.04595">
        <ele>267.39999389648</ele>
        <time>2013-12-21T14:02:54Z</time>
      </trkpt>
      <trkpt lat="43.43348" lon="6.04612">
        <ele>266</ele>
        <time>2013-12-21T14:02:57Z</time>
      </trkpt>
      <trkpt lat="43.43349" lon="6.04618">
        <ele>265.60000610352</ele>
        <time>2013-12-21T14:02:58Z</time>
      </trkpt>
      <trkpt lat="43.43349" lon="6.04622">
        <ele>265</ele>
        <time>2013-12-21T14:02:59Z</time>
      </trkpt>
      <trkpt lat="43.43349" lon="6.04626">
        <ele>264.60000610352</ele>
        <time>2013-12-21T14:03:00Z</time>
      </trkpt>
      <trkpt lat="43.43349" lon="6.04629">
        <ele>264</ele>
        <time>2013-12-21T14:03:01Z</time>
      </trkpt>
      <trkpt lat="43.4335" lon="6.04635">
        <ele>263</ele>
        <time>2013-12-21T14:03:03Z</time>
      </trkpt>
      <trkpt lat="43.4335" lon="6.04638">
        <ele>262.39999389648</ele>
        <time>2013-12-21T14:03:04Z</time>
      </trkpt>
      <trkpt lat="43.4335" lon="6.04641">
        <ele>262</ele>
        <time>2013-12-21T14:03:05Z</time>
      </trkpt>
      <trkpt lat="43.43349" lon="6.04644">
        <ele>261.60000610352</ele>
        <time>2013-12-21T14:03:06Z</time>
      </trkpt>
      <trkpt lat="43.43349" lon="6.04649">
        <ele>261</ele>
        <time>2013-12-21T14:03:07Z</time>
      </trkpt>
      <trkpt lat="43.43351" lon="6.04662">
        <ele>260</ele>
        <time>2013-12-21T14:03:09Z</time>
      </trkpt>
      <trkpt lat="43.43353" lon="6.04682">
        <ele>258.39999389648</ele>
        <time>2013-12-21T14:03:12Z</time>
      </trkpt>
      <trkpt lat="43.43353" lon="6.04689">
        <ele>257.79998779297</ele>
        <time>2013-12-21T14:03:13Z</time>
      </trkpt>
      <trkpt lat="43.43354" lon="6.047">
        <ele>257.39999389648</ele>
        <time>2013-12-21T14:03:15Z</time>
      </trkpt>
      <trkpt lat="43.43354" lon="6.04704">
        <ele>257</ele>
        <time>2013-12-21T14:03:16Z</time>
      </trkpt>
      <trkpt lat="43.43355" lon="6.04708">
        <ele>256</ele>
        <time>2013-12-21T14:03:17Z</time>
      </trkpt>
      <trkpt lat="43.43354" lon="6.04713">
        <ele>255.60000610352</ele>
        <time>2013-12-21T14:03:18Z</time>
      </trkpt>
      <trkpt lat="43.43354" lon="6.04721">
        <ele>255.60000610352</ele>
        <time>2013-12-21T14:03:20Z</time>
      </trkpt>
      <trkpt lat="43.43355" lon="6.04741">
        <ele>255.60000610352</ele>
        <time>2013-12-21T14:03:25Z</time>
      </trkpt>
      <trkpt lat="43.43355" lon="6.04746">
        <ele>255.60000610352</ele>
        <time>2013-12-21T14:03:27Z</time>
      </trkpt>
      <trkpt lat="43.43354" lon="6.04751">
        <ele>255.60000610352</ele>
        <time>2013-12-21T14:03:29Z</time>
      </trkpt>
      <trkpt lat="43.43354" lon="6.04755">
        <ele>255.60000610352</ele>
        <time>2013-12-21T14:03:30Z</time>
      </trkpt>
      <trkpt lat="43.43354" lon="6.04758">
        <ele>255.60000610352</ele>
        <time>2013-12-21T14:03:31Z</time>
      </trkpt>
      <trkpt lat="43.43355" lon="6.04761">
        <ele>255.60000610352</ele>
        <time>2013-12-21T14:03:33Z</time>
      </trkpt>
      <trkpt lat="43.43355" lon="6.04764">
        <ele>255.60000610352</ele>
        <time>2013-12-21T14:03:36Z</time>
      </trkpt>
      <trkpt lat="43.43355" lon="6.04764">
        <ele>255.60000610352</ele>
        <time>2013-12-21T14:03:45Z</time>
      </trkpt>
      <trkpt lat="43.43356" lon="6.04766">
        <ele>255.60000610352</ele>
        <time>2013-12-21T14:03:48Z</time>
      </trkpt>
      <trkpt lat="43.43356" lon="6.0477">
        <ele>255.60000610352</ele>
        <time>2013-12-21T14:03:51Z</time>
      </trkpt>
      <trkpt lat="43.43359" lon="6.04776">
        <ele>255.60000610352</ele>
        <time>2013-12-21T14:03:57Z</time>
      </trkpt>
      <trkpt lat="43.43359" lon="6.04777">
        <ele>255.60000610352</ele>
        <time>2013-12-21T14:03:58Z</time>
      </trkpt>
      <trkpt lat="43.43359" lon="6.04778">
        <ele>255.60000610352</ele>
        <time>2013-12-21T14:04:02Z</time>
      </trkpt>
      <trkpt lat="43.43359" lon="6.04778">
        <ele>255.60000610352</ele>
        <time>2013-12-21T14:04:03Z</time>
      </trkpt>
      <trkpt lat="43.43359" lon="6.04778">
        <ele>255.60000610352</ele>
        <time>2013-12-21T14:04:17Z</time>
      </trkpt>
      <trkpt lat="43.4336" lon="6.04786">
        <ele>255.60000610352</ele>
        <time>2013-12-21T14:04:20Z</time>
      </trkpt>
      <trkpt lat="43.43362" lon="6.04795">
        <ele>255.19999694824</ele>
        <time>2013-12-21T14:04:22Z</time>
      </trkpt>
      <trkpt lat="43.43362" lon="6.048">
        <ele>254.60000610352</ele>
        <time>2013-12-21T14:04:23Z</time>
      </trkpt>
      <trkpt lat="43.43363" lon="6.04803">
        <ele>254</ele>
        <time>2013-12-21T14:04:24Z</time>
      </trkpt>
      <trkpt lat="43.43364" lon="6.04815">
        <ele>253</ele>
        <time>2013-12-21T14:04:27Z</time>
      </trkpt>
      <trkpt lat="43.43365" lon="6.04818">
        <ele>253</ele>
        <time>2013-12-21T14:04:28Z</time>
      </trkpt>
      <trkpt lat="43.43365" lon="6.04824">
        <ele>252.60000610352</ele>
        <time>2013-12-21T14:04:30Z</time>
      </trkpt>
      <trkpt lat="43.43364" lon="6.04828">
        <ele>251.80000305176</ele>
        <time>2013-12-21T14:04:31Z</time>
      </trkpt>
      <trkpt lat="43.43365" lon="6.04832">
        <ele>251.39999389648</ele>
        <time>2013-12-21T14:04:32Z</time>
      </trkpt>
      <trkpt lat="43.43366" lon="6.04854">
        <ele>251</ele>
        <time>2013-12-21T14:04:36Z</time>
      </trkpt>
      <trkpt lat="43.43364" lon="6.04864">
        <ele>250.60000610352</ele>
        <time>2013-12-21T14:04:38Z</time>
      </trkpt>
      <trkpt lat="43.43362" lon="6.0487">
        <ele>249.60000610352</ele>
        <time>2013-12-21T14:04:40Z</time>
      </trkpt>
      <trkpt lat="43.43362" lon="6.04876">
        <ele>248.80000305176</ele>
        <time>2013-12-21T14:04:42Z</time>
      </trkpt>
      <trkpt lat="43.43364" lon="6.04883">
        <ele>248.80000305176</ele>
        <time>2013-12-21T14:04:44Z</time>
      </trkpt>
      <trkpt lat="43.43367" lon="6.04891">
        <ele>248.80000305176</ele>
        <time>2013-12-21T14:04:47Z</time>
      </trkpt>
      <trkpt lat="43.43372" lon="6.04908">
        <ele>248.80000305176</ele>
        <time>2013-12-21T14:04:51Z</time>
      </trkpt>
      <trkpt lat="43.43374" lon="6.04929">
        <ele>248.80000305176</ele>
        <time>2013-12-21T14:04:55Z</time>
      </trkpt>
      <trkpt lat="43.43375" lon="6.04935">
        <ele>248.80000305176</ele>
        <time>2013-12-21T14:04:56Z</time>
      </trkpt>
      <trkpt lat="43.43379" lon="6.04953">
        <ele>248.80000305176</ele>
        <time>2013-12-21T14:05:00Z</time>
      </trkpt>
      <trkpt lat="43.43379" lon="6.04962">
        <ele>248.80000305176</ele>
        <time>2013-12-21T14:05:03Z</time>
      </trkpt>
      <trkpt lat="43.43379" lon="6.04965">
        <ele>248.80000305176</ele>
        <time>2013-12-21T14:05:04Z</time>
      </trkpt>
      <trkpt lat="43.4338" lon="6.04968">
        <ele>248.80000305176</ele>
        <time>2013-12-21T14:05:05Z</time>
      </trkpt>
      <trkpt lat="43.43382" lon="6.04979">
        <ele>248.80000305176</ele>
        <time>2013-12-21T14:05:08Z</time>
      </trkpt>
      <trkpt lat="43.43382" lon="6.04986">
        <ele>248.80000305176</ele>
        <time>2013-12-21T14:05:11Z</time>
      </trkpt>
      <trkpt lat="43.43382" lon="6.04994">
        <ele>248.80000305176</ele>
        <time>2013-12-21T14:05:14Z</time>
      </trkpt>
      <trkpt lat="43.43384" lon="6.05">
        <ele>248.80000305176</ele>
        <time>2013-12-21T14:05:16Z</time>
      </trkpt>
      <trkpt lat="43.43383" lon="6.05013">
        <ele>248.80000305176</ele>
        <time>2013-12-21T14:05:21Z</time>
      </trkpt>
      <trkpt lat="43.43383" lon="6.05017">
        <ele>249.19999694824</ele>
        <time>2013-12-21T14:05:23Z</time>
      </trkpt>
      <trkpt lat="43.43383" lon="6.05019">
        <ele>249.60000610352</ele>
        <time>2013-12-21T14:05:24Z</time>
      </trkpt>
      <trkpt lat="43.43384" lon="6.05023">
        <ele>250</ele>
        <time>2013-12-21T14:05:25Z</time>
      </trkpt>
      <trkpt lat="43.43386" lon="6.05032">
        <ele>250.80000305176</ele>
        <time>2013-12-21T14:05:27Z</time>
      </trkpt>
      <trkpt lat="43.43387" lon="6.05046">
        <ele>250.80000305176</ele>
        <time>2013-12-21T14:05:31Z</time>
      </trkpt>
      <trkpt lat="43.43389" lon="6.05072">
        <ele>250.80000305176</ele>
        <time>2013-12-21T14:05:41Z</time>
      </trkpt>
      <trkpt lat="43.43389" lon="6.05074">
        <ele>250.80000305176</ele>
        <time>2013-12-21T14:05:42Z</time>
      </trkpt>
      <trkpt lat="43.43393" lon="6.05099">
        <ele>250.80000305176</ele>
        <time>2013-12-21T14:05:51Z</time>
      </trkpt>
      <trkpt lat="43.43393" lon="6.05107">
        <ele>250.80000305176</ele>
        <time>2013-12-21T14:05:54Z</time>
      </trkpt>
      <trkpt lat="43.43393" lon="6.05116">
        <ele>250.80000305176</ele>
        <time>2013-12-21T14:05:58Z</time>
      </trkpt>
      <trkpt lat="43.43392" lon="6.05121">
        <ele>250.80000305176</ele>
        <time>2013-12-21T14:06:01Z</time>
      </trkpt>
      <trkpt lat="43.43393" lon="6.05121">
        <ele>250.80000305176</ele>
        <time>2013-12-21T14:06:05Z</time>
      </trkpt>
      <trkpt lat="43.43393" lon="6.05121">
        <ele>250.80000305176</ele>
        <time>2013-12-21T14:06:25Z</time>
      </trkpt>
      <trkpt lat="43.43393" lon="6.05121">
        <ele>250.80000305176</ele>
        <time>2013-12-21T14:06:38Z</time>
      </trkpt>
      <trkpt lat="43.43393" lon="6.05122">
        <ele>250.80000305176</ele>
        <time>2013-12-21T14:06:48Z</time>
      </trkpt>
      <trkpt lat="43.43391" lon="6.05125">
        <ele>250.80000305176</ele>
        <time>2013-12-21T14:06:54Z</time>
      </trkpt>
      <trkpt lat="43.43391" lon="6.05127">
        <ele>250.80000305176</ele>
        <time>2013-12-21T14:06:55Z</time>
      </trkpt>
      <trkpt lat="43.43388" lon="6.05136">
        <ele>250.39999389648</ele>
        <time>2013-12-21T14:06:58Z</time>
      </trkpt>
      <trkpt lat="43.43386" lon="6.05139">
        <ele>249.60000610352</ele>
        <time>2013-12-21T14:06:59Z</time>
      </trkpt>
      <trkpt lat="43.43385" lon="6.05141">
        <ele>249.19999694824</ele>
        <time>2013-12-21T14:07:00Z</time>
      </trkpt>
      <trkpt lat="43.43382" lon="6.05143">
        <ele>248.80000305176</ele>
        <time>2013-12-21T14:07:01Z</time>
      </trkpt>
      <trkpt lat="43.43377" lon="6.05144">
        <ele>248.80000305176</ele>
        <time>2013-12-21T14:07:02Z</time>
      </trkpt>
      <trkpt lat="43.43373" lon="6.05144">
        <ele>248.80000305176</ele>
        <time>2013-12-21T14:07:03Z</time>
      </trkpt>
      <trkpt lat="43.43369" lon="6.05144">
        <ele>248.80000305176</ele>
        <time>2013-12-21T14:07:04Z</time>
      </trkpt>
      <trkpt lat="43.43356" lon="6.05143">
        <ele>248.80000305176</ele>
        <time>2013-12-21T14:07:08Z</time>
      </trkpt>
      <trkpt lat="43.43345" lon="6.05138">
        <ele>248.80000305176</ele>
        <time>2013-12-21T14:07:14Z</time>
      </trkpt>
      <trkpt lat="43.43334" lon="6.05131">
        <ele>248.80000305176</ele>
        <time>2013-12-21T14:07:20Z</time>
      </trkpt>
      <trkpt lat="43.43324" lon="6.0512">
        <ele>248.80000305176</ele>
        <time>2013-12-21T14:07:27Z</time>
      </trkpt>
      <trkpt lat="43.43312" lon="6.05106">
        <ele>248.80000305176</ele>
        <time>2013-12-21T14:07:35Z</time>
      </trkpt>
      <trkpt lat="43.43306" lon="6.05099">
        <ele>248.80000305176</ele>
        <time>2013-12-21T14:07:39Z</time>
      </trkpt>
      <trkpt lat="43.43303" lon="6.05097">
        <ele>249.19999694824</ele>
        <time>2013-12-21T14:07:41Z</time>
      </trkpt>
      <trkpt lat="43.43295" lon="6.0509">
        <ele>251</ele>
        <time>2013-12-21T14:07:47Z</time>
      </trkpt>
      <trkpt lat="43.4329" lon="6.05087">
        <ele>251</ele>
        <time>2013-12-21T14:07:50Z</time>
      </trkpt>
      <trkpt lat="43.43287" lon="6.05083">
        <ele>251.39999389648</ele>
        <time>2013-12-21T14:07:53Z</time>
      </trkpt>
      <trkpt lat="43.43282" lon="6.05081">
        <ele>252.60000610352</ele>
        <time>2013-12-21T14:07:56Z</time>
      </trkpt>
      <trkpt lat="43.43274" lon="6.0508">
        <ele>253</ele>
        <time>2013-12-21T14:08:01Z</time>
      </trkpt>
      <trkpt lat="43.43263" lon="6.0508">
        <ele>253</ele>
        <time>2013-12-21T14:08:08Z</time>
      </trkpt>
      <trkpt lat="43.43262" lon="6.05079">
        <ele>253</ele>
        <time>2013-12-21T14:08:09Z</time>
      </trkpt>
      <trkpt lat="43.43253" lon="6.05077">
        <ele>254.19999694824</ele>
        <time>2013-12-21T14:08:16Z</time>
      </trkpt>
      <trkpt lat="43.43251" lon="6.05076">
        <ele>254.60000610352</ele>
        <time>2013-12-21T14:08:17Z</time>
      </trkpt>
      <trkpt lat="43.43247" lon="6.05076">
        <ele>255</ele>
        <time>2013-12-21T14:08:19Z</time>
      </trkpt>
      <trkpt lat="43.43235" lon="6.05077">
        <ele>255</ele>
        <time>2013-12-21T14:08:26Z</time>
      </trkpt>
      <trkpt lat="43.43221" lon="6.05079">
        <ele>256.20001220703</ele>
        <time>2013-12-21T14:08:35Z</time>
      </trkpt>
      <trkpt lat="43.43217" lon="6.05078">
        <ele>257</ele>
        <time>2013-12-21T14:08:37Z</time>
      </trkpt>
      <trkpt lat="43.43202" lon="6.05076">
        <ele>257</ele>
        <time>2013-12-21T14:08:49Z</time>
      </trkpt>
      <trkpt lat="43.43195" lon="6.05074">
        <ele>257</ele>
        <time>2013-12-21T14:08:55Z</time>
      </trkpt>
      <trkpt lat="43.4319" lon="6.05072">
        <ele>258.60000610352</ele>
        <time>2013-12-21T14:08:59Z</time>
      </trkpt>
      <trkpt lat="43.43187" lon="6.05071">
        <ele>259</ele>
        <time>2013-12-21T14:09:01Z</time>
      </trkpt>
      <trkpt lat="43.4318" lon="6.05071">
        <ele>259</ele>
        <time>2013-12-21T14:09:07Z</time>
      </trkpt>
      <trkpt lat="43.43179" lon="6.05071">
        <ele>259</ele>
        <time>2013-12-21T14:09:11Z</time>
      </trkpt>
      <trkpt lat="43.43169" lon="6.05067">
        <ele>259</ele>
        <time>2013-12-21T14:09:17Z</time>
      </trkpt>
      <trkpt lat="43.43165" lon="6.05066">
        <ele>260</ele>
        <time>2013-12-21T14:09:19Z</time>
      </trkpt>
      <trkpt lat="43.43161" lon="6.05062">
        <ele>261.20001220703</ele>
        <time>2013-12-21T14:09:22Z</time>
      </trkpt>
      <trkpt lat="43.4316" lon="6.05061">
        <ele>261.20001220703</ele>
        <time>2013-12-21T14:09:23Z</time>
      </trkpt>
      <trkpt lat="43.43157" lon="6.05059">
        <ele>261.20001220703</ele>
        <time>2013-12-21T14:09:26Z</time>
      </trkpt>
      <trkpt lat="43.43145" lon="6.05051">
        <ele>261.20001220703</ele>
        <time>2013-12-21T14:09:34Z</time>
      </trkpt>
      <trkpt lat="43.43142" lon="6.05048">
        <ele>262</ele>
        <time>2013-12-21T14:09:36Z</time>
      </trkpt>
      <trkpt lat="43.43139" lon="6.05044">
        <ele>263.20001220703</ele>
        <time>2013-12-21T14:09:39Z</time>
      </trkpt>
      <trkpt lat="43.43134" lon="6.05037">
        <ele>263.20001220703</ele>
        <time>2013-12-21T14:09:44Z</time>
      </trkpt>
      <trkpt lat="43.43131" lon="6.05031">
        <ele>263.20001220703</ele>
        <time>2013-12-21T14:09:48Z</time>
      </trkpt>
      <trkpt lat="43.43129" lon="6.05027">
        <ele>264</ele>
        <time>2013-12-21T14:09:51Z</time>
      </trkpt>
      <trkpt lat="43.43117" lon="6.05015">
        <ele>265.20001220703</ele>
        <time>2013-12-21T14:10:00Z</time>
      </trkpt>
      <trkpt lat="43.43109" lon="6.05003">
        <ele>265.20001220703</ele>
        <time>2013-12-21T14:10:07Z</time>
      </trkpt>
      <trkpt lat="43.43105" lon="6.04998">
        <ele>265.60000610352</ele>
        <time>2013-12-21T14:10:10Z</time>
      </trkpt>
      <trkpt lat="43.43099" lon="6.04984">
        <ele>267.20001220703</ele>
        <time>2013-12-21T14:10:19Z</time>
      </trkpt>
      <trkpt lat="43.43095" lon="6.04976">
        <ele>267.20001220703</ele>
        <time>2013-12-21T14:10:25Z</time>
      </trkpt>
      <trkpt lat="43.43093" lon="6.04973">
        <ele>267.60000610352</ele>
        <time>2013-12-21T14:10:27Z</time>
      </trkpt>
      <trkpt lat="43.4309" lon="6.0497">
        <ele>268.39999389648</ele>
        <time>2013-12-21T14:10:29Z</time>
      </trkpt>
      <trkpt lat="43.43084" lon="6.04958">
        <ele>269.20001220703</ele>
        <time>2013-12-21T14:10:38Z</time>
      </trkpt>
      <trkpt lat="43.43076" lon="6.04948">
        <ele>269.20001220703</ele>
        <time>2013-12-21T14:10:44Z</time>
      </trkpt>
      <trkpt lat="43.43071" lon="6.04941">
        <ele>269.60000610352</ele>
        <time>2013-12-21T14:10:48Z</time>
      </trkpt>
      <trkpt lat="43.43069" lon="6.04937">
        <ele>270.39999389648</ele>
        <time>2013-12-21T14:10:50Z</time>
      </trkpt>
      <trkpt lat="43.43067" lon="6.04934">
        <ele>271.20001220703</ele>
        <time>2013-12-21T14:10:52Z</time>
      </trkpt>
      <trkpt lat="43.43065" lon="6.0493">
        <ele>271.20001220703</ele>
        <time>2013-12-21T14:10:54Z</time>
      </trkpt>
      <trkpt lat="43.4306" lon="6.04923">
        <ele>271.20001220703</ele>
        <time>2013-12-21T14:10:59Z</time>
      </trkpt>
      <trkpt lat="43.43056" lon="6.04912">
        <ele>271.79998779297</ele>
        <time>2013-12-21T14:11:06Z</time>
      </trkpt>
      <trkpt lat="43.43055" lon="6.04908">
        <ele>273.39999389648</ele>
        <time>2013-12-21T14:11:09Z</time>
      </trkpt>
      <trkpt lat="43.43055" lon="6.04906">
        <ele>273.39999389648</ele>
        <time>2013-12-21T14:11:10Z</time>
      </trkpt>
      <trkpt lat="43.43046" lon="6.04886">
        <ele>273.79998779297</ele>
        <time>2013-12-21T14:11:22Z</time>
      </trkpt>
      <trkpt lat="43.43045" lon="6.04885">
        <ele>274.20001220703</ele>
        <time>2013-12-21T14:11:23Z</time>
      </trkpt>
      <trkpt lat="43.43043" lon="6.04881">
        <ele>275.20001220703</ele>
        <time>2013-12-21T14:11:25Z</time>
      </trkpt>
      <trkpt lat="43.43042" lon="6.0488">
        <ele>275.60000610352</ele>
        <time>2013-12-21T14:11:26Z</time>
      </trkpt>
      <trkpt lat="43.43039" lon="6.04875">
        <ele>275.60000610352</ele>
        <time>2013-12-21T14:11:29Z</time>
      </trkpt>
      <trkpt lat="43.4303" lon="6.04864">
        <ele>275.60000610352</ele>
        <time>2013-12-21T14:11:35Z</time>
      </trkpt>
      <trkpt lat="43.43025" lon="6.04855">
        <ele>276</ele>
        <time>2013-12-21T14:11:39Z</time>
      </trkpt>
      <trkpt lat="43.43024" lon="6.04853">
        <ele>276.39999389648</ele>
        <time>2013-12-21T14:11:40Z</time>
      </trkpt>
      <trkpt lat="43.43023" lon="6.04849">
        <ele>277.20001220703</ele>
        <time>2013-12-21T14:11:42Z</time>
      </trkpt>
      <trkpt lat="43.43023" lon="6.04847">
        <ele>277.60000610352</ele>
        <time>2013-12-21T14:11:43Z</time>
      </trkpt>
      <trkpt lat="43.43023" lon="6.04843">
        <ele>277.60000610352</ele>
        <time>2013-12-21T14:11:46Z</time>
      </trkpt>
      <trkpt lat="43.43023" lon="6.04842">
        <ele>277.60000610352</ele>
        <time>2013-12-21T14:11:51Z</time>
      </trkpt>
      <trkpt lat="43.43023" lon="6.04842">
        <ele>277.60000610352</ele>
        <time>2013-12-21T14:12:13Z</time>
      </trkpt>
      <trkpt lat="43.43023" lon="6.04842">
        <ele>277.60000610352</ele>
        <time>2013-12-21T14:12:25Z</time>
      </trkpt>
      <trkpt lat="43.43023" lon="6.04842">
        <ele>277.60000610352</ele>
        <time>2013-12-21T14:12:29Z</time>
      </trkpt>
      <trkpt lat="43.43023" lon="6.04842">
        <ele>277.60000610352</ele>
        <time>2013-12-21T14:12:45Z</time>
      </trkpt>
      <trkpt lat="43.43023" lon="6.0484">
        <ele>277.60000610352</ele>
        <time>2013-12-21T14:12:48Z</time>
      </trkpt>
      <trkpt lat="43.43023" lon="6.04838">
        <ele>277.60000610352</ele>
        <time>2013-12-21T14:12:49Z</time>
      </trkpt>
      <trkpt lat="43.43024" lon="6.04831">
        <ele>277.60000610352</ele>
        <time>2013-12-21T14:12:53Z</time>
      </trkpt>
      <trkpt lat="43.43025" lon="6.04821">
        <ele>278</ele>
        <time>2013-12-21T14:12:58Z</time>
      </trkpt>
      <trkpt lat="43.43026" lon="6.0482">
        <ele>278.39999389648</ele>
        <time>2013-12-21T14:12:59Z</time>
      </trkpt>
      <trkpt lat="43.43026" lon="6.04815">
        <ele>279.39999389648</ele>
        <time>2013-12-21T14:13:01Z</time>
      </trkpt>
      <trkpt lat="43.43026" lon="6.04813">
        <ele>279.79998779297</ele>
        <time>2013-12-21T14:13:02Z</time>
      </trkpt>
      <trkpt lat="43.43024" lon="6.048">
        <ele>279.79998779297</ele>
        <time>2013-12-21T14:13:07Z</time>
      </trkpt>
      <trkpt lat="43.43027" lon="6.04779">
        <ele>281.39999389648</ele>
        <time>2013-12-21T14:13:17Z</time>
      </trkpt>
      <trkpt lat="43.43027" lon="6.04777">
        <ele>281.79998779297</ele>
        <time>2013-12-21T14:13:18Z</time>
      </trkpt>
      <trkpt lat="43.43035" lon="6.04756">
        <ele>281.79998779297</ele>
        <time>2013-12-21T14:13:27Z</time>
      </trkpt>
      <trkpt lat="43.43044" lon="6.04735">
        <ele>283</ele>
        <time>2013-12-21T14:13:38Z</time>
      </trkpt>
      <trkpt lat="43.4305" lon="6.04724">
        <ele>284</ele>
        <time>2013-12-21T14:13:44Z</time>
      </trkpt>
      <trkpt lat="43.43053" lon="6.04718">
        <ele>284</ele>
        <time>2013-12-21T14:13:48Z</time>
      </trkpt>
      <trkpt lat="43.43056" lon="6.04713">
        <ele>284</ele>
        <time>2013-12-21T14:13:51Z</time>
      </trkpt>
      <trkpt lat="43.43056" lon="6.04707">
        <ele>284.39999389648</ele>
        <time>2013-12-21T14:13:54Z</time>
      </trkpt>
      <trkpt lat="43.43056" lon="6.04705">
        <ele>284.79998779297</ele>
        <time>2013-12-21T14:13:55Z</time>
      </trkpt>
      <trkpt lat="43.43057" lon="6.04697">
        <ele>286</ele>
        <time>2013-12-21T14:13:58Z</time>
      </trkpt>
      <trkpt lat="43.43054" lon="6.04686">
        <ele>286</ele>
        <time>2013-12-21T14:14:03Z</time>
      </trkpt>
      <trkpt lat="43.43051" lon="6.04673">
        <ele>286</ele>
        <time>2013-12-21T14:14:10Z</time>
      </trkpt>
      <trkpt lat="43.43051" lon="6.04669">
        <ele>286</ele>
        <time>2013-12-21T14:14:13Z</time>
      </trkpt>
      <trkpt lat="43.43051" lon="6.04662">
        <ele>286</ele>
        <time>2013-12-21T14:14:16Z</time>
      </trkpt>
      <trkpt lat="43.43051" lon="6.04657">
        <ele>286</ele>
        <time>2013-12-21T14:14:18Z</time>
      </trkpt>
      <trkpt lat="43.4305" lon="6.04648">
        <ele>287.79998779297</ele>
        <time>2013-12-21T14:14:22Z</time>
      </trkpt>
      <trkpt lat="43.4305" lon="6.04646">
        <ele>288.20001220703</ele>
        <time>2013-12-21T14:14:23Z</time>
      </trkpt>
      <trkpt lat="43.43049" lon="6.04642">
        <ele>288.20001220703</ele>
        <time>2013-12-21T14:14:25Z</time>
      </trkpt>
      <trkpt lat="43.43045" lon="6.04626">
        <ele>288.20001220703</ele>
        <time>2013-12-21T14:14:33Z</time>
      </trkpt>
      <trkpt lat="43.43041" lon="6.04594">
        <ele>288.20001220703</ele>
        <time>2013-12-21T14:14:49Z</time>
      </trkpt>
      <trkpt lat="43.4304" lon="6.04586">
        <ele>288.20001220703</ele>
        <time>2013-12-21T14:14:53Z</time>
      </trkpt>
      <trkpt lat="43.43042" lon="6.04574">
        <ele>289.79998779297</ele>
        <time>2013-12-21T14:14:59Z</time>
      </trkpt>
      <trkpt lat="43.43044" lon="6.04561">
        <ele>290.20001220703</ele>
        <time>2013-12-21T14:15:05Z</time>
      </trkpt>
      <trkpt lat="43.43046" lon="6.04549">
        <ele>290.20001220703</ele>
        <time>2013-12-21T14:15:11Z</time>
      </trkpt>
      <trkpt lat="43.43053" lon="6.04521">
        <ele>290.20001220703</ele>
        <time>2013-12-21T14:15:25Z</time>
      </trkpt>
      <trkpt lat="43.43055" lon="6.04513">
        <ele>291</ele>
        <time>2013-12-21T14:15:29Z</time>
      </trkpt>
      <trkpt lat="43.43059" lon="6.0449">
        <ele>292.20001220703</ele>
        <time>2013-12-21T14:15:40Z</time>
      </trkpt>
      <trkpt lat="43.43063" lon="6.04472">
        <ele>292.20001220703</ele>
        <time>2013-12-21T14:15:49Z</time>
      </trkpt>
      <trkpt lat="43.43065" lon="6.04462">
        <ele>292.20001220703</ele>
        <time>2013-12-21T14:15:54Z</time>
      </trkpt>
      <trkpt lat="43.43065" lon="6.0446">
        <ele>292.20001220703</ele>
        <time>2013-12-21T14:15:55Z</time>
      </trkpt>
      <trkpt lat="43.43069" lon="6.04445">
        <ele>292.20001220703</ele>
        <time>2013-12-21T14:16:02Z</time>
      </trkpt>
      <trkpt lat="43.43073" lon="6.04435">
        <ele>293.79998779297</ele>
        <time>2013-12-21T14:16:07Z</time>
      </trkpt>
      <trkpt lat="43.43075" lon="6.04431">
        <ele>294.20001220703</ele>
        <time>2013-12-21T14:16:09Z</time>
      </trkpt>
      <trkpt lat="43.43076" lon="6.04418">
        <ele>294.20001220703</ele>
        <time>2013-12-21T14:16:16Z</time>
      </trkpt>
      <trkpt lat="43.43077" lon="6.04405">
        <ele>294.20001220703</ele>
        <time>2013-12-21T14:16:23Z</time>
      </trkpt>
      <trkpt lat="43.43082" lon="6.04395">
        <ele>294.20001220703</ele>
        <time>2013-12-21T14:16:28Z</time>
      </trkpt>
      <trkpt lat="43.43086" lon="6.04385">
        <ele>294.20001220703</ele>
        <time>2013-12-21T14:16:35Z</time>
      </trkpt>
      <trkpt lat="43.4309" lon="6.04382">
        <ele>295.39999389648</ele>
        <time>2013-12-21T14:16:38Z</time>
      </trkpt>
      <trkpt lat="43.43093" lon="6.04379">
        <ele>296.39999389648</ele>
        <time>2013-12-21T14:16:40Z</time>
      </trkpt>
      <trkpt lat="43.43093" lon="6.04377">
        <ele>296.39999389648</ele>
        <time>2013-12-21T14:16:42Z</time>
      </trkpt>
      <trkpt lat="43.43095" lon="6.04372">
        <ele>296.39999389648</ele>
        <time>2013-12-21T14:16:45Z</time>
      </trkpt>
      <trkpt lat="43.43097" lon="6.04363">
        <ele>296.39999389648</ele>
        <time>2013-12-21T14:16:49Z</time>
      </trkpt>
      <trkpt lat="43.43098" lon="6.04358">
        <ele>296.39999389648</ele>
        <time>2013-12-21T14:16:51Z</time>
      </trkpt>
      <trkpt lat="43.431" lon="6.04348">
        <ele>296.39999389648</ele>
        <time>2013-12-21T14:16:56Z</time>
      </trkpt>
      <trkpt lat="43.43101" lon="6.04346">
        <ele>296.39999389648</ele>
        <time>2013-12-21T14:16:57Z</time>
      </trkpt>
      <trkpt lat="43.43101" lon="6.04345">
        <ele>296.79998779297</ele>
        <time>2013-12-21T14:16:59Z</time>
      </trkpt>
      <trkpt lat="43.43101" lon="6.04345">
        <ele>298.39999389648</ele>
        <time>2013-12-21T14:17:21Z</time>
      </trkpt>
      <trkpt lat="43.431" lon="6.04345">
        <ele>298.39999389648</ele>
        <time>2013-12-21T14:17:27Z</time>
      </trkpt>
      <trkpt lat="43.43101" lon="6.04344">
        <ele>298.39999389648</ele>
        <time>2013-12-21T14:17:34Z</time>
      </trkpt>
      <trkpt lat="43.43101" lon="6.04344">
        <ele>298.39999389648</ele>
        <time>2013-12-21T14:17:48Z</time>
      </trkpt>
      <trkpt lat="43.431" lon="6.04344">
        <ele>298.39999389648</ele>
        <time>2013-12-21T14:18:11Z</time>
      </trkpt>
      <trkpt lat="43.431" lon="6.04344">
        <ele>298.39999389648</ele>
        <time>2013-12-21T14:18:33Z</time>
      </trkpt>
      <trkpt lat="43.431" lon="6.04344">
        <ele>298.39999389648</ele>
        <time>2013-12-21T14:18:58Z</time>
      </trkpt>
      <trkpt lat="43.431" lon="6.04344">
        <ele>298.39999389648</ele>
        <time>2013-12-21T14:19:01Z</time>
      </trkpt>
      <trkpt lat="43.431" lon="6.04339">
        <ele>298.39999389648</ele>
        <time>2013-12-21T14:19:09Z</time>
      </trkpt>
      <trkpt lat="43.431" lon="6.04329">
        <ele>298.39999389648</ele>
        <time>2013-12-21T14:19:13Z</time>
      </trkpt>
      <trkpt lat="43.43099" lon="6.04321">
        <ele>298.39999389648</ele>
        <time>2013-12-21T14:19:16Z</time>
      </trkpt>
      <trkpt lat="43.43096" lon="6.04305">
        <ele>298.39999389648</ele>
        <time>2013-12-21T14:19:21Z</time>
      </trkpt>
      <trkpt lat="43.43095" lon="6.04299">
        <ele>298.39999389648</ele>
        <time>2013-12-21T14:19:23Z</time>
      </trkpt>
      <trkpt lat="43.43093" lon="6.0429">
        <ele>298.79998779297</ele>
        <time>2013-12-21T14:19:26Z</time>
      </trkpt>
      <trkpt lat="43.43093" lon="6.04282">
        <ele>300</ele>
        <time>2013-12-21T14:19:29Z</time>
      </trkpt>
      <trkpt lat="43.43092" lon="6.0427">
        <ele>300.39999389648</ele>
        <time>2013-12-21T14:19:34Z</time>
      </trkpt>
      <trkpt lat="43.43088" lon="6.04258">
        <ele>300.39999389648</ele>
        <time>2013-12-21T14:19:40Z</time>
      </trkpt>
      <trkpt lat="43.43088" lon="6.04256">
        <ele>300.39999389648</ele>
        <time>2013-12-21T14:19:41Z</time>
      </trkpt>
      <trkpt lat="43.43085" lon="6.04242">
        <ele>300.39999389648</ele>
        <time>2013-12-21T14:19:47Z</time>
      </trkpt>
      <trkpt lat="43.43075" lon="6.04215">
        <ele>300.39999389648</ele>
        <time>2013-12-21T14:20:00Z</time>
      </trkpt>
      <trkpt lat="43.43073" lon="6.04209">
        <ele>300.79998779297</ele>
        <time>2013-12-21T14:20:03Z</time>
      </trkpt>
      <trkpt lat="43.43071" lon="6.04203">
        <ele>302</ele>
        <time>2013-12-21T14:20:06Z</time>
      </trkpt>
      <trkpt lat="43.43071" lon="6.042">
        <ele>302.39999389648</ele>
        <time>2013-12-21T14:20:07Z</time>
      </trkpt>
      <trkpt lat="43.43076" lon="6.04179">
        <ele>302.39999389648</ele>
        <time>2013-12-21T14:20:15Z</time>
      </trkpt>
      <trkpt lat="43.43076" lon="6.04171">
        <ele>302.39999389648</ele>
        <time>2013-12-21T14:20:18Z</time>
      </trkpt>
      <trkpt lat="43.43074" lon="6.04163">
        <ele>302.39999389648</ele>
        <time>2013-12-21T14:20:21Z</time>
      </trkpt>
      <trkpt lat="43.43072" lon="6.0415">
        <ele>302.39999389648</ele>
        <time>2013-12-21T14:20:26Z</time>
      </trkpt>
      <trkpt lat="43.43073" lon="6.04138">
        <ele>302.39999389648</ele>
        <time>2013-12-21T14:20:31Z</time>
      </trkpt>
      <trkpt lat="43.43079" lon="6.04121">
        <ele>302.39999389648</ele>
        <time>2013-12-21T14:20:38Z</time>
      </trkpt>
      <trkpt lat="43.43081" lon="6.04098">
        <ele>303.60000610352</ele>
        <time>2013-12-21T14:20:46Z</time>
      </trkpt>
      <trkpt lat="43.4308" lon="6.04093">
        <ele>304.39999389648</ele>
        <time>2013-12-21T14:20:48Z</time>
      </trkpt>
      <trkpt lat="43.43079" lon="6.04085">
        <ele>304.39999389648</ele>
        <time>2013-12-21T14:20:51Z</time>
      </trkpt>
      <trkpt lat="43.43078" lon="6.04074">
        <ele>304.39999389648</ele>
        <time>2013-12-21T14:20:55Z</time>
      </trkpt>
      <trkpt lat="43.43077" lon="6.0406">
        <ele>304.39999389648</ele>
        <time>2013-12-21T14:21:02Z</time>
      </trkpt>
      <trkpt lat="43.43077" lon="6.04049">
        <ele>304.39999389648</ele>
        <time>2013-12-21T14:21:07Z</time>
      </trkpt>
      <trkpt lat="43.43077" lon="6.04036">
        <ele>305.20001220703</ele>
        <time>2013-12-21T14:21:13Z</time>
      </trkpt>
      <trkpt lat="43.43077" lon="6.04029">
        <ele>306.39999389648</ele>
        <time>2013-12-21T14:21:16Z</time>
      </trkpt>
      <trkpt lat="43.43074" lon="6.04018">
        <ele>306.39999389648</ele>
        <time>2013-12-21T14:21:21Z</time>
      </trkpt>
      <trkpt lat="43.43073" lon="6.04015">
        <ele>306.39999389648</ele>
        <time>2013-12-21T14:21:23Z</time>
      </trkpt>
      <trkpt lat="43.43071" lon="6.0401">
        <ele>306.39999389648</ele>
        <time>2013-12-21T14:21:26Z</time>
      </trkpt>
      <trkpt lat="43.43069" lon="6.04006">
        <ele>306.39999389648</ele>
        <time>2013-12-21T14:21:31Z</time>
      </trkpt>
      <trkpt lat="43.43069" lon="6.04006">
        <ele>306.39999389648</ele>
        <time>2013-12-21T14:21:55Z</time>
      </trkpt>
      <trkpt lat="43.43069" lon="6.04006">
        <ele>307</ele>
        <time>2013-12-21T14:22:03Z</time>
      </trkpt>
      <trkpt lat="43.43069" lon="6.04006">
        <ele>308.60000610352</ele>
        <time>2013-12-21T14:22:19Z</time>
      </trkpt>
      <trkpt lat="43.43069" lon="6.04006">
        <ele>308.60000610352</ele>
        <time>2013-12-21T14:22:45Z</time>
      </trkpt>
      <trkpt lat="43.43069" lon="6.04006">
        <ele>308.60000610352</ele>
        <time>2013-12-21T14:23:09Z</time>
      </trkpt>
      <trkpt lat="43.43069" lon="6.04006">
        <ele>308.60000610352</ele>
        <time>2013-12-21T14:23:27Z</time>
      </trkpt>
      <trkpt lat="43.43069" lon="6.04006">
        <ele>308.60000610352</ele>
        <time>2013-12-21T14:23:44Z</time>
      </trkpt>
      <trkpt lat="43.43069" lon="6.04006">
        <ele>308.60000610352</ele>
        <time>2013-12-21T14:23:58Z</time>
      </trkpt>
      <trkpt lat="43.43068" lon="6.04007">
        <ele>308.60000610352</ele>
        <time>2013-12-21T14:24:04Z</time>
      </trkpt>
      <trkpt lat="43.43065" lon="6.0402">
        <ele>308.60000610352</ele>
        <time>2013-12-21T14:24:09Z</time>
      </trkpt>
      <trkpt lat="43.43058" lon="6.04042">
        <ele>308.60000610352</ele>
        <time>2013-12-21T14:24:16Z</time>
      </trkpt>
      <trkpt lat="43.43055" lon="6.04049">
        <ele>308.60000610352</ele>
        <time>2013-12-21T14:24:19Z</time>
      </trkpt>
      <trkpt lat="43.43053" lon="6.04061">
        <ele>308.60000610352</ele>
        <time>2013-12-21T14:24:23Z</time>
      </trkpt>
      <trkpt lat="43.43045" lon="6.0407">
        <ele>308.60000610352</ele>
        <time>2013-12-21T14:24:28Z</time>
      </trkpt>
      <trkpt lat="43.43039" lon="6.04082">
        <ele>308.60000610352</ele>
        <time>2013-12-21T14:24:33Z</time>
      </trkpt>
      <trkpt lat="43.43037" lon="6.0409">
        <ele>308.60000610352</ele>
        <time>2013-12-21T14:24:36Z</time>
      </trkpt>
      <trkpt lat="43.43036" lon="6.04097">
        <ele>308.60000610352</ele>
        <time>2013-12-21T14:24:39Z</time>
      </trkpt>
      <trkpt lat="43.4303" lon="6.04109">
        <ele>308.60000610352</ele>
        <time>2013-12-21T14:24:45Z</time>
      </trkpt>
      <trkpt lat="43.43027" lon="6.04111">
        <ele>308.60000610352</ele>
        <time>2013-12-21T14:24:47Z</time>
      </trkpt>
      <trkpt lat="43.43024" lon="6.04115">
        <ele>308.60000610352</ele>
        <time>2013-12-21T14:24:51Z</time>
      </trkpt>
      <trkpt lat="43.43019" lon="6.04117">
        <ele>309.39999389648</ele>
        <time>2013-12-21T14:24:55Z</time>
      </trkpt>
      <trkpt lat="43.43016" lon="6.04118">
        <ele>310.60000610352</ele>
        <time>2013-12-21T14:24:58Z</time>
      </trkpt>
      <trkpt lat="43.43003" lon="6.04125">
        <ele>312.79998779297</ele>
        <time>2013-12-21T14:25:08Z</time>
      </trkpt>
      <trkpt lat="43.42999" lon="6.04128">
        <ele>312.79998779297</ele>
        <time>2013-12-21T14:25:13Z</time>
      </trkpt>
      <trkpt lat="43.42991" lon="6.04131">
        <ele>314.79998779297</ele>
        <time>2013-12-21T14:25:19Z</time>
      </trkpt>
      <trkpt lat="43.42987" lon="6.04132">
        <ele>314.79998779297</ele>
        <time>2013-12-21T14:25:23Z</time>
      </trkpt>
      <trkpt lat="43.42972" lon="6.04138">
        <ele>317.60000610352</ele>
        <time>2013-12-21T14:25:37Z</time>
      </trkpt>
      <trkpt lat="43.4297" lon="6.04139">
        <ele>318.39999389648</ele>
        <time>2013-12-21T14:25:39Z</time>
      </trkpt>
      <trkpt lat="43.42966" lon="6.04141">
        <ele>319</ele>
        <time>2013-12-21T14:25:44Z</time>
      </trkpt>
      <trkpt lat="43.42957" lon="6.04147">
        <ele>321</ele>
        <time>2013-12-21T14:25:54Z</time>
      </trkpt>
      <trkpt lat="43.42954" lon="6.04148">
        <ele>321.39999389648</ele>
        <time>2013-12-21T14:25:59Z</time>
      </trkpt>
      <trkpt lat="43.42952" lon="6.04151">
        <ele>322.60000610352</ele>
        <time>2013-12-21T14:26:02Z</time>
      </trkpt>
      <trkpt lat="43.42951" lon="6.04151">
        <ele>323</ele>
        <time>2013-12-21T14:26:04Z</time>
      </trkpt>
      <trkpt lat="43.42945" lon="6.04155">
        <ele>323</ele>
        <time>2013-12-21T14:26:11Z</time>
      </trkpt>
      <trkpt lat="43.4294" lon="6.04159">
        <ele>323.39999389648</ele>
        <time>2013-12-21T14:26:17Z</time>
      </trkpt>
      <trkpt lat="43.42935" lon="6.04165">
        <ele>325</ele>
        <time>2013-12-21T14:26:24Z</time>
      </trkpt>
      <trkpt lat="43.42931" lon="6.04172">
        <ele>325</ele>
        <time>2013-12-21T14:26:32Z</time>
      </trkpt>
      <trkpt lat="43.42928" lon="6.04173">
        <ele>325.39999389648</ele>
        <time>2013-12-21T14:26:35Z</time>
      </trkpt>
      <trkpt lat="43.42927" lon="6.04174">
        <ele>325.79998779297</ele>
        <time>2013-12-21T14:26:36Z</time>
      </trkpt>
      <trkpt lat="43.42926" lon="6.04175">
        <ele>326.20001220703</ele>
        <time>2013-12-21T14:26:37Z</time>
      </trkpt>
      <trkpt lat="43.42921" lon="6.04175">
        <ele>327</ele>
        <time>2013-12-21T14:26:41Z</time>
      </trkpt>
      <trkpt lat="43.42921" lon="6.04175">
        <ele>327</ele>
        <time>2013-12-21T14:26:43Z</time>
      </trkpt>
      <trkpt lat="43.42921" lon="6.04175">
        <ele>327</ele>
        <time>2013-12-21T14:27:03Z</time>
      </trkpt>
      <trkpt lat="43.42921" lon="6.04175">
        <ele>327</ele>
        <time>2013-12-21T14:27:25Z</time>
      </trkpt>
      <trkpt lat="43.42921" lon="6.04175">
        <ele>327</ele>
        <time>2013-12-21T14:27:31Z</time>
      </trkpt>
      <trkpt lat="43.42921" lon="6.04175">
        <ele>327</ele>
        <time>2013-12-21T14:27:38Z</time>
      </trkpt>
      <trkpt lat="43.42921" lon="6.04175">
        <ele>327</ele>
        <time>2013-12-21T14:27:49Z</time>
      </trkpt>
      <trkpt lat="43.42921" lon="6.04175">
        <ele>327</ele>
        <time>2013-12-21T14:27:56Z</time>
      </trkpt>
      <trkpt lat="43.42921" lon="6.04175">
        <ele>327</ele>
        <time>2013-12-21T14:28:20Z</time>
      </trkpt>
      <trkpt lat="43.42921" lon="6.04175">
        <ele>327</ele>
        <time>2013-12-21T14:28:40Z</time>
      </trkpt>
      <trkpt lat="43.42921" lon="6.04175">
        <ele>327</ele>
        <time>2013-12-21T14:28:42Z</time>
      </trkpt>
      <trkpt lat="43.42921" lon="6.04175">
        <ele>327</ele>
        <time>2013-12-21T14:28:46Z</time>
      </trkpt>
      <trkpt lat="43.42921" lon="6.04175">
        <ele>327</ele>
        <time>2013-12-21T14:28:49Z</time>
      </trkpt>
      <trkpt lat="43.42919" lon="6.04175">
        <ele>327</ele>
        <time>2013-12-21T14:28:55Z</time>
      </trkpt>
      <trkpt lat="43.42919" lon="6.04175">
        <ele>327.39999389648</ele>
        <time>2013-12-21T14:28:57Z</time>
      </trkpt>
      <trkpt lat="43.42918" lon="6.04174">
        <ele>327.79998779297</ele>
        <time>2013-12-21T14:28:58Z</time>
      </trkpt>
      <trkpt lat="43.42917" lon="6.04174">
        <ele>328.79998779297</ele>
        <time>2013-12-21T14:29:00Z</time>
      </trkpt>
      <trkpt lat="43.42916" lon="6.04174">
        <ele>329.20001220703</ele>
        <time>2013-12-21T14:29:01Z</time>
      </trkpt>
      <trkpt lat="43.42915" lon="6.04175">
        <ele>329.20001220703</ele>
        <time>2013-12-21T14:29:03Z</time>
      </trkpt>
      <trkpt lat="43.42913" lon="6.04176">
        <ele>329.20001220703</ele>
        <time>2013-12-21T14:29:05Z</time>
      </trkpt>
      <trkpt lat="43.42913" lon="6.04176">
        <ele>329.20001220703</ele>
        <time>2013-12-21T14:29:07Z</time>
      </trkpt>
      <trkpt lat="43.42913" lon="6.04176">
        <ele>330</ele>
        <time>2013-12-21T14:29:11Z</time>
      </trkpt>
      <trkpt lat="43.42913" lon="6.04176">
        <ele>330.79998779297</ele>
        <time>2013-12-21T14:29:13Z</time>
      </trkpt>
      <trkpt lat="43.42913" lon="6.04176">
        <ele>331.20001220703</ele>
        <time>2013-12-21T14:29:14Z</time>
      </trkpt>
      <trkpt lat="43.4291" lon="6.04177">
        <ele>331.20001220703</ele>
        <time>2013-12-21T14:29:18Z</time>
      </trkpt>
      <trkpt lat="43.42909" lon="6.04178">
        <ele>331.20001220703</ele>
        <time>2013-12-21T14:29:21Z</time>
      </trkpt>
      <trkpt lat="43.42907" lon="6.04179">
        <ele>331.60000610352</ele>
        <time>2013-12-21T14:29:24Z</time>
      </trkpt>
      <trkpt lat="43.42905" lon="6.0418">
        <ele>332.39999389648</ele>
        <time>2013-12-21T14:29:26Z</time>
      </trkpt>
      <trkpt lat="43.42902" lon="6.04181">
        <ele>333.20001220703</ele>
        <time>2013-12-21T14:29:34Z</time>
      </trkpt>
      <trkpt lat="43.42899" lon="6.04181">
        <ele>333.60000610352</ele>
        <time>2013-12-21T14:29:40Z</time>
      </trkpt>
      <trkpt lat="43.42897" lon="6.04182">
        <ele>335</ele>
        <time>2013-12-21T14:29:43Z</time>
      </trkpt>
      <trkpt lat="43.42896" lon="6.04182">
        <ele>335.39999389648</ele>
        <time>2013-12-21T14:29:44Z</time>
      </trkpt>
      <trkpt lat="43.42896" lon="6.04182">
        <ele>335.39999389648</ele>
        <time>2013-12-21T14:29:48Z</time>
      </trkpt>
      <trkpt lat="43.42895" lon="6.04182">
        <ele>335.39999389648</ele>
        <time>2013-12-21T14:30:00Z</time>
      </trkpt>
      <trkpt lat="43.42893" lon="6.04182">
        <ele>335.39999389648</ele>
        <time>2013-12-21T14:30:03Z</time>
      </trkpt>
      <trkpt lat="43.42891" lon="6.04182">
        <ele>335.79998779297</ele>
        <time>2013-12-21T14:30:08Z</time>
      </trkpt>
      <trkpt lat="43.42889" lon="6.04182">
        <ele>336.20001220703</ele>
        <time>2013-12-21T14:30:09Z</time>
      </trkpt>
      <trkpt lat="43.42889" lon="6.04182">
        <ele>336.60000610352</ele>
        <time>2013-12-21T14:30:10Z</time>
      </trkpt>
      <trkpt lat="43.42889" lon="6.04182">
        <ele>337</ele>
        <time>2013-12-21T14:30:11Z</time>
      </trkpt>
      <trkpt lat="43.42887" lon="6.04183">
        <ele>337.39999389648</ele>
        <time>2013-12-21T14:30:14Z</time>
      </trkpt>
      <trkpt lat="43.42883" lon="6.04182">
        <ele>337.39999389648</ele>
        <time>2013-12-21T14:30:23Z</time>
      </trkpt>
      <trkpt lat="43.4288" lon="6.04183">
        <ele>338.60000610352</ele>
        <time>2013-12-21T14:30:27Z</time>
      </trkpt>
      <trkpt lat="43.42877" lon="6.04183">
        <ele>339.60000610352</ele>
        <time>2013-12-21T14:30:31Z</time>
      </trkpt>
      <trkpt lat="43.42875" lon="6.04184">
        <ele>339.60000610352</ele>
        <time>2013-12-21T14:30:37Z</time>
      </trkpt>
      <trkpt lat="43.4287" lon="6.04185">
        <ele>340.39999389648</ele>
        <time>2013-12-21T14:30:43Z</time>
      </trkpt>
      <trkpt lat="43.42868" lon="6.04186">
        <ele>341.60000610352</ele>
        <time>2013-12-21T14:30:46Z</time>
      </trkpt>
      <trkpt lat="43.42869" lon="6.04185">
        <ele>341.60000610352</ele>
        <time>2013-12-21T14:30:51Z</time>
      </trkpt>
      <trkpt lat="43.42862" lon="6.04187">
        <ele>341.60000610352</ele>
        <time>2013-12-21T14:31:03Z</time>
      </trkpt>
      <trkpt lat="43.42862" lon="6.04187">
        <ele>341.60000610352</ele>
        <time>2013-12-21T14:31:09Z</time>
      </trkpt>
      <trkpt lat="43.42862" lon="6.04187">
        <ele>341.60000610352</ele>
        <time>2013-12-21T14:31:17Z</time>
      </trkpt>
      <trkpt lat="43.42862" lon="6.04187">
        <ele>341.60000610352</ele>
        <time>2013-12-21T14:31:22Z</time>
      </trkpt>
      <trkpt lat="43.42862" lon="6.04187">
        <ele>341.60000610352</ele>
        <time>2013-12-21T14:31:38Z</time>
      </trkpt>
      <trkpt lat="43.42862" lon="6.04187">
        <ele>341.60000610352</ele>
        <time>2013-12-21T14:31:55Z</time>
      </trkpt>
      <trkpt lat="43.42862" lon="6.04187">
        <ele>341.60000610352</ele>
        <time>2013-12-21T14:32:00Z</time>
      </trkpt>
      <trkpt lat="43.42862" lon="6.04187">
        <ele>341.60000610352</ele>
        <time>2013-12-21T14:32:04Z</time>
      </trkpt>
      <trkpt lat="43.42861" lon="6.04187">
        <ele>341.60000610352</ele>
        <time>2013-12-21T14:32:06Z</time>
      </trkpt>
      <trkpt lat="43.42861" lon="6.04187">
        <ele>341.60000610352</ele>
        <time>2013-12-21T14:32:13Z</time>
      </trkpt>
      <trkpt lat="43.4286" lon="6.04187">
        <ele>341.60000610352</ele>
        <time>2013-12-21T14:32:14Z</time>
      </trkpt>
      <trkpt lat="43.42852" lon="6.0419">
        <ele>342</ele>
        <time>2013-12-21T14:32:19Z</time>
      </trkpt>
      <trkpt lat="43.42851" lon="6.04191">
        <ele>342.60000610352</ele>
        <time>2013-12-21T14:32:20Z</time>
      </trkpt>
      <trkpt lat="43.42849" lon="6.04192">
        <ele>343</ele>
        <time>2013-12-21T14:32:21Z</time>
      </trkpt>
      <trkpt lat="43.42848" lon="6.04192">
        <ele>343.39999389648</ele>
        <time>2013-12-21T14:32:22Z</time>
      </trkpt>
      <trkpt lat="43.42847" lon="6.04193">
        <ele>343.79998779297</ele>
        <time>2013-12-21T14:32:23Z</time>
      </trkpt>
      <trkpt lat="43.42838" lon="6.04195">
        <ele>343.79998779297</ele>
        <time>2013-12-21T14:32:29Z</time>
      </trkpt>
      <trkpt lat="43.42837" lon="6.04196">
        <ele>343.79998779297</ele>
        <time>2013-12-21T14:32:34Z</time>
      </trkpt>
      <trkpt lat="43.42837" lon="6.04196">
        <ele>343.79998779297</ele>
        <time>2013-12-21T14:32:38Z</time>
      </trkpt>
      <trkpt lat="43.42835" lon="6.04196">
        <ele>343.79998779297</ele>
        <time>2013-12-21T14:32:44Z</time>
      </trkpt>
      <trkpt lat="43.42834" lon="6.04197">
        <ele>343.79998779297</ele>
        <time>2013-12-21T14:32:51Z</time>
      </trkpt>
      <trkpt lat="43.42834" lon="6.04197">
        <ele>343.79998779297</ele>
        <time>2013-12-21T14:33:01Z</time>
      </trkpt>
      <trkpt lat="43.4283" lon="6.04201">
        <ele>344.20001220703</ele>
        <time>2013-12-21T14:33:06Z</time>
      </trkpt>
      <trkpt lat="43.42828" lon="6.04202">
        <ele>344.60000610352</ele>
        <time>2013-12-21T14:33:07Z</time>
      </trkpt>
      <trkpt lat="43.42827" lon="6.04201">
        <ele>345</ele>
        <time>2013-12-21T14:33:08Z</time>
      </trkpt>
      <trkpt lat="43.42826" lon="6.04202">
        <ele>345.39999389648</ele>
        <time>2013-12-21T14:33:09Z</time>
      </trkpt>
      <trkpt lat="43.42825" lon="6.04203">
        <ele>345.79998779297</ele>
        <time>2013-12-21T14:33:10Z</time>
      </trkpt>
      <trkpt lat="43.42822" lon="6.04204">
        <ele>345.79998779297</ele>
        <time>2013-12-21T14:33:13Z</time>
      </trkpt>
      <trkpt lat="43.42818" lon="6.04206">
        <ele>345.79998779297</ele>
        <time>2013-12-21T14:33:16Z</time>
      </trkpt>
      <trkpt lat="43.4281" lon="6.04209">
        <ele>347.60000610352</ele>
        <time>2013-12-21T14:33:23Z</time>
      </trkpt>
      <trkpt lat="43.42804" lon="6.04214">
        <ele>348</ele>
        <time>2013-12-21T14:33:29Z</time>
      </trkpt>
      <trkpt lat="43.42798" lon="6.04218">
        <ele>348</ele>
        <time>2013-12-21T14:33:34Z</time>
      </trkpt>
      <trkpt lat="43.42793" lon="6.04221">
        <ele>348.79998779297</ele>
        <time>2013-12-21T14:33:39Z</time>
      </trkpt>
      <trkpt lat="43.42788" lon="6.04222">
        <ele>350</ele>
        <time>2013-12-21T14:33:44Z</time>
      </trkpt>
      <trkpt lat="43.42784" lon="6.04223">
        <ele>350</ele>
        <time>2013-12-21T14:33:47Z</time>
      </trkpt>
      <trkpt lat="43.42774" lon="6.04226">
        <ele>351.79998779297</ele>
        <time>2013-12-21T14:33:55Z</time>
      </trkpt>
      <trkpt lat="43.42767" lon="6.04229">
        <ele>352.20001220703</ele>
        <time>2013-12-21T14:34:01Z</time>
      </trkpt>
      <trkpt lat="43.42755" lon="6.04235">
        <ele>352.20001220703</ele>
        <time>2013-12-21T14:34:10Z</time>
      </trkpt>
      <trkpt lat="43.4275" lon="6.04238">
        <ele>353.39999389648</ele>
        <time>2013-12-21T14:34:14Z</time>
      </trkpt>
      <trkpt lat="43.42749" lon="6.04238">
        <ele>353.79998779297</ele>
        <time>2013-12-21T14:34:15Z</time>
      </trkpt>
      <trkpt lat="43.42745" lon="6.04239">
        <ele>354.20001220703</ele>
        <time>2013-12-21T14:34:20Z</time>
      </trkpt>
      <trkpt lat="43.42741" lon="6.04237">
        <ele>354.20001220703</ele>
        <time>2013-12-21T14:34:24Z</time>
      </trkpt>
      <trkpt lat="43.42735" lon="6.04231">
        <ele>354.20001220703</ele>
        <time>2013-12-21T14:34:31Z</time>
      </trkpt>
      <trkpt lat="43.42734" lon="6.0423">
        <ele>354.20001220703</ele>
        <time>2013-12-21T14:34:32Z</time>
      </trkpt>
      <trkpt lat="43.42732" lon="6.04229">
        <ele>354.20001220703</ele>
        <time>2013-12-21T14:34:34Z</time>
      </trkpt>
      <trkpt lat="43.4273" lon="6.04229">
        <ele>354.20001220703</ele>
        <time>2013-12-21T14:34:37Z</time>
      </trkpt>
      <trkpt lat="43.4273" lon="6.04229">
        <ele>354.20001220703</ele>
        <time>2013-12-21T14:34:38Z</time>
      </trkpt>
      <trkpt lat="43.4273" lon="6.04229">
        <ele>354.20001220703</ele>
        <time>2013-12-21T14:34:59Z</time>
      </trkpt>
      <trkpt lat="43.4273" lon="6.04229">
        <ele>354.20001220703</ele>
        <time>2013-12-21T14:35:10Z</time>
      </trkpt>
      <trkpt lat="43.4273" lon="6.04229">
        <ele>354.20001220703</ele>
        <time>2013-12-21T14:35:17Z</time>
      </trkpt>
      <trkpt lat="43.42731" lon="6.0423">
        <ele>354.20001220703</ele>
        <time>2013-12-21T14:35:20Z</time>
      </trkpt>
      <trkpt lat="43.42732" lon="6.0423">
        <ele>354.20001220703</ele>
        <time>2013-12-21T14:35:22Z</time>
      </trkpt>
      <trkpt lat="43.42736" lon="6.04232">
        <ele>354.20001220703</ele>
        <time>2013-12-21T14:35:29Z</time>
      </trkpt>
      <trkpt lat="43.42739" lon="6.04235">
        <ele>354.20001220703</ele>
        <time>2013-12-21T14:35:35Z</time>
      </trkpt>
      <trkpt lat="43.42739" lon="6.04235">
        <ele>354.20001220703</ele>
        <time>2013-12-21T14:35:44Z</time>
      </trkpt>
      <trkpt lat="43.42738" lon="6.04235">
        <ele>354.20001220703</ele>
        <time>2013-12-21T14:35:52Z</time>
      </trkpt>
      <trkpt lat="43.42738" lon="6.04235">
        <ele>354.20001220703</ele>
        <time>2013-12-21T14:35:59Z</time>
      </trkpt>
      <trkpt lat="43.42738" lon="6.04235">
        <ele>354.20001220703</ele>
        <time>2013-12-21T14:36:00Z</time>
      </trkpt>
      <trkpt lat="43.42735" lon="6.04231">
        <ele>354.20001220703</ele>
        <time>2013-12-21T14:36:04Z</time>
      </trkpt>
      <trkpt lat="43.42733" lon="6.04229">
        <ele>354.20001220703</ele>
        <time>2013-12-21T14:36:06Z</time>
      </trkpt>
      <trkpt lat="43.42731" lon="6.04228">
        <ele>354.20001220703</ele>
        <time>2013-12-21T14:36:07Z</time>
      </trkpt>
      <trkpt lat="43.42728" lon="6.04232">
        <ele>354.20001220703</ele>
        <time>2013-12-21T14:36:10Z</time>
      </trkpt>
      <trkpt lat="43.42727" lon="6.04235">
        <ele>354.20001220703</ele>
        <time>2013-12-21T14:36:15Z</time>
      </trkpt>
      <trkpt lat="43.42727" lon="6.04236">
        <ele>354.20001220703</ele>
        <time>2013-12-21T14:36:17Z</time>
      </trkpt>
      <trkpt lat="43.42727" lon="6.04237">
        <ele>354.20001220703</ele>
        <time>2013-12-21T14:36:19Z</time>
      </trkpt>
      <trkpt lat="43.42727" lon="6.04238">
        <ele>354.20001220703</ele>
        <time>2013-12-21T14:36:23Z</time>
      </trkpt>
      <trkpt lat="43.42727" lon="6.0424">
        <ele>354.20001220703</ele>
        <time>2013-12-21T14:36:24Z</time>
      </trkpt>
      <trkpt lat="43.42724" lon="6.04248">
        <ele>354.20001220703</ele>
        <time>2013-12-21T14:36:29Z</time>
      </trkpt>
      <trkpt lat="43.42723" lon="6.04252">
        <ele>353.79998779297</ele>
        <time>2013-12-21T14:36:33Z</time>
      </trkpt>
      <trkpt lat="43.42723" lon="6.04252">
        <ele>352</ele>
        <time>2013-12-21T14:36:42Z</time>
      </trkpt>
      <trkpt lat="43.42722" lon="6.04252">
        <ele>352</ele>
        <time>2013-12-21T14:36:50Z</time>
      </trkpt>
      <trkpt lat="43.42722" lon="6.04252">
        <ele>352</ele>
        <time>2013-12-21T14:37:04Z</time>
      </trkpt>
      <trkpt lat="43.42722" lon="6.04253">
        <ele>352</ele>
        <time>2013-12-21T14:37:31Z</time>
      </trkpt>
      <trkpt lat="43.42722" lon="6.04253">
        <ele>352</ele>
        <time>2013-12-21T14:37:38Z</time>
      </trkpt>
      <trkpt lat="43.42722" lon="6.04253">
        <ele>352</ele>
        <time>2013-12-21T14:37:40Z</time>
      </trkpt>
      <trkpt lat="43.42721" lon="6.04253">
        <ele>352</ele>
        <time>2013-12-21T14:37:49Z</time>
      </trkpt>
      <trkpt lat="43.4272" lon="6.04254">
        <ele>352</ele>
        <time>2013-12-21T14:37:50Z</time>
      </trkpt>
      <trkpt lat="43.42717" lon="6.04256">
        <ele>352</ele>
        <time>2013-12-21T14:37:53Z</time>
      </trkpt>
      <trkpt lat="43.42715" lon="6.04257">
        <ele>352</ele>
        <time>2013-12-21T14:37:54Z</time>
      </trkpt>
      <trkpt lat="43.42712" lon="6.04259">
        <ele>351.60000610352</ele>
        <time>2013-12-21T14:37:57Z</time>
      </trkpt>
      <trkpt lat="43.42711" lon="6.04259">
        <ele>351.20001220703</ele>
        <time>2013-12-21T14:37:58Z</time>
      </trkpt>
      <trkpt lat="43.42706" lon="6.04261">
        <ele>350</ele>
        <time>2013-12-21T14:38:01Z</time>
      </trkpt>
      <trkpt lat="43.42702" lon="6.04262">
        <ele>349.39999389648</ele>
        <time>2013-12-21T14:38:03Z</time>
      </trkpt>
      <trkpt lat="43.42701" lon="6.04263">
        <ele>349</ele>
        <time>2013-12-21T14:38:04Z</time>
      </trkpt>
      <trkpt lat="43.42692" lon="6.04266">
        <ele>347</ele>
        <time>2013-12-21T14:38:08Z</time>
      </trkpt>
      <trkpt lat="43.4269" lon="6.04267">
        <ele>346.39999389648</ele>
        <time>2013-12-21T14:38:09Z</time>
      </trkpt>
      <trkpt lat="43.42687" lon="6.04269">
        <ele>345.79998779297</ele>
        <time>2013-12-21T14:38:10Z</time>
      </trkpt>
      <trkpt lat="43.42685" lon="6.0427">
        <ele>345.20001220703</ele>
        <time>2013-12-21T14:38:11Z</time>
      </trkpt>
      <trkpt lat="43.42682" lon="6.04272">
        <ele>344.60000610352</ele>
        <time>2013-12-21T14:38:12Z</time>
      </trkpt>
      <trkpt lat="43.42678" lon="6.04274">
        <ele>344</ele>
        <time>2013-12-21T14:38:13Z</time>
      </trkpt>
      <trkpt lat="43.42674" lon="6.04276">
        <ele>343</ele>
        <time>2013-12-21T14:38:14Z</time>
      </trkpt>
      <trkpt lat="43.4267" lon="6.04279">
        <ele>342.20001220703</ele>
        <time>2013-12-21T14:38:15Z</time>
      </trkpt>
      <trkpt lat="43.42665" lon="6.04281">
        <ele>341.39999389648</ele>
        <time>2013-12-21T14:38:16Z</time>
      </trkpt>
      <trkpt lat="43.42661" lon="6.04283">
        <ele>340.39999389648</ele>
        <time>2013-12-21T14:38:17Z</time>
      </trkpt>
      <trkpt lat="43.42657" lon="6.04285">
        <ele>338.39999389648</ele>
        <time>2013-12-21T14:38:18Z</time>
      </trkpt>
      <trkpt lat="43.42653" lon="6.04287">
        <ele>337.20001220703</ele>
        <time>2013-12-21T14:38:19Z</time>
      </trkpt>
      <trkpt lat="43.42651" lon="6.04288">
        <ele>336</ele>
        <time>2013-12-21T14:38:20Z</time>
      </trkpt>
      <trkpt lat="43.42649" lon="6.04289">
        <ele>334.79998779297</ele>
        <time>2013-12-21T14:38:21Z</time>
      </trkpt>
      <trkpt lat="43.42646" lon="6.04291">
        <ele>334.20001220703</ele>
        <time>2013-12-21T14:38:22Z</time>
      </trkpt>
      <trkpt lat="43.42645" lon="6.04294">
        <ele>333.39999389648</ele>
        <time>2013-12-21T14:38:23Z</time>
      </trkpt>
      <trkpt lat="43.42645" lon="6.04296">
        <ele>332.79998779297</ele>
        <time>2013-12-21T14:38:24Z</time>
      </trkpt>
      <trkpt lat="43.42646" lon="6.04296">
        <ele>331.39999389648</ele>
        <time>2013-12-21T14:38:26Z</time>
      </trkpt>
      <trkpt lat="43.42646" lon="6.04297">
        <ele>331.39999389648</ele>
        <time>2013-12-21T14:38:28Z</time>
      </trkpt>
      <trkpt lat="43.42646" lon="6.04297">
        <ele>331.39999389648</ele>
        <time>2013-12-21T14:38:32Z</time>
      </trkpt>
      <trkpt lat="43.42647" lon="6.04296">
        <ele>331.39999389648</ele>
        <time>2013-12-21T14:38:34Z</time>
      </trkpt>
      <trkpt lat="43.42646" lon="6.04297">
        <ele>331.39999389648</ele>
        <time>2013-12-21T14:38:36Z</time>
      </trkpt>
      <trkpt lat="43.42646" lon="6.04302">
        <ele>331.39999389648</ele>
        <time>2013-12-21T14:38:40Z</time>
      </trkpt>
      <trkpt lat="43.42645" lon="6.04302">
        <ele>331.39999389648</ele>
        <time>2013-12-21T14:38:44Z</time>
      </trkpt>
      <trkpt lat="43.42645" lon="6.04302">
        <ele>331.39999389648</ele>
        <time>2013-12-21T14:38:57Z</time>
      </trkpt>
      <trkpt lat="43.42644" lon="6.04302">
        <ele>331.39999389648</ele>
        <time>2013-12-21T14:39:07Z</time>
      </trkpt>
      <trkpt lat="43.42644" lon="6.04302">
        <ele>331.39999389648</ele>
        <time>2013-12-21T14:39:09Z</time>
      </trkpt>
      <trkpt lat="43.42644" lon="6.04302">
        <ele>331.39999389648</ele>
        <time>2013-12-21T14:39:12Z</time>
      </trkpt>
      <trkpt lat="43.42642" lon="6.04302">
        <ele>331.39999389648</ele>
        <time>2013-12-21T14:39:20Z</time>
      </trkpt>
      <trkpt lat="43.4264" lon="6.04301">
        <ele>331.39999389648</ele>
        <time>2013-12-21T14:39:23Z</time>
      </trkpt>
      <trkpt lat="43.42636" lon="6.04301">
        <ele>331.39999389648</ele>
        <time>2013-12-21T14:39:27Z</time>
      </trkpt>
      <trkpt lat="43.42634" lon="6.04307">
        <ele>331.39999389648</ele>
        <time>2013-12-21T14:39:33Z</time>
      </trkpt>
      <trkpt lat="43.42631" lon="6.04309">
        <ele>332.20001220703</ele>
        <time>2013-12-21T14:39:39Z</time>
      </trkpt>
      <trkpt lat="43.4263" lon="6.04309">
        <ele>333.20001220703</ele>
        <time>2013-12-21T14:39:41Z</time>
      </trkpt>
      <trkpt lat="43.42625" lon="6.04311">
        <ele>333.60000610352</ele>
        <time>2013-12-21T14:39:47Z</time>
      </trkpt>
      <trkpt lat="43.42623" lon="6.04313">
        <ele>333.60000610352</ele>
        <time>2013-12-21T14:39:50Z</time>
      </trkpt>
      <trkpt lat="43.42621" lon="6.04314">
        <ele>333.60000610352</ele>
        <time>2013-12-21T14:39:52Z</time>
      </trkpt>
      <trkpt lat="43.42615" lon="6.04316">
        <ele>334</ele>
        <time>2013-12-21T14:39:58Z</time>
      </trkpt>
      <trkpt lat="43.42614" lon="6.04316">
        <ele>334.79998779297</ele>
        <time>2013-12-21T14:40:00Z</time>
      </trkpt>
      <trkpt lat="43.4261" lon="6.04316">
        <ele>335.60000610352</ele>
        <time>2013-12-21T14:40:07Z</time>
      </trkpt>
      <trkpt lat="43.42604" lon="6.04318">
        <ele>337.20001220703</ele>
        <time>2013-12-21T14:40:17Z</time>
      </trkpt>
      <trkpt lat="43.42603" lon="6.04318">
        <ele>337.60000610352</ele>
        <time>2013-12-21T14:40:18Z</time>
      </trkpt>
      <trkpt lat="43.42601" lon="6.04319">
        <ele>337.60000610352</ele>
        <time>2013-12-21T14:40:22Z</time>
      </trkpt>
      <trkpt lat="43.42598" lon="6.0432">
        <ele>338</ele>
        <time>2013-12-21T14:40:29Z</time>
      </trkpt>
      <trkpt lat="43.42598" lon="6.0432">
        <ele>338.60000610352</ele>
        <time>2013-12-21T14:40:30Z</time>
      </trkpt>
      <trkpt lat="43.42596" lon="6.04321">
        <ele>339.79998779297</ele>
        <time>2013-12-21T14:40:33Z</time>
      </trkpt>
      <trkpt lat="43.42595" lon="6.04322">
        <ele>339.79998779297</ele>
        <time>2013-12-21T14:40:36Z</time>
      </trkpt>
      <trkpt lat="43.42591" lon="6.04324">
        <ele>339.79998779297</ele>
        <time>2013-12-21T14:40:43Z</time>
      </trkpt>
      <trkpt lat="43.42589" lon="6.04325">
        <ele>340.60000610352</ele>
        <time>2013-12-21T14:40:49Z</time>
      </trkpt>
      <trkpt lat="43.42586" lon="6.04326">
        <ele>341.79998779297</ele>
        <time>2013-12-21T14:40:52Z</time>
      </trkpt>
      <trkpt lat="43.42582" lon="6.04328">
        <ele>341.79998779297</ele>
        <time>2013-12-21T14:40:59Z</time>
      </trkpt>
      <trkpt lat="43.42579" lon="6.04333">
        <ele>342.60000610352</ele>
        <time>2013-12-21T14:41:07Z</time>
      </trkpt>
      <trkpt lat="43.42579" lon="6.04333">
        <ele>343</ele>
        <time>2013-12-21T14:41:08Z</time>
      </trkpt>
      <trkpt lat="43.42578" lon="6.04334">
        <ele>343.79998779297</ele>
        <time>2013-12-21T14:41:11Z</time>
      </trkpt>
      <trkpt lat="43.42575" lon="6.04335">
        <ele>343.79998779297</ele>
        <time>2013-12-21T14:41:17Z</time>
      </trkpt>
      <trkpt lat="43.42575" lon="6.04335">
        <ele>343.79998779297</ele>
        <time>2013-12-21T14:41:24Z</time>
      </trkpt>
      <trkpt lat="43.42575" lon="6.04335">
        <ele>343.79998779297</ele>
        <time>2013-12-21T14:41:25Z</time>
      </trkpt>
      <trkpt lat="43.4257" lon="6.04332">
        <ele>344.20001220703</ele>
        <time>2013-12-21T14:41:36Z</time>
      </trkpt>
      <trkpt lat="43.42569" lon="6.04332">
        <ele>344.60000610352</ele>
        <time>2013-12-21T14:41:37Z</time>
      </trkpt>
      <trkpt lat="43.42567" lon="6.04332">
        <ele>345.79998779297</ele>
        <time>2013-12-21T14:41:40Z</time>
      </trkpt>
      <trkpt lat="43.42563" lon="6.04333">
        <ele>345.79998779297</ele>
        <time>2013-12-21T14:41:49Z</time>
      </trkpt>
      <trkpt lat="43.42558" lon="6.04334">
        <ele>345.79998779297</ele>
        <time>2013-12-21T14:41:57Z</time>
      </trkpt>
      <trkpt lat="43.42553" lon="6.04335">
        <ele>345.79998779297</ele>
        <time>2013-12-21T14:42:03Z</time>
      </trkpt>
      <trkpt lat="43.42551" lon="6.04336">
        <ele>348</ele>
        <time>2013-12-21T14:42:08Z</time>
      </trkpt>
      <trkpt lat="43.42549" lon="6.04337">
        <ele>348</ele>
        <time>2013-12-21T14:42:15Z</time>
      </trkpt>
      <trkpt lat="43.42546" lon="6.04337">
        <ele>348</ele>
        <time>2013-12-21T14:42:22Z</time>
      </trkpt>
      <trkpt lat="43.42542" lon="6.04337">
        <ele>348</ele>
        <time>2013-12-21T14:42:29Z</time>
      </trkpt>
      <trkpt lat="43.42542" lon="6.04337">
        <ele>348</ele>
        <time>2013-12-21T14:42:51Z</time>
      </trkpt>
      <trkpt lat="43.42542" lon="6.04337">
        <ele>349.60000610352</ele>
        <time>2013-12-21T14:42:57Z</time>
      </trkpt>
      <trkpt lat="43.42542" lon="6.04337">
        <ele>350</ele>
        <time>2013-12-21T14:42:58Z</time>
      </trkpt>
      <trkpt lat="43.42542" lon="6.04337">
        <ele>350</ele>
        <time>2013-12-21T14:43:01Z</time>
      </trkpt>
      <trkpt lat="43.42537" lon="6.04337">
        <ele>350</ele>
        <time>2013-12-21T14:43:08Z</time>
      </trkpt>
      <trkpt lat="43.42527" lon="6.04339">
        <ele>350</ele>
        <time>2013-12-21T14:43:13Z</time>
      </trkpt>
      <trkpt lat="43.42526" lon="6.04339">
        <ele>350</ele>
        <time>2013-12-21T14:43:14Z</time>
      </trkpt>
      <trkpt lat="43.42519" lon="6.04339">
        <ele>350</ele>
        <time>2013-12-21T14:43:18Z</time>
      </trkpt>
      <trkpt lat="43.42518" lon="6.04338">
        <ele>350</ele>
        <time>2013-12-21T14:43:19Z</time>
      </trkpt>
      <trkpt lat="43.42515" lon="6.04335">
        <ele>350</ele>
        <time>2013-12-21T14:43:21Z</time>
      </trkpt>
      <trkpt lat="43.42507" lon="6.04331">
        <ele>350</ele>
        <time>2013-12-21T14:43:25Z</time>
      </trkpt>
      <trkpt lat="43.42505" lon="6.0433">
        <ele>350</ele>
        <time>2013-12-21T14:43:26Z</time>
      </trkpt>
      <trkpt lat="43.42498" lon="6.04327">
        <ele>350.39999389648</ele>
        <time>2013-12-21T14:43:30Z</time>
      </trkpt>
      <trkpt lat="43.42497" lon="6.04325">
        <ele>350.79998779297</ele>
        <time>2013-12-21T14:43:31Z</time>
      </trkpt>
      <trkpt lat="43.42497" lon="6.04325">
        <ele>351.20001220703</ele>
        <time>2013-12-21T14:43:32Z</time>
      </trkpt>
      <trkpt lat="43.42496" lon="6.04325">
        <ele>351.60000610352</ele>
        <time>2013-12-21T14:43:33Z</time>
      </trkpt>
      <trkpt lat="43.42496" lon="6.04325">
        <ele>352.20001220703</ele>
        <time>2013-12-21T14:43:34Z</time>
      </trkpt>
      <trkpt lat="43.42492" lon="6.04325">
        <ele>352.20001220703</ele>
        <time>2013-12-21T14:43:40Z</time>
      </trkpt>
      <trkpt lat="43.42487" lon="6.04322">
        <ele>352.20001220703</ele>
        <time>2013-12-21T14:43:47Z</time>
      </trkpt>
      <trkpt lat="43.42487" lon="6.04322">
        <ele>352.20001220703</ele>
        <time>2013-12-21T14:43:51Z</time>
      </trkpt>
      <trkpt lat="43.42487" lon="6.04322">
        <ele>352.20001220703</ele>
        <time>2013-12-21T14:43:53Z</time>
      </trkpt>
      <trkpt lat="43.42486" lon="6.04323">
        <ele>352.20001220703</ele>
        <time>2013-12-21T14:43:58Z</time>
      </trkpt>
      <trkpt lat="43.42486" lon="6.04323">
        <ele>352.60000610352</ele>
        <time>2013-12-21T14:44:00Z</time>
      </trkpt>
      <trkpt lat="43.42486" lon="6.04323">
        <ele>353.39999389648</ele>
        <time>2013-12-21T14:44:02Z</time>
      </trkpt>
      <trkpt lat="43.42485" lon="6.04322">
        <ele>354.20001220703</ele>
        <time>2013-12-21T14:44:04Z</time>
      </trkpt>
      <trkpt lat="43.42483" lon="6.04321">
        <ele>354.20001220703</ele>
        <time>2013-12-21T14:44:10Z</time>
      </trkpt>
      <trkpt lat="43.42478" lon="6.04319">
        <ele>354.20001220703</ele>
        <time>2013-12-21T14:44:13Z</time>
      </trkpt>
      <trkpt lat="43.42476" lon="6.04317">
        <ele>354.20001220703</ele>
        <time>2013-12-21T14:44:15Z</time>
      </trkpt>
      <trkpt lat="43.42468" lon="6.04313">
        <ele>354.20001220703</ele>
        <time>2013-12-21T14:44:21Z</time>
      </trkpt>
      <trkpt lat="43.42468" lon="6.04314">
        <ele>354.20001220703</ele>
        <time>2013-12-21T14:44:27Z</time>
      </trkpt>
      <trkpt lat="43.42468" lon="6.04314">
        <ele>354.20001220703</ele>
        <time>2013-12-21T14:44:33Z</time>
      </trkpt>
      <trkpt lat="43.42467" lon="6.04314">
        <ele>354.20001220703</ele>
        <time>2013-12-21T14:44:34Z</time>
      </trkpt>
      <trkpt lat="43.42467" lon="6.04317">
        <ele>354.20001220703</ele>
        <time>2013-12-21T14:44:36Z</time>
      </trkpt>
      <trkpt lat="43.42467" lon="6.04319">
        <ele>354.20001220703</ele>
        <time>2013-12-21T14:44:37Z</time>
      </trkpt>
      <trkpt lat="43.42466" lon="6.04329">
        <ele>354.20001220703</ele>
        <time>2013-12-21T14:44:43Z</time>
      </trkpt>
      <trkpt lat="43.42465" lon="6.04332">
        <ele>354.20001220703</ele>
        <time>2013-12-21T14:44:47Z</time>
      </trkpt>
      <trkpt lat="43.42464" lon="6.04338">
        <ele>354.20001220703</ele>
        <time>2013-12-21T14:44:52Z</time>
      </trkpt>
      <trkpt lat="43.42464" lon="6.0434">
        <ele>354.20001220703</ele>
        <time>2013-12-21T14:44:53Z</time>
      </trkpt>
      <trkpt lat="43.42463" lon="6.04348">
        <ele>354.20001220703</ele>
        <time>2013-12-21T14:44:57Z</time>
      </trkpt>
      <trkpt lat="43.42461" lon="6.04354">
        <ele>354.20001220703</ele>
        <time>2013-12-21T14:45:01Z</time>
      </trkpt>
      <trkpt lat="43.42461" lon="6.04357">
        <ele>354.20001220703</ele>
        <time>2013-12-21T14:45:03Z</time>
      </trkpt>
      <trkpt lat="43.42461" lon="6.04366">
        <ele>354.20001220703</ele>
        <time>2013-12-21T14:45:09Z</time>
      </trkpt>
      <trkpt lat="43.42463" lon="6.04373">
        <ele>354.20001220703</ele>
        <time>2013-12-21T14:45:13Z</time>
      </trkpt>
      <trkpt lat="43.42462" lon="6.04375">
        <ele>354.20001220703</ele>
        <time>2013-12-21T14:45:15Z</time>
      </trkpt>
      <trkpt lat="43.42462" lon="6.04375">
        <ele>356.20001220703</ele>
        <time>2013-12-21T14:45:28Z</time>
      </trkpt>
      <trkpt lat="43.42462" lon="6.04376">
        <ele>356.20001220703</ele>
        <time>2013-12-21T14:45:31Z</time>
      </trkpt>
      <trkpt lat="43.42462" lon="6.04376">
        <ele>356.20001220703</ele>
        <time>2013-12-21T14:45:54Z</time>
      </trkpt>
      <trkpt lat="43.42462" lon="6.04376">
        <ele>356.20001220703</ele>
        <time>2013-12-21T14:46:11Z</time>
      </trkpt>
      <trkpt lat="43.42462" lon="6.04376">
        <ele>356.20001220703</ele>
        <time>2013-12-21T14:46:27Z</time>
      </trkpt>
      <trkpt lat="43.42463" lon="6.04381">
        <ele>356.20001220703</ele>
        <time>2013-12-21T14:46:32Z</time>
      </trkpt>
      <trkpt lat="43.42461" lon="6.04398">
        <ele>356.20001220703</ele>
        <time>2013-12-21T14:46:38Z</time>
      </trkpt>
      <trkpt lat="43.42456" lon="6.04407">
        <ele>355.60000610352</ele>
        <time>2013-12-21T14:46:41Z</time>
      </trkpt>
      <trkpt lat="43.42456" lon="6.0441">
        <ele>355.20001220703</ele>
        <time>2013-12-21T14:46:42Z</time>
      </trkpt>
      <trkpt lat="43.42455" lon="6.04413">
        <ele>354.79998779297</ele>
        <time>2013-12-21T14:46:43Z</time>
      </trkpt>
      <trkpt lat="43.42454" lon="6.04417">
        <ele>354.20001220703</ele>
        <time>2013-12-21T14:46:44Z</time>
      </trkpt>
      <trkpt lat="43.42452" lon="6.04426">
        <ele>353.20001220703</ele>
        <time>2013-12-21T14:46:46Z</time>
      </trkpt>
      <trkpt lat="43.42451" lon="6.04431">
        <ele>352.39999389648</ele>
        <time>2013-12-21T14:46:48Z</time>
      </trkpt>
      <trkpt lat="43.4245" lon="6.04434">
        <ele>352</ele>
        <time>2013-12-21T14:46:49Z</time>
      </trkpt>
      <trkpt lat="43.42449" lon="6.04436">
        <ele>351.39999389648</ele>
        <time>2013-12-21T14:46:50Z</time>
      </trkpt>
      <trkpt lat="43.42448" lon="6.04441">
        <ele>350.60000610352</ele>
        <time>2013-12-21T14:46:52Z</time>
      </trkpt>
      <trkpt lat="43.42452" lon="6.04451">
        <ele>348.39999389648</ele>
        <time>2013-12-21T14:46:56Z</time>
      </trkpt>
      <trkpt lat="43.42456" lon="6.04456">
        <ele>347.20001220703</ele>
        <time>2013-12-21T14:46:59Z</time>
      </trkpt>
      <trkpt lat="43.42459" lon="6.04465">
        <ele>347.20001220703</ele>
        <time>2013-12-21T14:47:04Z</time>
      </trkpt>
      <trkpt lat="43.42462" lon="6.04467">
        <ele>347.20001220703</ele>
        <time>2013-12-21T14:47:06Z</time>
      </trkpt>
      <trkpt lat="43.42467" lon="6.04468">
        <ele>347.20001220703</ele>
        <time>2013-12-21T14:47:10Z</time>
      </trkpt>
      <trkpt lat="43.42471" lon="6.04471">
        <ele>347.20001220703</ele>
        <time>2013-12-21T14:47:13Z</time>
      </trkpt>
      <trkpt lat="43.42471" lon="6.04472">
        <ele>347.20001220703</ele>
        <time>2013-12-21T14:47:14Z</time>
      </trkpt>
      <trkpt lat="43.42471" lon="6.04471">
        <ele>347.20001220703</ele>
        <time>2013-12-21T14:47:15Z</time>
      </trkpt>
      <trkpt lat="43.42471" lon="6.04471">
        <ele>347.20001220703</ele>
        <time>2013-12-21T14:47:17Z</time>
      </trkpt>
      <trkpt lat="43.42471" lon="6.04471">
        <ele>347.20001220703</ele>
        <time>2013-12-21T14:47:19Z</time>
      </trkpt>
      <trkpt lat="43.42471" lon="6.04474">
        <ele>347.20001220703</ele>
        <time>2013-12-21T14:47:21Z</time>
      </trkpt>
      <trkpt lat="43.42472" lon="6.0448">
        <ele>347.20001220703</ele>
        <time>2013-12-21T14:47:23Z</time>
      </trkpt>
      <trkpt lat="43.42479" lon="6.04495">
        <ele>345.79998779297</ele>
        <time>2013-12-21T14:47:28Z</time>
      </trkpt>
      <trkpt lat="43.4248" lon="6.04497">
        <ele>345.20001220703</ele>
        <time>2013-12-21T14:47:29Z</time>
      </trkpt>
      <trkpt lat="43.4248" lon="6.04501">
        <ele>344.79998779297</ele>
        <time>2013-12-21T14:47:30Z</time>
      </trkpt>
      <trkpt lat="43.42481" lon="6.04505">
        <ele>344.79998779297</ele>
        <time>2013-12-21T14:47:31Z</time>
      </trkpt>
      <trkpt lat="43.42479" lon="6.04528">
        <ele>342.20001220703</ele>
        <time>2013-12-21T14:47:39Z</time>
      </trkpt>
      <trkpt lat="43.42478" lon="6.0453">
        <ele>341.60000610352</ele>
        <time>2013-12-21T14:47:40Z</time>
      </trkpt>
      <trkpt lat="43.42479" lon="6.04536">
        <ele>340.20001220703</ele>
        <time>2013-12-21T14:47:43Z</time>
      </trkpt>
      <trkpt lat="43.42478" lon="6.04539">
        <ele>339.79998779297</ele>
        <time>2013-12-21T14:47:44Z</time>
      </trkpt>
      <trkpt lat="43.42477" lon="6.04544">
        <ele>338.39999389648</ele>
        <time>2013-12-21T14:47:46Z</time>
      </trkpt>
      <trkpt lat="43.42471" lon="6.04558">
        <ele>336.20001220703</ele>
        <time>2013-12-21T14:47:53Z</time>
      </trkpt>
      <trkpt lat="43.42472" lon="6.0456">
        <ele>336.20001220703</ele>
        <time>2013-12-21T14:47:54Z</time>
      </trkpt>
      <trkpt lat="43.42474" lon="6.04563">
        <ele>335.20001220703</ele>
        <time>2013-12-21T14:47:56Z</time>
      </trkpt>
      <trkpt lat="43.42474" lon="6.04566">
        <ele>334.79998779297</ele>
        <time>2013-12-21T14:47:57Z</time>
      </trkpt>
      <trkpt lat="43.42474" lon="6.04568">
        <ele>334.39999389648</ele>
        <time>2013-12-21T14:47:58Z</time>
      </trkpt>
      <trkpt lat="43.42473" lon="6.0457">
        <ele>334</ele>
        <time>2013-12-21T14:47:59Z</time>
      </trkpt>
      <trkpt lat="43.4247" lon="6.04576">
        <ele>334</ele>
        <time>2013-12-21T14:48:02Z</time>
      </trkpt>
      <trkpt lat="43.42467" lon="6.04582">
        <ele>333.60000610352</ele>
        <time>2013-12-21T14:48:04Z</time>
      </trkpt>
      <trkpt lat="43.42467" lon="6.04584">
        <ele>333</ele>
        <time>2013-12-21T14:48:05Z</time>
      </trkpt>
      <trkpt lat="43.42467" lon="6.04587">
        <ele>332.60000610352</ele>
        <time>2013-12-21T14:48:06Z</time>
      </trkpt>
      <trkpt lat="43.42466" lon="6.04594">
        <ele>331.79998779297</ele>
        <time>2013-12-21T14:48:08Z</time>
      </trkpt>
      <trkpt lat="43.42462" lon="6.046">
        <ele>330.39999389648</ele>
        <time>2013-12-21T14:48:10Z</time>
      </trkpt>
      <trkpt lat="43.4246" lon="6.04606">
        <ele>329.39999389648</ele>
        <time>2013-12-21T14:48:12Z</time>
      </trkpt>
      <trkpt lat="43.42459" lon="6.04608">
        <ele>329</ele>
        <time>2013-12-21T14:48:13Z</time>
      </trkpt>
      <trkpt lat="43.42457" lon="6.04609">
        <ele>328.60000610352</ele>
        <time>2013-12-21T14:48:14Z</time>
      </trkpt>
      <trkpt lat="43.42455" lon="6.04611">
        <ele>327.79998779297</ele>
        <time>2013-12-21T14:48:16Z</time>
      </trkpt>
      <trkpt lat="43.42454" lon="6.04613">
        <ele>327.39999389648</ele>
        <time>2013-12-21T14:48:17Z</time>
      </trkpt>
      <trkpt lat="43.42453" lon="6.04617">
        <ele>327.39999389648</ele>
        <time>2013-12-21T14:48:19Z</time>
      </trkpt>
      <trkpt lat="43.42452" lon="6.04619">
        <ele>327</ele>
        <time>2013-12-21T14:48:20Z</time>
      </trkpt>
      <trkpt lat="43.42451" lon="6.04624">
        <ele>326.20001220703</ele>
        <time>2013-12-21T14:48:22Z</time>
      </trkpt>
      <trkpt lat="43.42451" lon="6.04629">
        <ele>325.20001220703</ele>
        <time>2013-12-21T14:48:24Z</time>
      </trkpt>
      <trkpt lat="43.42452" lon="6.04635">
        <ele>324.79998779297</ele>
        <time>2013-12-21T14:48:26Z</time>
      </trkpt>
      <trkpt lat="43.42451" lon="6.04637">
        <ele>324.39999389648</ele>
        <time>2013-12-21T14:48:27Z</time>
      </trkpt>
      <trkpt lat="43.42451" lon="6.04637">
        <ele>323.79998779297</ele>
        <time>2013-12-21T14:48:28Z</time>
      </trkpt>
      <trkpt lat="43.42451" lon="6.04637">
        <ele>323</ele>
        <time>2013-12-21T14:48:30Z</time>
      </trkpt>
      <trkpt lat="43.4245" lon="6.04636">
        <ele>323</ele>
        <time>2013-12-21T14:48:34Z</time>
      </trkpt>
      <trkpt lat="43.4245" lon="6.04636">
        <ele>323</ele>
        <time>2013-12-21T14:48:35Z</time>
      </trkpt>
      <trkpt lat="43.42451" lon="6.04635">
        <ele>323</ele>
        <time>2013-12-21T14:48:37Z</time>
      </trkpt>
      <trkpt lat="43.42451" lon="6.04635">
        <ele>323</ele>
        <time>2013-12-21T14:48:39Z</time>
      </trkpt>
      <trkpt lat="43.42451" lon="6.04635">
        <ele>323</ele>
        <time>2013-12-21T14:48:51Z</time>
      </trkpt>
      <trkpt lat="43.4245" lon="6.04636">
        <ele>323</ele>
        <time>2013-12-21T14:48:55Z</time>
      </trkpt>
      <trkpt lat="43.4245" lon="6.04636">
        <ele>323</ele>
        <time>2013-12-21T14:48:58Z</time>
      </trkpt>
      <trkpt lat="43.4245" lon="6.04638">
        <ele>323</ele>
        <time>2013-12-21T14:49:01Z</time>
      </trkpt>
      <trkpt lat="43.42447" lon="6.04648">
        <ele>323</ele>
        <time>2013-12-21T14:49:04Z</time>
      </trkpt>
      <trkpt lat="43.42445" lon="6.04655">
        <ele>322.39999389648</ele>
        <time>2013-12-21T14:49:06Z</time>
      </trkpt>
      <trkpt lat="43.42443" lon="6.04658">
        <ele>322</ele>
        <time>2013-12-21T14:49:07Z</time>
      </trkpt>
      <trkpt lat="43.42442" lon="6.0466">
        <ele>321.60000610352</ele>
        <time>2013-12-21T14:49:08Z</time>
      </trkpt>
      <trkpt lat="43.42441" lon="6.04662">
        <ele>321.20001220703</ele>
        <time>2013-12-21T14:49:09Z</time>
      </trkpt>
      <trkpt lat="43.42439" lon="6.04665">
        <ele>320.79998779297</ele>
        <time>2013-12-21T14:49:10Z</time>
      </trkpt>
      <trkpt lat="43.42437" lon="6.04671">
        <ele>320.79998779297</ele>
        <time>2013-12-21T14:49:12Z</time>
      </trkpt>
      <trkpt lat="43.42435" lon="6.04671">
        <ele>320.20001220703</ele>
        <time>2013-12-21T14:49:13Z</time>
      </trkpt>
      <trkpt lat="43.42434" lon="6.04672">
        <ele>319.79998779297</ele>
        <time>2013-12-21T14:49:14Z</time>
      </trkpt>
      <trkpt lat="43.4243" lon="6.04671">
        <ele>318.39999389648</ele>
        <time>2013-12-21T14:49:17Z</time>
      </trkpt>
      <trkpt lat="43.42428" lon="6.04669">
        <ele>318.39999389648</ele>
        <time>2013-12-21T14:49:19Z</time>
      </trkpt>
      <trkpt lat="43.42424" lon="6.04668">
        <ele>318.39999389648</ele>
        <time>2013-12-21T14:49:22Z</time>
      </trkpt>
      <trkpt lat="43.42417" lon="6.04674">
        <ele>318.39999389648</ele>
        <time>2013-12-21T14:49:28Z</time>
      </trkpt>
      <trkpt lat="43.42416" lon="6.04676">
        <ele>318.39999389648</ele>
        <time>2013-12-21T14:49:29Z</time>
      </trkpt>
      <trkpt lat="43.42412" lon="6.04684">
        <ele>318.39999389648</ele>
        <time>2013-12-21T14:49:34Z</time>
      </trkpt>
      <trkpt lat="43.42409" lon="6.04692">
        <ele>318.39999389648</ele>
        <time>2013-12-21T14:49:39Z</time>
      </trkpt>
      <trkpt lat="43.42402" lon="6.04702">
        <ele>319.20001220703</ele>
        <time>2013-12-21T14:49:46Z</time>
      </trkpt>
      <trkpt lat="43.42401" lon="6.04709">
        <ele>320.39999389648</ele>
        <time>2013-12-21T14:49:49Z</time>
      </trkpt>
      <trkpt lat="43.42397" lon="6.04715">
        <ele>320.39999389648</ele>
        <time>2013-12-21T14:49:53Z</time>
      </trkpt>
      <trkpt lat="43.4239" lon="6.04719">
        <ele>320.39999389648</ele>
        <time>2013-12-21T14:49:58Z</time>
      </trkpt>
      <trkpt lat="43.42385" lon="6.04721">
        <ele>320.79998779297</ele>
        <time>2013-12-21T14:50:02Z</time>
      </trkpt>
      <trkpt lat="43.42385" lon="6.04722">
        <ele>321.20001220703</ele>
        <time>2013-12-21T14:50:03Z</time>
      </trkpt>
      <trkpt lat="43.42385" lon="6.04727">
        <ele>322</ele>
        <time>2013-12-21T14:50:05Z</time>
      </trkpt>
      <trkpt lat="43.42385" lon="6.04732">
        <ele>322.39999389648</ele>
        <time>2013-12-21T14:50:07Z</time>
      </trkpt>
      <trkpt lat="43.42385" lon="6.04734">
        <ele>322.39999389648</ele>
        <time>2013-12-21T14:50:08Z</time>
      </trkpt>
      <trkpt lat="43.42381" lon="6.0474">
        <ele>322.39999389648</ele>
        <time>2013-12-21T14:50:12Z</time>
      </trkpt>
      <trkpt lat="43.42382" lon="6.04745">
        <ele>322.39999389648</ele>
        <time>2013-12-21T14:50:16Z</time>
      </trkpt>
      <trkpt lat="43.42383" lon="6.04746">
        <ele>322.39999389648</ele>
        <time>2013-12-21T14:50:17Z</time>
      </trkpt>
      <trkpt lat="43.42383" lon="6.04746">
        <ele>322.39999389648</ele>
        <time>2013-12-21T14:50:23Z</time>
      </trkpt>
      <trkpt lat="43.42383" lon="6.04746">
        <ele>322.39999389648</ele>
        <time>2013-12-21T14:50:28Z</time>
      </trkpt>
      <trkpt lat="43.42384" lon="6.04748">
        <ele>322.39999389648</ele>
        <time>2013-12-21T14:50:46Z</time>
      </trkpt>
      <trkpt lat="43.42384" lon="6.04748">
        <ele>322.39999389648</ele>
        <time>2013-12-21T14:50:49Z</time>
      </trkpt>
      <trkpt lat="43.42384" lon="6.04748">
        <ele>322.39999389648</ele>
        <time>2013-12-21T14:50:51Z</time>
      </trkpt>
      <trkpt lat="43.42384" lon="6.04749">
        <ele>322.39999389648</ele>
        <time>2013-12-21T14:50:53Z</time>
      </trkpt>
      <trkpt lat="43.42384" lon="6.04752">
        <ele>322.39999389648</ele>
        <time>2013-12-21T14:50:56Z</time>
      </trkpt>
      <trkpt lat="43.42384" lon="6.04753">
        <ele>322.39999389648</ele>
        <time>2013-12-21T14:50:59Z</time>
      </trkpt>
      <trkpt lat="43.42388" lon="6.04758">
        <ele>322.39999389648</ele>
        <time>2013-12-21T14:51:03Z</time>
      </trkpt>
      <trkpt lat="43.42393" lon="6.04761">
        <ele>322.39999389648</ele>
        <time>2013-12-21T14:51:06Z</time>
      </trkpt>
      <trkpt lat="43.42395" lon="6.0476">
        <ele>322.39999389648</ele>
        <time>2013-12-21T14:51:07Z</time>
      </trkpt>
      <trkpt lat="43.42403" lon="6.04752">
        <ele>322.39999389648</ele>
        <time>2013-12-21T14:51:12Z</time>
      </trkpt>
      <trkpt lat="43.42404" lon="6.04753">
        <ele>322.39999389648</ele>
        <time>2013-12-21T14:51:13Z</time>
      </trkpt>
      <trkpt lat="43.42409" lon="6.04753">
        <ele>322</ele>
        <time>2013-12-21T14:51:16Z</time>
      </trkpt>
      <trkpt lat="43.42412" lon="6.04754">
        <ele>321.20001220703</ele>
        <time>2013-12-21T14:51:18Z</time>
      </trkpt>
      <trkpt lat="43.42415" lon="6.04755">
        <ele>320.39999389648</ele>
        <time>2013-12-21T14:51:20Z</time>
      </trkpt>
      <trkpt lat="43.42418" lon="6.04753">
        <ele>320.39999389648</ele>
        <time>2013-12-21T14:51:22Z</time>
      </trkpt>
      <trkpt lat="43.42424" lon="6.0475">
        <ele>319.60000610352</ele>
        <time>2013-12-21T14:51:27Z</time>
      </trkpt>
      <trkpt lat="43.42426" lon="6.0475">
        <ele>319</ele>
        <time>2013-12-21T14:51:28Z</time>
      </trkpt>
      <trkpt lat="43.42428" lon="6.04749">
        <ele>318.20001220703</ele>
        <time>2013-12-21T14:51:30Z</time>
      </trkpt>
      <trkpt lat="43.42431" lon="6.0475">
        <ele>318.20001220703</ele>
        <time>2013-12-21T14:51:34Z</time>
      </trkpt>
      <trkpt lat="43.42432" lon="6.04756">
        <ele>318.20001220703</ele>
        <time>2013-12-21T14:51:37Z</time>
      </trkpt>
      <trkpt lat="43.42433" lon="6.0476">
        <ele>318.20001220703</ele>
        <time>2013-12-21T14:51:39Z</time>
      </trkpt>
      <trkpt lat="43.42433" lon="6.04763">
        <ele>318.20001220703</ele>
        <time>2013-12-21T14:51:43Z</time>
      </trkpt>
      <trkpt lat="43.42433" lon="6.04764">
        <ele>318.20001220703</ele>
        <time>2013-12-21T14:51:46Z</time>
      </trkpt>
      <trkpt lat="43.42432" lon="6.04765">
        <ele>318.20001220703</ele>
        <time>2013-12-21T14:51:49Z</time>
      </trkpt>
      <trkpt lat="43.42432" lon="6.04765">
        <ele>318.20001220703</ele>
        <time>2013-12-21T14:51:50Z</time>
      </trkpt>
      <trkpt lat="43.42432" lon="6.0477">
        <ele>318.20001220703</ele>
        <time>2013-12-21T14:51:57Z</time>
      </trkpt>
      <trkpt lat="43.42432" lon="6.04772">
        <ele>318.20001220703</ele>
        <time>2013-12-21T14:52:02Z</time>
      </trkpt>
      <trkpt lat="43.42432" lon="6.04775">
        <ele>318.20001220703</ele>
        <time>2013-12-21T14:52:08Z</time>
      </trkpt>
      <trkpt lat="43.42432" lon="6.04778">
        <ele>318.60000610352</ele>
        <time>2013-12-21T14:52:14Z</time>
      </trkpt>
      <trkpt lat="43.42432" lon="6.04778">
        <ele>319</ele>
        <time>2013-12-21T14:52:15Z</time>
      </trkpt>
      <trkpt lat="43.42432" lon="6.04779">
        <ele>319.79998779297</ele>
        <time>2013-12-21T14:52:16Z</time>
      </trkpt>
      <trkpt lat="43.42432" lon="6.04779">
        <ele>320.20001220703</ele>
        <time>2013-12-21T14:52:17Z</time>
      </trkpt>
      <trkpt lat="43.42432" lon="6.04779">
        <ele>320.20001220703</ele>
        <time>2013-12-21T14:52:21Z</time>
      </trkpt>
      <trkpt lat="43.42432" lon="6.0478">
        <ele>320.20001220703</ele>
        <time>2013-12-21T14:52:27Z</time>
      </trkpt>
      <trkpt lat="43.42432" lon="6.0478">
        <ele>320.20001220703</ele>
        <time>2013-12-21T14:52:50Z</time>
      </trkpt>
      <trkpt lat="43.42432" lon="6.0478">
        <ele>320.20001220703</ele>
        <time>2013-12-21T14:53:24Z</time>
      </trkpt>
      <trkpt lat="43.42432" lon="6.0478">
        <ele>320.20001220703</ele>
        <time>2013-12-21T14:54:07Z</time>
      </trkpt>
      <trkpt lat="43.42432" lon="6.04781">
        <ele>320.20001220703</ele>
        <time>2013-12-21T14:54:13Z</time>
      </trkpt>
      <trkpt lat="43.42432" lon="6.04791">
        <ele>320.20001220703</ele>
        <time>2013-12-21T14:54:18Z</time>
      </trkpt>
      <trkpt lat="43.4243" lon="6.04795">
        <ele>320.20001220703</ele>
        <time>2013-12-21T14:54:21Z</time>
      </trkpt>
      <trkpt lat="43.42429" lon="6.04798">
        <ele>320.60000610352</ele>
        <time>2013-12-21T14:54:23Z</time>
      </trkpt>
      <trkpt lat="43.42429" lon="6.04802">
        <ele>321.39999389648</ele>
        <time>2013-12-21T14:54:25Z</time>
      </trkpt>
      <trkpt lat="43.42433" lon="6.04813">
        <ele>323.20001220703</ele>
        <time>2013-12-21T14:54:33Z</time>
      </trkpt>
      <trkpt lat="43.42439" lon="6.04826">
        <ele>324.39999389648</ele>
        <time>2013-12-21T14:54:41Z</time>
      </trkpt>
      <trkpt lat="43.4244" lon="6.04837">
        <ele>324.39999389648</ele>
        <time>2013-12-21T14:54:47Z</time>
      </trkpt>
      <trkpt lat="43.42439" lon="6.04846">
        <ele>324.79998779297</ele>
        <time>2013-12-21T14:54:52Z</time>
      </trkpt>
      <trkpt lat="43.42439" lon="6.04849">
        <ele>325.60000610352</ele>
        <time>2013-12-21T14:54:54Z</time>
      </trkpt>
      <trkpt lat="43.42439" lon="6.04853">
        <ele>326.39999389648</ele>
        <time>2013-12-21T14:54:56Z</time>
      </trkpt>
      <trkpt lat="43.4244" lon="6.04862">
        <ele>326.39999389648</ele>
        <time>2013-12-21T14:55:00Z</time>
      </trkpt>
      <trkpt lat="43.4244" lon="6.04866">
        <ele>326.39999389648</ele>
        <time>2013-12-21T14:55:03Z</time>
      </trkpt>
      <trkpt lat="43.4244" lon="6.04872">
        <ele>326.39999389648</ele>
        <time>2013-12-21T14:55:09Z</time>
      </trkpt>
      <trkpt lat="43.4244" lon="6.04872">
        <ele>326.39999389648</ele>
        <time>2013-12-21T14:55:31Z</time>
      </trkpt>
      <trkpt lat="43.4244" lon="6.04872">
        <ele>326.39999389648</ele>
        <time>2013-12-21T14:55:44Z</time>
      </trkpt>
      <trkpt lat="43.4244" lon="6.04872">
        <ele>326.39999389648</ele>
        <time>2013-12-21T14:55:47Z</time>
      </trkpt>
      <trkpt lat="43.4244" lon="6.04873">
        <ele>326.39999389648</ele>
        <time>2013-12-21T14:55:48Z</time>
      </trkpt>
      <trkpt lat="43.42441" lon="6.04879">
        <ele>326.39999389648</ele>
        <time>2013-12-21T14:55:52Z</time>
      </trkpt>
      <trkpt lat="43.4244" lon="6.04876">
        <ele>326.39999389648</ele>
        <time>2013-12-21T14:55:58Z</time>
      </trkpt>
      <trkpt lat="43.4244" lon="6.04874">
        <ele>326.39999389648</ele>
        <time>2013-12-21T14:56:06Z</time>
      </trkpt>
      <trkpt lat="43.42439" lon="6.04873">
        <ele>326.39999389648</ele>
        <time>2013-12-21T14:56:13Z</time>
      </trkpt>
      <trkpt lat="43.42439" lon="6.04873">
        <ele>326.39999389648</ele>
        <time>2013-12-21T14:56:15Z</time>
      </trkpt>
      <trkpt lat="43.42439" lon="6.04878">
        <ele>326.39999389648</ele>
        <time>2013-12-21T14:56:19Z</time>
      </trkpt>
      <trkpt lat="43.42439" lon="6.04879">
        <ele>326.39999389648</ele>
        <time>2013-12-21T14:56:20Z</time>
      </trkpt>
      <trkpt lat="43.42439" lon="6.04879">
        <ele>326.39999389648</ele>
        <time>2013-12-21T14:56:22Z</time>
      </trkpt>
      <trkpt lat="43.42438" lon="6.04886">
        <ele>327.79998779297</ele>
        <time>2013-12-21T14:56:32Z</time>
      </trkpt>
      <trkpt lat="43.42439" lon="6.04886">
        <ele>328.20001220703</ele>
        <time>2013-12-21T14:56:33Z</time>
      </trkpt>
      <trkpt lat="43.42439" lon="6.04888">
        <ele>328.60000610352</ele>
        <time>2013-12-21T14:56:39Z</time>
      </trkpt>
      <trkpt lat="43.42439" lon="6.04889">
        <ele>328.60000610352</ele>
        <time>2013-12-21T14:56:48Z</time>
      </trkpt>
      <trkpt lat="43.42439" lon="6.04889">
        <ele>328.60000610352</ele>
        <time>2013-12-21T14:56:51Z</time>
      </trkpt>
      <trkpt lat="43.42439" lon="6.04889">
        <ele>328.60000610352</ele>
        <time>2013-12-21T14:57:01Z</time>
      </trkpt>
      <trkpt lat="43.42442" lon="6.04892">
        <ele>328.60000610352</ele>
        <time>2013-12-21T14:57:09Z</time>
      </trkpt>
      <trkpt lat="43.42448" lon="6.04893">
        <ele>328.60000610352</ele>
        <time>2013-12-21T14:57:15Z</time>
      </trkpt>
      <trkpt lat="43.4245" lon="6.04893">
        <ele>328.20001220703</ele>
        <time>2013-12-21T14:57:17Z</time>
      </trkpt>
      <trkpt lat="43.42451" lon="6.04895">
        <ele>327.60000610352</ele>
        <time>2013-12-21T14:57:18Z</time>
      </trkpt>
      <trkpt lat="43.42453" lon="6.04895">
        <ele>327.20001220703</ele>
        <time>2013-12-21T14:57:19Z</time>
      </trkpt>
      <trkpt lat="43.42454" lon="6.04896">
        <ele>326.79998779297</ele>
        <time>2013-12-21T14:57:20Z</time>
      </trkpt>
      <trkpt lat="43.42455" lon="6.04897">
        <ele>326.39999389648</ele>
        <time>2013-12-21T14:57:21Z</time>
      </trkpt>
      <trkpt lat="43.42456" lon="6.04898">
        <ele>326.39999389648</ele>
        <time>2013-12-21T14:57:26Z</time>
      </trkpt>
      <trkpt lat="43.42456" lon="6.04898">
        <ele>326</ele>
        <time>2013-12-21T14:57:30Z</time>
      </trkpt>
      <trkpt lat="43.42456" lon="6.04898">
        <ele>325.60000610352</ele>
        <time>2013-12-21T14:57:31Z</time>
      </trkpt>
      <trkpt lat="43.42456" lon="6.04898">
        <ele>324.39999389648</ele>
        <time>2013-12-21T14:57:34Z</time>
      </trkpt>
      <trkpt lat="43.42456" lon="6.04898">
        <ele>324.39999389648</ele>
        <time>2013-12-21T14:57:41Z</time>
      </trkpt>
      <trkpt lat="43.4246" lon="6.04902">
        <ele>324.39999389648</ele>
        <time>2013-12-21T14:57:49Z</time>
      </trkpt>
      <trkpt lat="43.4246" lon="6.04902">
        <ele>324.39999389648</ele>
        <time>2013-12-21T14:57:54Z</time>
      </trkpt>
      <trkpt lat="43.4246" lon="6.04902">
        <ele>324.39999389648</ele>
        <time>2013-12-21T14:58:03Z</time>
      </trkpt>
      <trkpt lat="43.4246" lon="6.04905">
        <ele>324.39999389648</ele>
        <time>2013-12-21T14:58:10Z</time>
      </trkpt>
      <trkpt lat="43.42459" lon="6.04907">
        <ele>324.39999389648</ele>
        <time>2013-12-21T14:58:14Z</time>
      </trkpt>
      <trkpt lat="43.42458" lon="6.04917">
        <ele>324.39999389648</ele>
        <time>2013-12-21T14:58:18Z</time>
      </trkpt>
      <trkpt lat="43.42457" lon="6.04927">
        <ele>324.39999389648</ele>
        <time>2013-12-21T14:58:22Z</time>
      </trkpt>
      <trkpt lat="43.42457" lon="6.04927">
        <ele>324.39999389648</ele>
        <time>2013-12-21T14:58:23Z</time>
      </trkpt>
      <trkpt lat="43.42457" lon="6.04928">
        <ele>324.39999389648</ele>
        <time>2013-12-21T14:58:25Z</time>
      </trkpt>
      <trkpt lat="43.42457" lon="6.04928">
        <ele>324.39999389648</ele>
        <time>2013-12-21T14:58:27Z</time>
      </trkpt>
      <trkpt lat="43.42456" lon="6.04929">
        <ele>324.39999389648</ele>
        <time>2013-12-21T14:58:28Z</time>
      </trkpt>
      <trkpt lat="43.42456" lon="6.04929">
        <ele>324.39999389648</ele>
        <time>2013-12-21T14:58:36Z</time>
      </trkpt>
      <trkpt lat="43.42457" lon="6.04929">
        <ele>324.39999389648</ele>
        <time>2013-12-21T14:58:41Z</time>
      </trkpt>
      <trkpt lat="43.42457" lon="6.04929">
        <ele>324.39999389648</ele>
        <time>2013-12-21T14:59:03Z</time>
      </trkpt>
      <trkpt lat="43.42457" lon="6.04929">
        <ele>324.39999389648</ele>
        <time>2013-12-21T14:59:38Z</time>
      </trkpt>
      <trkpt lat="43.42457" lon="6.04929">
        <ele>324.39999389648</ele>
        <time>2013-12-21T14:59:56Z</time>
      </trkpt>
      <trkpt lat="43.42456" lon="6.04929">
        <ele>324.39999389648</ele>
        <time>2013-12-21T15:00:01Z</time>
      </trkpt>
      <trkpt lat="43.42456" lon="6.04929">
        <ele>324.39999389648</ele>
        <time>2013-12-21T15:00:27Z</time>
      </trkpt>
      <trkpt lat="43.42456" lon="6.0493">
        <ele>324.39999389648</ele>
        <time>2013-12-21T15:00:51Z</time>
      </trkpt>
      <trkpt lat="43.42456" lon="6.0493">
        <ele>324.39999389648</ele>
        <time>2013-12-21T15:01:04Z</time>
      </trkpt>
      <trkpt lat="43.42456" lon="6.0493">
        <ele>324.39999389648</ele>
        <time>2013-12-21T15:01:12Z</time>
      </trkpt>
      <trkpt lat="43.42457" lon="6.0493">
        <ele>324.39999389648</ele>
        <time>2013-12-21T15:01:18Z</time>
      </trkpt>
      <trkpt lat="43.42459" lon="6.04933">
        <ele>324.39999389648</ele>
        <time>2013-12-21T15:01:24Z</time>
      </trkpt>
      <trkpt lat="43.42459" lon="6.04934">
        <ele>324.39999389648</ele>
        <time>2013-12-21T15:01:30Z</time>
      </trkpt>
      <trkpt lat="43.42461" lon="6.04937">
        <ele>324.39999389648</ele>
        <time>2013-12-21T15:01:32Z</time>
      </trkpt>
      <trkpt lat="43.42463" lon="6.04943">
        <ele>324</ele>
        <time>2013-12-21T15:01:34Z</time>
      </trkpt>
      <trkpt lat="43.42465" lon="6.04946">
        <ele>323.39999389648</ele>
        <time>2013-12-21T15:01:35Z</time>
      </trkpt>
      <trkpt lat="43.42466" lon="6.04948">
        <ele>323</ele>
        <time>2013-12-21T15:01:36Z</time>
      </trkpt>
      <trkpt lat="43.42466" lon="6.0495">
        <ele>322.60000610352</ele>
        <time>2013-12-21T15:01:37Z</time>
      </trkpt>
      <trkpt lat="43.42468" lon="6.04951">
        <ele>322.20001220703</ele>
        <time>2013-12-21T15:01:38Z</time>
      </trkpt>
      <trkpt lat="43.42472" lon="6.04954">
        <ele>321.60000610352</ele>
        <time>2013-12-21T15:01:40Z</time>
      </trkpt>
      <trkpt lat="43.42474" lon="6.04965">
        <ele>319.79998779297</ele>
        <time>2013-12-21T15:01:44Z</time>
      </trkpt>
      <trkpt lat="43.42477" lon="6.04968">
        <ele>319</ele>
        <time>2013-12-21T15:01:46Z</time>
      </trkpt>
      <trkpt lat="43.4248" lon="6.04973">
        <ele>317.79998779297</ele>
        <time>2013-12-21T15:01:48Z</time>
      </trkpt>
      <trkpt lat="43.42485" lon="6.04983">
        <ele>316.20001220703</ele>
        <time>2013-12-21T15:01:52Z</time>
      </trkpt>
      <trkpt lat="43.42495" lon="6.04991">
        <ele>313.60000610352</ele>
        <time>2013-12-21T15:01:57Z</time>
      </trkpt>
      <trkpt lat="43.42498" lon="6.04994">
        <ele>313.20001220703</ele>
        <time>2013-12-21T15:01:59Z</time>
      </trkpt>
      <trkpt lat="43.42501" lon="6.05">
        <ele>312.20001220703</ele>
        <time>2013-12-21T15:02:01Z</time>
      </trkpt>
      <trkpt lat="43.42506" lon="6.05011">
        <ele>310.79998779297</ele>
        <time>2013-12-21T15:02:05Z</time>
      </trkpt>
      <trkpt lat="43.42508" lon="6.05021">
        <ele>309.39999389648</ele>
        <time>2013-12-21T15:02:08Z</time>
      </trkpt>
      <trkpt lat="43.42509" lon="6.05024">
        <ele>309</ele>
        <time>2013-12-21T15:02:09Z</time>
      </trkpt>
      <trkpt lat="43.42508" lon="6.05029">
        <ele>308.20001220703</ele>
        <time>2013-12-21T15:02:11Z</time>
      </trkpt>
      <trkpt lat="43.42506" lon="6.05031">
        <ele>307.79998779297</ele>
        <time>2013-12-21T15:02:12Z</time>
      </trkpt>
      <trkpt lat="43.42506" lon="6.05034">
        <ele>307.39999389648</ele>
        <time>2013-12-21T15:02:13Z</time>
      </trkpt>
      <trkpt lat="43.42506" lon="6.05037">
        <ele>307</ele>
        <time>2013-12-21T15:02:14Z</time>
      </trkpt>
      <trkpt lat="43.42509" lon="6.05041">
        <ele>307</ele>
        <time>2013-12-21T15:02:16Z</time>
      </trkpt>
      <trkpt lat="43.42515" lon="6.05049">
        <ele>306.39999389648</ele>
        <time>2013-12-21T15:02:20Z</time>
      </trkpt>
      <trkpt lat="43.42515" lon="6.05049">
        <ele>306</ele>
        <time>2013-12-21T15:02:21Z</time>
      </trkpt>
      <trkpt lat="43.42515" lon="6.05049">
        <ele>304.79998779297</ele>
        <time>2013-12-21T15:02:43Z</time>
      </trkpt>
      <trkpt lat="43.42515" lon="6.05049">
        <ele>304.79998779297</ele>
        <time>2013-12-21T15:02:52Z</time>
      </trkpt>
      <trkpt lat="43.42515" lon="6.0505">
        <ele>304.79998779297</ele>
        <time>2013-12-21T15:02:59Z</time>
      </trkpt>
      <trkpt lat="43.42515" lon="6.0505">
        <ele>304.79998779297</ele>
        <time>2013-12-21T15:03:03Z</time>
      </trkpt>
      <trkpt lat="43.42516" lon="6.05049">
        <ele>304.79998779297</ele>
        <time>2013-12-21T15:03:11Z</time>
      </trkpt>
      <trkpt lat="43.42515" lon="6.05052">
        <ele>304.79998779297</ele>
        <time>2013-12-21T15:03:20Z</time>
      </trkpt>
      <trkpt lat="43.42512" lon="6.05064">
        <ele>304.79998779297</ele>
        <time>2013-12-21T15:03:26Z</time>
      </trkpt>
      <trkpt lat="43.42511" lon="6.05079">
        <ele>304.39999389648</ele>
        <time>2013-12-21T15:03:30Z</time>
      </trkpt>
      <trkpt lat="43.42507" lon="6.05081">
        <ele>303.60000610352</ele>
        <time>2013-12-21T15:03:32Z</time>
      </trkpt>
      <trkpt lat="43.42505" lon="6.05083">
        <ele>303.20001220703</ele>
        <time>2013-12-21T15:03:33Z</time>
      </trkpt>
      <trkpt lat="43.42503" lon="6.05083">
        <ele>302.79998779297</ele>
        <time>2013-12-21T15:03:34Z</time>
      </trkpt>
      <trkpt lat="43.42491" lon="6.05084">
        <ele>302.20001220703</ele>
        <time>2013-12-21T15:03:37Z</time>
      </trkpt>
      <trkpt lat="43.42484" lon="6.05084">
        <ele>301.39999389648</ele>
        <time>2013-12-21T15:03:39Z</time>
      </trkpt>
      <trkpt lat="43.4248" lon="6.05085">
        <ele>300.79998779297</ele>
        <time>2013-12-21T15:03:40Z</time>
      </trkpt>
      <trkpt lat="43.42477" lon="6.05086">
        <ele>300.39999389648</ele>
        <time>2013-12-21T15:03:41Z</time>
      </trkpt>
      <trkpt lat="43.42472" lon="6.05088">
        <ele>299.20001220703</ele>
        <time>2013-12-21T15:03:43Z</time>
      </trkpt>
      <trkpt lat="43.42471" lon="6.05089">
        <ele>298.79998779297</ele>
        <time>2013-12-21T15:03:44Z</time>
      </trkpt>
      <trkpt lat="43.42466" lon="6.05096">
        <ele>296.79998779297</ele>
        <time>2013-12-21T15:03:48Z</time>
      </trkpt>
      <trkpt lat="43.42463" lon="6.05099">
        <ele>295.39999389648</ele>
        <time>2013-12-21T15:03:50Z</time>
      </trkpt>
      <trkpt lat="43.42461" lon="6.05101">
        <ele>295</ele>
        <time>2013-12-21T15:03:51Z</time>
      </trkpt>
      <trkpt lat="43.42459" lon="6.05104">
        <ele>294.20001220703</ele>
        <time>2013-12-21T15:03:53Z</time>
      </trkpt>
      <trkpt lat="43.42455" lon="6.05107">
        <ele>293.39999389648</ele>
        <time>2013-12-21T15:03:55Z</time>
      </trkpt>
      <trkpt lat="43.42452" lon="6.0511">
        <ele>292.39999389648</ele>
        <time>2013-12-21T15:03:57Z</time>
      </trkpt>
      <trkpt lat="43.4245" lon="6.05111">
        <ele>291.60000610352</ele>
        <time>2013-12-21T15:03:58Z</time>
      </trkpt>
      <trkpt lat="43.42444" lon="6.05125">
        <ele>288</ele>
        <time>2013-12-21T15:04:04Z</time>
      </trkpt>
      <trkpt lat="43.42442" lon="6.05126">
        <ele>287.39999389648</ele>
        <time>2013-12-21T15:04:05Z</time>
      </trkpt>
      <trkpt lat="43.42433" lon="6.0514">
        <ele>284</ele>
        <time>2013-12-21T15:04:10Z</time>
      </trkpt>
      <trkpt lat="43.42431" lon="6.05142">
        <ele>283.39999389648</ele>
        <time>2013-12-21T15:04:11Z</time>
      </trkpt>
      <trkpt lat="43.42421" lon="6.05143">
        <ele>279.60000610352</ele>
        <time>2013-12-21T15:04:16Z</time>
      </trkpt>
      <trkpt lat="43.42418" lon="6.05143">
        <ele>278.39999389648</ele>
        <time>2013-12-21T15:04:18Z</time>
      </trkpt>
      <trkpt lat="43.42414" lon="6.05142">
        <ele>277.39999389648</ele>
        <time>2013-12-21T15:04:20Z</time>
      </trkpt>
      <trkpt lat="43.42412" lon="6.05143">
        <ele>277</ele>
        <time>2013-12-21T15:04:21Z</time>
      </trkpt>
      <trkpt lat="43.4241" lon="6.05144">
        <ele>276.60000610352</ele>
        <time>2013-12-21T15:04:22Z</time>
      </trkpt>
      <trkpt lat="43.42405" lon="6.05146">
        <ele>275.60000610352</ele>
        <time>2013-12-21T15:04:24Z</time>
      </trkpt>
      <trkpt lat="43.42402" lon="6.05146">
        <ele>275</ele>
        <time>2013-12-21T15:04:25Z</time>
      </trkpt>
      <trkpt lat="43.42397" lon="6.05149">
        <ele>273.60000610352</ele>
        <time>2013-12-21T15:04:27Z</time>
      </trkpt>
      <trkpt lat="43.42393" lon="6.05151">
        <ele>273</ele>
        <time>2013-12-21T15:04:28Z</time>
      </trkpt>
      <trkpt lat="43.42391" lon="6.05154">
        <ele>272.20001220703</ele>
        <time>2013-12-21T15:04:29Z</time>
      </trkpt>
      <trkpt lat="43.4239" lon="6.05156">
        <ele>271.60000610352</ele>
        <time>2013-12-21T15:04:30Z</time>
      </trkpt>
      <trkpt lat="43.4239" lon="6.05156">
        <ele>270.79998779297</ele>
        <time>2013-12-21T15:04:31Z</time>
      </trkpt>
      <trkpt lat="43.42391" lon="6.05157">
        <ele>270.20001220703</ele>
        <time>2013-12-21T15:04:32Z</time>
      </trkpt>
      <trkpt lat="43.42391" lon="6.05157">
        <ele>269.60000610352</ele>
        <time>2013-12-21T15:04:33Z</time>
      </trkpt>
      <trkpt lat="43.42391" lon="6.05157">
        <ele>268.39999389648</ele>
        <time>2013-12-21T15:04:50Z</time>
      </trkpt>
      <trkpt lat="43.42392" lon="6.05157">
        <ele>268.39999389648</ele>
        <time>2013-12-21T15:05:19Z</time>
      </trkpt>
      <trkpt lat="43.42392" lon="6.05157">
        <ele>268.39999389648</ele>
        <time>2013-12-21T15:05:31Z</time>
      </trkpt>
      <trkpt lat="43.42392" lon="6.05157">
        <ele>268.39999389648</ele>
        <time>2013-12-21T15:05:49Z</time>
      </trkpt>
      <trkpt lat="43.42392" lon="6.05157">
        <ele>268.39999389648</ele>
        <time>2013-12-21T15:05:55Z</time>
      </trkpt>
      <trkpt lat="43.42392" lon="6.05157">
        <ele>268.39999389648</ele>
        <time>2013-12-21T15:06:27Z</time>
      </trkpt>
      <trkpt lat="43.42392" lon="6.05157">
        <ele>268.39999389648</ele>
        <time>2013-12-21T15:06:54Z</time>
      </trkpt>
      <trkpt lat="43.42392" lon="6.05157">
        <ele>268.39999389648</ele>
        <time>2013-12-21T15:07:04Z</time>
      </trkpt>
      <trkpt lat="43.42392" lon="6.05158">
        <ele>268.39999389648</ele>
        <time>2013-12-21T15:07:16Z</time>
      </trkpt>
      <trkpt lat="43.42391" lon="6.05161">
        <ele>268.39999389648</ele>
        <time>2013-12-21T15:07:21Z</time>
      </trkpt>
      <trkpt lat="43.42384" lon="6.05169">
        <ele>268.39999389648</ele>
        <time>2013-12-21T15:07:26Z</time>
      </trkpt>
      <trkpt lat="43.42381" lon="6.0517">
        <ele>268.39999389648</ele>
        <time>2013-12-21T15:07:28Z</time>
      </trkpt>
      <trkpt lat="43.42379" lon="6.05169">
        <ele>268</ele>
        <time>2013-12-21T15:07:29Z</time>
      </trkpt>
      <trkpt lat="43.42379" lon="6.0517">
        <ele>267.60000610352</ele>
        <time>2013-12-21T15:07:30Z</time>
      </trkpt>
      <trkpt lat="43.42379" lon="6.0517">
        <ele>266.20001220703</ele>
        <time>2013-12-21T15:07:38Z</time>
      </trkpt>
      <trkpt lat="43.4238" lon="6.0517">
        <ele>266.20001220703</ele>
        <time>2013-12-21T15:07:44Z</time>
      </trkpt>
      <trkpt lat="43.42381" lon="6.05172">
        <ele>266.20001220703</ele>
        <time>2013-12-21T15:07:50Z</time>
      </trkpt>
      <trkpt lat="43.42382" lon="6.05172">
        <ele>266.20001220703</ele>
        <time>2013-12-21T15:07:56Z</time>
      </trkpt>
      <trkpt lat="43.42385" lon="6.05178">
        <ele>266.20001220703</ele>
        <time>2013-12-21T15:08:02Z</time>
      </trkpt>
      <trkpt lat="43.42386" lon="6.05182">
        <ele>266.20001220703</ele>
        <time>2013-12-21T15:08:06Z</time>
      </trkpt>
      <trkpt lat="43.42386" lon="6.05183">
        <ele>266.20001220703</ele>
        <time>2013-12-21T15:08:07Z</time>
      </trkpt>
      <trkpt lat="43.42385" lon="6.05183">
        <ele>266.20001220703</ele>
        <time>2013-12-21T15:08:08Z</time>
      </trkpt>
      <trkpt lat="43.42378" lon="6.05186">
        <ele>266.20001220703</ele>
        <time>2013-12-21T15:08:13Z</time>
      </trkpt>
      <trkpt lat="43.42373" lon="6.05186">
        <ele>266.20001220703</ele>
        <time>2013-12-21T15:08:15Z</time>
      </trkpt>
      <trkpt lat="43.42366" lon="6.05189">
        <ele>265.60000610352</ele>
        <time>2013-12-21T15:08:17Z</time>
      </trkpt>
      <trkpt lat="43.42361" lon="6.0519">
        <ele>265.20001220703</ele>
        <time>2013-12-21T15:08:18Z</time>
      </trkpt>
      <trkpt lat="43.42358" lon="6.05194">
        <ele>264.60000610352</ele>
        <time>2013-12-21T15:08:19Z</time>
      </trkpt>
      <trkpt lat="43.42357" lon="6.05199">
        <ele>264.20001220703</ele>
        <time>2013-12-21T15:08:20Z</time>
      </trkpt>
      <trkpt lat="43.42356" lon="6.05199">
        <ele>263.60000610352</ele>
        <time>2013-12-21T15:08:21Z</time>
      </trkpt>
      <trkpt lat="43.42356" lon="6.05199">
        <ele>262.79998779297</ele>
        <time>2013-12-21T15:08:22Z</time>
      </trkpt>
      <trkpt lat="43.42355" lon="6.052">
        <ele>262.20001220703</ele>
        <time>2013-12-21T15:08:23Z</time>
      </trkpt>
      <trkpt lat="43.42353" lon="6.052">
        <ele>261.79998779297</ele>
        <time>2013-12-21T15:08:24Z</time>
      </trkpt>
      <trkpt lat="43.4235" lon="6.05199">
        <ele>261.39999389648</ele>
        <time>2013-12-21T15:08:25Z</time>
      </trkpt>
      <trkpt lat="43.42346" lon="6.05198">
        <ele>261.39999389648</ele>
        <time>2013-12-21T15:08:26Z</time>
      </trkpt>
      <trkpt lat="43.42342" lon="6.052">
        <ele>260.79998779297</ele>
        <time>2013-12-21T15:08:27Z</time>
      </trkpt>
      <trkpt lat="43.42338" lon="6.05201">
        <ele>260.39999389648</ele>
        <time>2013-12-21T15:08:28Z</time>
      </trkpt>
      <trkpt lat="43.42332" lon="6.052">
        <ele>259.79998779297</ele>
        <time>2013-12-21T15:08:29Z</time>
      </trkpt>
      <trkpt lat="43.42326" lon="6.052">
        <ele>259.39999389648</ele>
        <time>2013-12-21T15:08:30Z</time>
      </trkpt>
      <trkpt lat="43.42322" lon="6.05203">
        <ele>258.79998779297</ele>
        <time>2013-12-21T15:08:31Z</time>
      </trkpt>
      <trkpt lat="43.42312" lon="6.05206">
        <ele>258.39999389648</ele>
        <time>2013-12-21T15:08:33Z</time>
      </trkpt>
      <trkpt lat="43.42307" lon="6.05206">
        <ele>258</ele>
        <time>2013-12-21T15:08:34Z</time>
      </trkpt>
      <trkpt lat="43.42302" lon="6.05204">
        <ele>257.39999389648</ele>
        <time>2013-12-21T15:08:35Z</time>
      </trkpt>
      <trkpt lat="43.42297" lon="6.05201">
        <ele>257</ele>
        <time>2013-12-21T15:08:36Z</time>
      </trkpt>
      <trkpt lat="43.4229" lon="6.05196">
        <ele>256.60000610352</ele>
        <time>2013-12-21T15:08:38Z</time>
      </trkpt>
      <trkpt lat="43.42283" lon="6.05194">
        <ele>256.60000610352</ele>
        <time>2013-12-21T15:08:41Z</time>
      </trkpt>
      <trkpt lat="43.42273" lon="6.05204">
        <ele>256.60000610352</ele>
        <time>2013-12-21T15:08:45Z</time>
      </trkpt>
      <trkpt lat="43.42269" lon="6.05207">
        <ele>256.60000610352</ele>
        <time>2013-12-21T15:08:46Z</time>
      </trkpt>
      <trkpt lat="43.42264" lon="6.0521">
        <ele>256</ele>
        <time>2013-12-21T15:08:47Z</time>
      </trkpt>
      <trkpt lat="43.42259" lon="6.05211">
        <ele>255.60000610352</ele>
        <time>2013-12-21T15:08:48Z</time>
      </trkpt>
      <trkpt lat="43.42246" lon="6.05209">
        <ele>254.19999694824</ele>
        <time>2013-12-21T15:08:51Z</time>
      </trkpt>
      <trkpt lat="43.42242" lon="6.05208">
        <ele>254.19999694824</ele>
        <time>2013-12-21T15:08:52Z</time>
      </trkpt>
      <trkpt lat="43.42236" lon="6.05203">
        <ele>253.80000305176</ele>
        <time>2013-12-21T15:08:54Z</time>
      </trkpt>
      <trkpt lat="43.42233" lon="6.05201">
        <ele>253.39999389648</ele>
        <time>2013-12-21T15:08:55Z</time>
      </trkpt>
      <trkpt lat="43.42231" lon="6.05198">
        <ele>253</ele>
        <time>2013-12-21T15:08:56Z</time>
      </trkpt>
      <trkpt lat="43.42228" lon="6.05191">
        <ele>252.19999694824</ele>
        <time>2013-12-21T15:08:58Z</time>
      </trkpt>
      <trkpt lat="43.42225" lon="6.0519">
        <ele>252.19999694824</ele>
        <time>2013-12-21T15:08:59Z</time>
      </trkpt>
      <trkpt lat="43.42221" lon="6.05188">
        <ele>252.19999694824</ele>
        <time>2013-12-21T15:09:00Z</time>
      </trkpt>
      <trkpt lat="43.42211" lon="6.05182">
        <ele>252.19999694824</ele>
        <time>2013-12-21T15:09:04Z</time>
      </trkpt>
      <trkpt lat="43.42199" lon="6.05174">
        <ele>252.19999694824</ele>
        <time>2013-12-21T15:09:09Z</time>
      </trkpt>
      <trkpt lat="43.42194" lon="6.0517">
        <ele>251.80000305176</ele>
        <time>2013-12-21T15:09:11Z</time>
      </trkpt>
      <trkpt lat="43.42188" lon="6.05169">
        <ele>250.39999389648</ele>
        <time>2013-12-21T15:09:13Z</time>
      </trkpt>
      <trkpt lat="43.42184" lon="6.0517">
        <ele>250</ele>
        <time>2013-12-21T15:09:14Z</time>
      </trkpt>
      <trkpt lat="43.42175" lon="6.05169">
        <ele>249.60000610352</ele>
        <time>2013-12-21T15:09:16Z</time>
      </trkpt>
      <trkpt lat="43.4217" lon="6.05166">
        <ele>249.19999694824</ele>
        <time>2013-12-21T15:09:17Z</time>
      </trkpt>
      <trkpt lat="43.42162" lon="6.05162">
        <ele>248.39999389648</ele>
        <time>2013-12-21T15:09:19Z</time>
      </trkpt>
      <trkpt lat="43.42158" lon="6.05158">
        <ele>248</ele>
        <time>2013-12-21T15:09:20Z</time>
      </trkpt>
      <trkpt lat="43.42146" lon="6.05144">
        <ele>248</ele>
        <time>2013-12-21T15:09:24Z</time>
      </trkpt>
      <trkpt lat="43.42128" lon="6.05118">
        <ele>248</ele>
        <time>2013-12-21T15:09:31Z</time>
      </trkpt>
      <trkpt lat="43.42122" lon="6.05116">
        <ele>248</ele>
        <time>2013-12-21T15:09:33Z</time>
      </trkpt>
      <trkpt lat="43.42115" lon="6.05115">
        <ele>247.19999694824</ele>
        <time>2013-12-21T15:09:35Z</time>
      </trkpt>
      <trkpt lat="43.42107" lon="6.05116">
        <ele>246</ele>
        <time>2013-12-21T15:09:37Z</time>
      </trkpt>
      <trkpt lat="43.42099" lon="6.05116">
        <ele>246</ele>
        <time>2013-12-21T15:09:39Z</time>
      </trkpt>
      <trkpt lat="43.42076" lon="6.05113">
        <ele>245.60000610352</ele>
        <time>2013-12-21T15:09:44Z</time>
      </trkpt>
      <trkpt lat="43.4207" lon="6.05112">
        <ele>245.19999694824</ele>
        <time>2013-12-21T15:09:45Z</time>
      </trkpt>
      <trkpt lat="43.4206" lon="6.05114">
        <ele>244.39999389648</ele>
        <time>2013-12-21T15:09:47Z</time>
      </trkpt>
      <trkpt lat="43.42055" lon="6.05116">
        <ele>243.80000305176</ele>
        <time>2013-12-21T15:09:48Z</time>
      </trkpt>
      <trkpt lat="43.42032" lon="6.05122">
        <ele>243.80000305176</ele>
        <time>2013-12-21T15:09:52Z</time>
      </trkpt>
      <trkpt lat="43.42014" lon="6.05128">
        <ele>242.60000610352</ele>
        <time>2013-12-21T15:09:55Z</time>
      </trkpt>
      <trkpt lat="43.42008" lon="6.05129">
        <ele>242</ele>
        <time>2013-12-21T15:09:56Z</time>
      </trkpt>
      <trkpt lat="43.41977" lon="6.05135">
        <ele>241.60000610352</ele>
        <time>2013-12-21T15:10:01Z</time>
      </trkpt>
      <trkpt lat="43.41959" lon="6.05143">
        <ele>241.19999694824</ele>
        <time>2013-12-21T15:10:04Z</time>
      </trkpt>
      <trkpt lat="43.41909" lon="6.05167">
        <ele>238.60000610352</ele>
        <time>2013-12-21T15:10:11Z</time>
      </trkpt>
      <trkpt lat="43.41887" lon="6.05178">
        <ele>237</ele>
        <time>2013-12-21T15:10:14Z</time>
      </trkpt>
      <trkpt lat="43.41871" lon="6.05184">
        <ele>236.19999694824</ele>
        <time>2013-12-21T15:10:16Z</time>
      </trkpt>
      <trkpt lat="43.41864" lon="6.05185">
        <ele>235.80000305176</ele>
        <time>2013-12-21T15:10:17Z</time>
      </trkpt>
      <trkpt lat="43.41847" lon="6.05187">
        <ele>234.80000305176</ele>
        <time>2013-12-21T15:10:19Z</time>
      </trkpt>
      <trkpt lat="43.41822" lon="6.05187">
        <ele>234.39999389648</ele>
        <time>2013-12-21T15:10:22Z</time>
      </trkpt>
      <trkpt lat="43.41814" lon="6.05186">
        <ele>234</ele>
        <time>2013-12-21T15:10:23Z</time>
      </trkpt>
      <trkpt lat="43.41806" lon="6.05185">
        <ele>233.60000610352</ele>
        <time>2013-12-21T15:10:24Z</time>
      </trkpt>
      <trkpt lat="43.41798" lon="6.05183">
        <ele>233.19999694824</ele>
        <time>2013-12-21T15:10:25Z</time>
      </trkpt>
      <trkpt lat="43.41789" lon="6.05183">
        <ele>232.39999389648</ele>
        <time>2013-12-21T15:10:26Z</time>
      </trkpt>
      <trkpt lat="43.41781" lon="6.05181">
        <ele>232</ele>
        <time>2013-12-21T15:10:27Z</time>
      </trkpt>
      <trkpt lat="43.41772" lon="6.0518">
        <ele>231.60000610352</ele>
        <time>2013-12-21T15:10:28Z</time>
      </trkpt>
      <trkpt lat="43.41748" lon="6.05178">
        <ele>230.60000610352</ele>
        <time>2013-12-21T15:10:31Z</time>
      </trkpt>
      <trkpt lat="43.41742" lon="6.05176">
        <ele>230.19999694824</ele>
        <time>2013-12-21T15:10:32Z</time>
      </trkpt>
      <trkpt lat="43.41737" lon="6.05171">
        <ele>229.80000305176</ele>
        <time>2013-12-21T15:10:33Z</time>
      </trkpt>
      <trkpt lat="43.41734" lon="6.05164">
        <ele>229.39999389648</ele>
        <time>2013-12-21T15:10:34Z</time>
      </trkpt>
      <trkpt lat="43.41734" lon="6.05157">
        <ele>229</ele>
        <time>2013-12-21T15:10:35Z</time>
      </trkpt>
      <trkpt lat="43.41735" lon="6.05143">
        <ele>228.39999389648</ele>
        <time>2013-12-21T15:10:37Z</time>
      </trkpt>
      <trkpt lat="43.41735" lon="6.05123">
        <ele>228</ele>
        <time>2013-12-21T15:10:40Z</time>
      </trkpt>
      <trkpt lat="43.41735" lon="6.05116">
        <ele>227.60000610352</ele>
        <time>2013-12-21T15:10:41Z</time>
      </trkpt>
      <trkpt lat="43.41734" lon="6.0511">
        <ele>227.19999694824</ele>
        <time>2013-12-21T15:10:42Z</time>
      </trkpt>
      <trkpt lat="43.4173" lon="6.05106">
        <ele>226.80000305176</ele>
        <time>2013-12-21T15:10:43Z</time>
      </trkpt>
      <trkpt lat="43.41726" lon="6.05105">
        <ele>226.39999389648</ele>
        <time>2013-12-21T15:10:44Z</time>
      </trkpt>
      <trkpt lat="43.41716" lon="6.05107">
        <ele>226.39999389648</ele>
        <time>2013-12-21T15:10:46Z</time>
      </trkpt>
      <trkpt lat="43.41702" lon="6.05117">
        <ele>225.60000610352</ele>
        <time>2013-12-21T15:10:49Z</time>
      </trkpt>
      <trkpt lat="43.41692" lon="6.05124">
        <ele>224.19999694824</ele>
        <time>2013-12-21T15:10:51Z</time>
      </trkpt>
      <trkpt lat="43.41683" lon="6.05133">
        <ele>223.19999694824</ele>
        <time>2013-12-21T15:10:53Z</time>
      </trkpt>
      <trkpt lat="43.41679" lon="6.05138">
        <ele>222.80000305176</ele>
        <time>2013-12-21T15:10:54Z</time>
      </trkpt>
      <trkpt lat="43.41675" lon="6.05143">
        <ele>222.39999389648</ele>
        <time>2013-12-21T15:10:55Z</time>
      </trkpt>
      <trkpt lat="43.41671" lon="6.05148">
        <ele>221.80000305176</ele>
        <time>2013-12-21T15:10:56Z</time>
      </trkpt>
      <trkpt lat="43.41666" lon="6.05151">
        <ele>221.80000305176</ele>
        <time>2013-12-21T15:10:57Z</time>
      </trkpt>
      <trkpt lat="43.41655" lon="6.05156">
        <ele>221.80000305176</ele>
        <time>2013-12-21T15:10:59Z</time>
      </trkpt>
      <trkpt lat="43.41639" lon="6.0516">
        <ele>220.80000305176</ele>
        <time>2013-12-21T15:11:02Z</time>
      </trkpt>
      <trkpt lat="43.41629" lon="6.05159">
        <ele>220</ele>
        <time>2013-12-21T15:11:04Z</time>
      </trkpt>
      <trkpt lat="43.41624" lon="6.05159">
        <ele>219.39999389648</ele>
        <time>2013-12-21T15:11:05Z</time>
      </trkpt>
      <trkpt lat="43.41615" lon="6.05159">
        <ele>219.39999389648</ele>
        <time>2013-12-21T15:11:07Z</time>
      </trkpt>
      <trkpt lat="43.4161" lon="6.05159">
        <ele>219</ele>
        <time>2013-12-21T15:11:08Z</time>
      </trkpt>
      <trkpt lat="43.41606" lon="6.0516">
        <ele>218.60000610352</ele>
        <time>2013-12-21T15:11:09Z</time>
      </trkpt>
      <trkpt lat="43.41601" lon="6.05159">
        <ele>218.19999694824</ele>
        <time>2013-12-21T15:11:10Z</time>
      </trkpt>
      <trkpt lat="43.41586" lon="6.05161">
        <ele>217.39999389648</ele>
        <time>2013-12-21T15:11:13Z</time>
      </trkpt>
      <trkpt lat="43.41574" lon="6.05159">
        <ele>217.39999389648</ele>
        <time>2013-12-21T15:11:15Z</time>
      </trkpt>
      <trkpt lat="43.41568" lon="6.05157">
        <ele>217</ele>
        <time>2013-12-21T15:11:16Z</time>
      </trkpt>
      <trkpt lat="43.41562" lon="6.05156">
        <ele>216.39999389648</ele>
        <time>2013-12-21T15:11:17Z</time>
      </trkpt>
      <trkpt lat="43.41555" lon="6.05155">
        <ele>216</ele>
        <time>2013-12-21T15:11:18Z</time>
      </trkpt>
      <trkpt lat="43.41547" lon="6.05154">
        <ele>215.39999389648</ele>
        <time>2013-12-21T15:11:19Z</time>
      </trkpt>
      <trkpt lat="43.4154" lon="6.05154">
        <ele>215</ele>
        <time>2013-12-21T15:11:20Z</time>
      </trkpt>
      <trkpt lat="43.41532" lon="6.05154">
        <ele>214.39999389648</ele>
        <time>2013-12-21T15:11:21Z</time>
      </trkpt>
      <trkpt lat="43.41525" lon="6.05154">
        <ele>214</ele>
        <time>2013-12-21T15:11:22Z</time>
      </trkpt>
      <trkpt lat="43.41518" lon="6.05156">
        <ele>213.39999389648</ele>
        <time>2013-12-21T15:11:23Z</time>
      </trkpt>
      <trkpt lat="43.41512" lon="6.05157">
        <ele>212.80000305176</ele>
        <time>2013-12-21T15:11:24Z</time>
      </trkpt>
      <trkpt lat="43.41505" lon="6.0516">
        <ele>212.80000305176</ele>
        <time>2013-12-21T15:11:26Z</time>
      </trkpt>
      <trkpt lat="43.41501" lon="6.0516">
        <ele>212.39999389648</ele>
        <time>2013-12-21T15:11:27Z</time>
      </trkpt>
      <trkpt lat="43.41498" lon="6.05162">
        <ele>212</ele>
        <time>2013-12-21T15:11:28Z</time>
      </trkpt>
      <trkpt lat="43.41497" lon="6.05163">
        <ele>211.60000610352</ele>
        <time>2013-12-21T15:11:29Z</time>
      </trkpt>
      <trkpt lat="43.41495" lon="6.05164">
        <ele>211.19999694824</ele>
        <time>2013-12-21T15:11:30Z</time>
      </trkpt>
      <trkpt lat="43.41494" lon="6.05165">
        <ele>210.80000305176</ele>
        <time>2013-12-21T15:11:31Z</time>
      </trkpt>
      <trkpt lat="43.41491" lon="6.05171">
        <ele>210.80000305176</ele>
        <time>2013-12-21T15:11:35Z</time>
      </trkpt>
      <trkpt lat="43.4149" lon="6.05174">
        <ele>210.80000305176</ele>
        <time>2013-12-21T15:11:36Z</time>
      </trkpt>
      <trkpt lat="43.41496" lon="6.05187">
        <ele>210.80000305176</ele>
        <time>2013-12-21T15:11:41Z</time>
      </trkpt>
      <trkpt lat="43.41502" lon="6.05199">
        <ele>210.80000305176</ele>
        <time>2013-12-21T15:11:45Z</time>
      </trkpt>
      <trkpt lat="43.41507" lon="6.05208">
        <ele>210.80000305176</ele>
        <time>2013-12-21T15:11:48Z</time>
      </trkpt>
      <trkpt lat="43.41514" lon="6.05224">
        <ele>210.80000305176</ele>
        <time>2013-12-21T15:11:53Z</time>
      </trkpt>
      <trkpt lat="43.41517" lon="6.0523">
        <ele>210.80000305176</ele>
        <time>2013-12-21T15:11:55Z</time>
      </trkpt>
      <trkpt lat="43.41525" lon="6.05248">
        <ele>210.80000305176</ele>
        <time>2013-12-21T15:12:01Z</time>
      </trkpt>
      <trkpt lat="43.41531" lon="6.05261">
        <ele>210.80000305176</ele>
        <time>2013-12-21T15:12:05Z</time>
      </trkpt>
      <trkpt lat="43.41533" lon="6.05268">
        <ele>210.80000305176</ele>
        <time>2013-12-21T15:12:07Z</time>
      </trkpt>
      <trkpt lat="43.41542" lon="6.05295">
        <ele>210.80000305176</ele>
        <time>2013-12-21T15:12:15Z</time>
      </trkpt>
      <trkpt lat="43.41549" lon="6.05321">
        <ele>210.80000305176</ele>
        <time>2013-12-21T15:12:23Z</time>
      </trkpt>
      <trkpt lat="43.41551" lon="6.05329">
        <ele>211.19999694824</ele>
        <time>2013-12-21T15:12:25Z</time>
      </trkpt>
      <trkpt lat="43.41559" lon="6.05349">
        <ele>212.80000305176</ele>
        <time>2013-12-21T15:12:31Z</time>
      </trkpt>
      <trkpt lat="43.41572" lon="6.0538">
        <ele>212.80000305176</ele>
        <time>2013-12-21T15:12:40Z</time>
      </trkpt>
      <trkpt lat="43.41582" lon="6.05412">
        <ele>212.80000305176</ele>
        <time>2013-12-21T15:12:48Z</time>
      </trkpt>
      <trkpt lat="43.41595" lon="6.05452">
        <ele>212.80000305176</ele>
        <time>2013-12-21T15:12:57Z</time>
      </trkpt>
      <trkpt lat="43.41606" lon="6.05493">
        <ele>212.80000305176</ele>
        <time>2013-12-21T15:13:05Z</time>
      </trkpt>
      <trkpt lat="43.41616" lon="6.0553">
        <ele>212.80000305176</ele>
        <time>2013-12-21T15:13:12Z</time>
      </trkpt>
      <trkpt lat="43.41629" lon="6.05588">
        <ele>212.80000305176</ele>
        <time>2013-12-21T15:13:23Z</time>
      </trkpt>
      <trkpt lat="43.41633" lon="6.05615">
        <ele>213.60000610352</ele>
        <time>2013-12-21T15:13:28Z</time>
      </trkpt>
      <trkpt lat="43.41635" lon="6.0563">
        <ele>214.80000305176</ele>
        <time>2013-12-21T15:13:31Z</time>
      </trkpt>
      <trkpt lat="43.41638" lon="6.05669">
        <ele>214.80000305176</ele>
        <time>2013-12-21T15:13:39Z</time>
      </trkpt>
      <trkpt lat="43.41641" lon="6.05696">
        <ele>214.80000305176</ele>
        <time>2013-12-21T15:13:45Z</time>
      </trkpt>
      <trkpt lat="43.41644" lon="6.05745">
        <ele>214.80000305176</ele>
        <time>2013-12-21T15:13:55Z</time>
      </trkpt>
      <trkpt lat="43.41645" lon="6.05779">
        <ele>214.80000305176</ele>
        <time>2013-12-21T15:14:02Z</time>
      </trkpt>
      <trkpt lat="43.41643" lon="6.05819">
        <ele>214.80000305176</ele>
        <time>2013-12-21T15:14:10Z</time>
      </trkpt>
      <trkpt lat="43.4164" lon="6.05872">
        <ele>214.80000305176</ele>
        <time>2013-12-21T15:14:20Z</time>
      </trkpt>
      <trkpt lat="43.41634" lon="6.0592">
        <ele>214.80000305176</ele>
        <time>2013-12-21T15:14:28Z</time>
      </trkpt>
      <trkpt lat="43.41627" lon="6.05972">
        <ele>214.80000305176</ele>
        <time>2013-12-21T15:14:36Z</time>
      </trkpt>
      <trkpt lat="43.41624" lon="6.05995">
        <ele>214.80000305176</ele>
        <time>2013-12-21T15:14:40Z</time>
      </trkpt>
      <trkpt lat="43.41618" lon="6.06028">
        <ele>213.60000610352</ele>
        <time>2013-12-21T15:14:45Z</time>
      </trkpt>
      <trkpt lat="43.41616" lon="6.06043">
        <ele>212.80000305176</ele>
        <time>2013-12-21T15:14:47Z</time>
      </trkpt>
      <trkpt lat="43.41614" lon="6.06067">
        <ele>212.80000305176</ele>
        <time>2013-12-21T15:14:50Z</time>
      </trkpt>
      <trkpt lat="43.41613" lon="6.06075">
        <ele>212.39999389648</ele>
        <time>2013-12-21T15:14:51Z</time>
      </trkpt>
      <trkpt lat="43.41613" lon="6.06083">
        <ele>212</ele>
        <time>2013-12-21T15:14:52Z</time>
      </trkpt>
      <trkpt lat="43.41614" lon="6.0609">
        <ele>211.60000610352</ele>
        <time>2013-12-21T15:14:53Z</time>
      </trkpt>
      <trkpt lat="43.41615" lon="6.06098">
        <ele>211</ele>
        <time>2013-12-21T15:14:54Z</time>
      </trkpt>
      <trkpt lat="43.41622" lon="6.06117">
        <ele>210.60000610352</ele>
        <time>2013-12-21T15:14:57Z</time>
      </trkpt>
      <trkpt lat="43.41626" lon="6.06125">
        <ele>210.60000610352</ele>
        <time>2013-12-21T15:14:59Z</time>
      </trkpt>
      <trkpt lat="43.41626" lon="6.06133">
        <ele>210.60000610352</ele>
        <time>2013-12-21T15:15:01Z</time>
      </trkpt>
      <trkpt lat="43.41621" lon="6.06141">
        <ele>210.60000610352</ele>
        <time>2013-12-21T15:15:03Z</time>
      </trkpt>
      <trkpt lat="43.41615" lon="6.06149">
        <ele>210.60000610352</ele>
        <time>2013-12-21T15:15:05Z</time>
      </trkpt>
      <trkpt lat="43.41603" lon="6.06167">
        <ele>210.60000610352</ele>
        <time>2013-12-21T15:15:09Z</time>
      </trkpt>
      <trkpt lat="43.41597" lon="6.06187">
        <ele>210.60000610352</ele>
        <time>2013-12-21T15:15:14Z</time>
      </trkpt>
      <trkpt lat="43.41598" lon="6.06195">
        <ele>210.60000610352</ele>
        <time>2013-12-21T15:15:17Z</time>
      </trkpt>
      <trkpt lat="43.41597" lon="6.06195">
        <ele>210.60000610352</ele>
        <time>2013-12-21T15:15:18Z</time>
      </trkpt>
      <trkpt lat="43.41594" lon="6.06195">
        <ele>210.60000610352</ele>
        <time>2013-12-21T15:15:21Z</time>
      </trkpt>
      <trkpt lat="43.41592" lon="6.06189">
        <ele>210.60000610352</ele>
        <time>2013-12-21T15:15:23Z</time>
      </trkpt>
      <trkpt lat="43.41589" lon="6.06181">
        <ele>210.60000610352</ele>
        <time>2013-12-21T15:15:26Z</time>
      </trkpt>
      <trkpt lat="43.41584" lon="6.06175">
        <ele>210.60000610352</ele>
        <time>2013-12-21T15:15:29Z</time>
      </trkpt>
      <trkpt lat="43.41578" lon="6.06177">
        <ele>210.60000610352</ele>
        <time>2013-12-21T15:15:33Z</time>
      </trkpt>
      <trkpt lat="43.41565" lon="6.06177">
        <ele>210.60000610352</ele>
        <time>2013-12-21T15:15:39Z</time>
      </trkpt>
      <trkpt lat="43.41553" lon="6.06175">
        <ele>210.60000610352</ele>
        <time>2013-12-21T15:15:43Z</time>
      </trkpt>
      <trkpt lat="43.41541" lon="6.06182">
        <ele>210.60000610352</ele>
        <time>2013-12-21T15:15:46Z</time>
      </trkpt>
      <trkpt lat="43.41537" lon="6.06182">
        <ele>210.60000610352</ele>
        <time>2013-12-21T15:15:47Z</time>
      </trkpt>
      <trkpt lat="43.41504" lon="6.06186">
        <ele>210.19999694824</ele>
        <time>2013-12-21T15:15:53Z</time>
      </trkpt>
      <trkpt lat="43.41498" lon="6.06187">
        <ele>209.80000305176</ele>
        <time>2013-12-21T15:15:54Z</time>
      </trkpt>
      <trkpt lat="43.41493" lon="6.06186">
        <ele>209.39999389648</ele>
        <time>2013-12-21T15:15:55Z</time>
      </trkpt>
      <trkpt lat="43.41487" lon="6.06185">
        <ele>208.80000305176</ele>
        <time>2013-12-21T15:15:56Z</time>
      </trkpt>
      <trkpt lat="43.41481" lon="6.06184">
        <ele>208.39999389648</ele>
        <time>2013-12-21T15:15:57Z</time>
      </trkpt>
      <trkpt lat="43.41443" lon="6.06174">
        <ele>208.39999389648</ele>
        <time>2013-12-21T15:16:04Z</time>
      </trkpt>
      <trkpt lat="43.41422" lon="6.06167">
        <ele>208.39999389648</ele>
        <time>2013-12-21T15:16:08Z</time>
      </trkpt>
      <trkpt lat="43.41398" lon="6.06152">
        <ele>207.19999694824</ele>
        <time>2013-12-21T15:16:12Z</time>
      </trkpt>
      <trkpt lat="43.41376" lon="6.06129">
        <ele>206.19999694824</ele>
        <time>2013-12-21T15:16:16Z</time>
      </trkpt>
      <trkpt lat="43.41365" lon="6.06117">
        <ele>205.80000305176</ele>
        <time>2013-12-21T15:16:18Z</time>
      </trkpt>
      <trkpt lat="43.41359" lon="6.06112">
        <ele>205.39999389648</ele>
        <time>2013-12-21T15:16:19Z</time>
      </trkpt>
      <trkpt lat="43.41353" lon="6.06106">
        <ele>205</ele>
        <time>2013-12-21T15:16:20Z</time>
      </trkpt>
      <trkpt lat="43.41341" lon="6.06093">
        <ele>204</ele>
        <time>2013-12-21T15:16:22Z</time>
      </trkpt>
      <trkpt lat="43.41324" lon="6.06074">
        <ele>203.60000610352</ele>
        <time>2013-12-21T15:16:25Z</time>
      </trkpt>
      <trkpt lat="43.41318" lon="6.06068">
        <ele>203.19999694824</ele>
        <time>2013-12-21T15:16:26Z</time>
      </trkpt>
      <trkpt lat="43.41312" lon="6.06063">
        <ele>202.80000305176</ele>
        <time>2013-12-21T15:16:27Z</time>
      </trkpt>
      <trkpt lat="43.41306" lon="6.0606">
        <ele>202.39999389648</ele>
        <time>2013-12-21T15:16:28Z</time>
      </trkpt>
      <trkpt lat="43.41298" lon="6.06061">
        <ele>202</ele>
        <time>2013-12-21T15:16:29Z</time>
      </trkpt>
      <trkpt lat="43.41272" lon="6.06072">
        <ele>201.60000610352</ele>
        <time>2013-12-21T15:16:33Z</time>
      </trkpt>
      <trkpt lat="43.41266" lon="6.06074">
        <ele>201.19999694824</ele>
        <time>2013-12-21T15:16:34Z</time>
      </trkpt>
      <trkpt lat="43.41261" lon="6.06077">
        <ele>200.60000610352</ele>
        <time>2013-12-21T15:16:35Z</time>
      </trkpt>
      <trkpt lat="43.41256" lon="6.0608">
        <ele>200.19999694824</ele>
        <time>2013-12-21T15:16:36Z</time>
      </trkpt>
      <trkpt lat="43.4125" lon="6.06083">
        <ele>199.80000305176</ele>
        <time>2013-12-21T15:16:37Z</time>
      </trkpt>
      <trkpt lat="43.41202" lon="6.06111">
        <ele>198.80000305176</ele>
        <time>2013-12-21T15:16:46Z</time>
      </trkpt>
      <trkpt lat="43.41198" lon="6.06113">
        <ele>198.39999389648</ele>
        <time>2013-12-21T15:16:47Z</time>
      </trkpt>
      <trkpt lat="43.41198" lon="6.06114">
        <ele>198</ele>
        <time>2013-12-21T15:16:48Z</time>
      </trkpt>
      <trkpt lat="43.41198" lon="6.06115">
        <ele>197.60000610352</ele>
        <time>2013-12-21T15:16:49Z</time>
      </trkpt>
      <trkpt lat="43.41196" lon="6.06114">
        <ele>197.60000610352</ele>
        <time>2013-12-21T15:16:51Z</time>
      </trkpt>
      <trkpt lat="43.41195" lon="6.06114">
        <ele>197.60000610352</ele>
        <time>2013-12-21T15:16:54Z</time>
      </trkpt>
      <trkpt lat="43.41193" lon="6.06117">
        <ele>197.60000610352</ele>
        <time>2013-12-21T15:16:55Z</time>
      </trkpt>
      <trkpt lat="43.4119" lon="6.06126">
        <ele>197.60000610352</ele>
        <time>2013-12-21T15:16:59Z</time>
      </trkpt>
      <trkpt lat="43.4119" lon="6.06127">
        <ele>197.60000610352</ele>
        <time>2013-12-21T15:17:03Z</time>
      </trkpt>
      <trkpt lat="43.41191" lon="6.06131">
        <ele>197.60000610352</ele>
        <time>2013-12-21T15:17:13Z</time>
      </trkpt>
      <trkpt lat="43.41193" lon="6.0615">
        <ele>197.60000610352</ele>
        <time>2013-12-21T15:17:18Z</time>
      </trkpt>
      <trkpt lat="43.41196" lon="6.06175">
        <ele>197.60000610352</ele>
        <time>2013-12-21T15:17:23Z</time>
      </trkpt>
      <trkpt lat="43.41197" lon="6.06198">
        <ele>197.60000610352</ele>
        <time>2013-12-21T15:17:28Z</time>
      </trkpt>
      <trkpt lat="43.41195" lon="6.06201">
        <ele>197.60000610352</ele>
        <time>2013-12-21T15:17:29Z</time>
      </trkpt>
      <trkpt lat="43.41189" lon="6.06204">
        <ele>197.60000610352</ele>
        <time>2013-12-21T15:17:31Z</time>
      </trkpt>
      <trkpt lat="43.41177" lon="6.06206">
        <ele>197.60000610352</ele>
        <time>2013-12-21T15:17:34Z</time>
      </trkpt>
      <trkpt lat="43.4117" lon="6.06211">
        <ele>197.60000610352</ele>
        <time>2013-12-21T15:17:36Z</time>
      </trkpt>
      <trkpt lat="43.4115" lon="6.06216">
        <ele>197.60000610352</ele>
        <time>2013-12-21T15:17:41Z</time>
      </trkpt>
      <trkpt lat="43.41124" lon="6.06224">
        <ele>197.60000610352</ele>
        <time>2013-12-21T15:17:47Z</time>
      </trkpt>
      <trkpt lat="43.41106" lon="6.06231">
        <ele>196.39999389648</ele>
        <time>2013-12-21T15:17:51Z</time>
      </trkpt>
      <trkpt lat="43.41097" lon="6.06235">
        <ele>195.39999389648</ele>
        <time>2013-12-21T15:17:53Z</time>
      </trkpt>
      <trkpt lat="43.41064" lon="6.06245">
        <ele>195.39999389648</ele>
        <time>2013-12-21T15:18:00Z</time>
      </trkpt>
      <trkpt lat="43.4106" lon="6.06247">
        <ele>195.39999389648</ele>
        <time>2013-12-21T15:18:01Z</time>
      </trkpt>
      <trkpt lat="43.41032" lon="6.06254">
        <ele>195.39999389648</ele>
        <time>2013-12-21T15:18:07Z</time>
      </trkpt>
      <trkpt lat="43.40997" lon="6.0626">
        <ele>195.39999389648</ele>
        <time>2013-12-21T15:18:15Z</time>
      </trkpt>
      <trkpt lat="43.40973" lon="6.0626">
        <ele>195.39999389648</ele>
        <time>2013-12-21T15:18:21Z</time>
      </trkpt>
      <trkpt lat="43.40962" lon="6.06255">
        <ele>195.39999389648</ele>
        <time>2013-12-21T15:18:25Z</time>
      </trkpt>
      <trkpt lat="43.40956" lon="6.06259">
        <ele>195.39999389648</ele>
        <time>2013-12-21T15:18:29Z</time>
      </trkpt>
      <trkpt lat="43.40952" lon="6.06273">
        <ele>195.39999389648</ele>
        <time>2013-12-21T15:18:34Z</time>
      </trkpt>
      <trkpt lat="43.40945" lon="6.06287">
        <ele>195.39999389648</ele>
        <time>2013-12-21T15:18:38Z</time>
      </trkpt>
      <trkpt lat="43.40941" lon="6.06295">
        <ele>195.39999389648</ele>
        <time>2013-12-21T15:18:40Z</time>
      </trkpt>
      <trkpt lat="43.40925" lon="6.06316">
        <ele>195.39999389648</ele>
        <time>2013-12-21T15:18:47Z</time>
      </trkpt>
      <trkpt lat="43.40917" lon="6.06327">
        <ele>195.39999389648</ele>
        <time>2013-12-21T15:18:50Z</time>
      </trkpt>
      <trkpt lat="43.40908" lon="6.06339">
        <ele>195.39999389648</ele>
        <time>2013-12-21T15:18:53Z</time>
      </trkpt>
      <trkpt lat="43.40898" lon="6.06352">
        <ele>195.39999389648</ele>
        <time>2013-12-21T15:18:56Z</time>
      </trkpt>
      <trkpt lat="43.40874" lon="6.06383">
        <ele>195.39999389648</ele>
        <time>2013-12-21T15:19:02Z</time>
      </trkpt>
      <trkpt lat="43.40865" lon="6.06393">
        <ele>194.60000610352</ele>
        <time>2013-12-21T15:19:04Z</time>
      </trkpt>
      <trkpt lat="43.40861" lon="6.06398">
        <ele>194.19999694824</ele>
        <time>2013-12-21T15:19:05Z</time>
      </trkpt>
      <trkpt lat="43.40856" lon="6.06402">
        <ele>193.80000305176</ele>
        <time>2013-12-21T15:19:06Z</time>
      </trkpt>
      <trkpt lat="43.40851" lon="6.06406">
        <ele>193.39999389648</ele>
        <time>2013-12-21T15:19:07Z</time>
      </trkpt>
      <trkpt lat="43.40845" lon="6.0641">
        <ele>193.39999389648</ele>
        <time>2013-12-21T15:19:08Z</time>
      </trkpt>
      <trkpt lat="43.40828" lon="6.06418">
        <ele>193.39999389648</ele>
        <time>2013-12-21T15:19:11Z</time>
      </trkpt>
      <trkpt lat="43.40816" lon="6.06417">
        <ele>193.39999389648</ele>
        <time>2013-12-21T15:19:13Z</time>
      </trkpt>
      <trkpt lat="43.40797" lon="6.06408">
        <ele>193.39999389648</ele>
        <time>2013-12-21T15:19:17Z</time>
      </trkpt>
      <trkpt lat="43.40793" lon="6.06408">
        <ele>193.39999389648</ele>
        <time>2013-12-21T15:19:18Z</time>
      </trkpt>
      <trkpt lat="43.40774" lon="6.06412">
        <ele>193.39999389648</ele>
        <time>2013-12-21T15:19:22Z</time>
      </trkpt>
      <trkpt lat="43.40748" lon="6.06419">
        <ele>193.39999389648</ele>
        <time>2013-12-21T15:19:28Z</time>
      </trkpt>
      <trkpt lat="43.40704" lon="6.06427">
        <ele>193.39999389648</ele>
        <time>2013-12-21T15:19:39Z</time>
      </trkpt>
      <trkpt lat="43.40688" lon="6.06434">
        <ele>193.80000305176</ele>
        <time>2013-12-21T15:19:43Z</time>
      </trkpt>
      <trkpt lat="43.40685" lon="6.06437">
        <ele>194.39999389648</ele>
        <time>2013-12-21T15:19:44Z</time>
      </trkpt>
      <trkpt lat="43.40678" lon="6.06442">
        <ele>195.19999694824</ele>
        <time>2013-12-21T15:19:46Z</time>
      </trkpt>
      <trkpt lat="43.4067" lon="6.06451">
        <ele>195.60000610352</ele>
        <time>2013-12-21T15:19:49Z</time>
      </trkpt>
      <trkpt lat="43.40659" lon="6.06464">
        <ele>197.19999694824</ele>
        <time>2013-12-21T15:19:54Z</time>
      </trkpt>
      <trkpt lat="43.40638" lon="6.06487">
        <ele>198</ele>
        <time>2013-12-21T15:20:03Z</time>
      </trkpt>
      <trkpt lat="43.40629" lon="6.06496">
        <ele>199.60000610352</ele>
        <time>2013-12-21T15:20:07Z</time>
      </trkpt>
      <trkpt lat="43.40615" lon="6.06505">
        <ele>199.60000610352</ele>
        <time>2013-12-21T15:20:13Z</time>
      </trkpt>
      <trkpt lat="43.40606" lon="6.06504">
        <ele>201</ele>
        <time>2013-12-21T15:20:17Z</time>
      </trkpt>
      <trkpt lat="43.406" lon="6.06503">
        <ele>201.80000305176</ele>
        <time>2013-12-21T15:20:19Z</time>
      </trkpt>
      <trkpt lat="43.40584" lon="6.06497">
        <ele>201.80000305176</ele>
        <time>2013-12-21T15:20:26Z</time>
      </trkpt>
      <trkpt lat="43.4058" lon="6.06496">
        <ele>202.80000305176</ele>
        <time>2013-12-21T15:20:28Z</time>
      </trkpt>
      <trkpt lat="43.40578" lon="6.06495">
        <ele>203.19999694824</ele>
        <time>2013-12-21T15:20:29Z</time>
      </trkpt>
      <trkpt lat="43.40577" lon="6.06494">
        <ele>203.60000610352</ele>
        <time>2013-12-21T15:20:30Z</time>
      </trkpt>
      <trkpt lat="43.40573" lon="6.06494">
        <ele>204</ele>
        <time>2013-12-21T15:20:32Z</time>
      </trkpt>
      <trkpt lat="43.4057" lon="6.06494">
        <ele>204</ele>
        <time>2013-12-21T15:20:34Z</time>
      </trkpt>
      <trkpt lat="43.40565" lon="6.06492">
        <ele>204</ele>
        <time>2013-12-21T15:20:37Z</time>
      </trkpt>
      <trkpt lat="43.40557" lon="6.06492">
        <ele>204</ele>
        <time>2013-12-21T15:20:41Z</time>
      </trkpt>
      <trkpt lat="43.4055" lon="6.06489">
        <ele>204.39999389648</ele>
        <time>2013-12-21T15:20:44Z</time>
      </trkpt>
      <trkpt lat="43.40542" lon="6.06486">
        <ele>205.60000610352</ele>
        <time>2013-12-21T15:20:47Z</time>
      </trkpt>
      <trkpt lat="43.4054" lon="6.06486">
        <ele>206</ele>
        <time>2013-12-21T15:20:48Z</time>
      </trkpt>
      <trkpt lat="43.40525" lon="6.06481">
        <ele>206</ele>
        <time>2013-12-21T15:20:54Z</time>
      </trkpt>
      <trkpt lat="43.40509" lon="6.06476">
        <ele>206</ele>
        <time>2013-12-21T15:21:01Z</time>
      </trkpt>
      <trkpt lat="43.40501" lon="6.06474">
        <ele>206.39999389648</ele>
        <time>2013-12-21T15:21:04Z</time>
      </trkpt>
      <trkpt lat="43.40499" lon="6.06474">
        <ele>206.80000305176</ele>
        <time>2013-12-21T15:21:05Z</time>
      </trkpt>
      <trkpt lat="43.40497" lon="6.06473">
        <ele>207.19999694824</ele>
        <time>2013-12-21T15:21:06Z</time>
      </trkpt>
      <trkpt lat="43.40495" lon="6.06472">
        <ele>208</ele>
        <time>2013-12-21T15:21:07Z</time>
      </trkpt>
      <trkpt lat="43.40483" lon="6.06467">
        <ele>208</ele>
        <time>2013-12-21T15:21:12Z</time>
      </trkpt>
      <trkpt lat="43.4046" lon="6.06461">
        <ele>208</ele>
        <time>2013-12-21T15:21:19Z</time>
      </trkpt>
      <trkpt lat="43.40436" lon="6.06456">
        <ele>208.39999389648</ele>
        <time>2013-12-21T15:21:26Z</time>
      </trkpt>
      <trkpt lat="43.40434" lon="6.06455">
        <ele>208.80000305176</ele>
        <time>2013-12-21T15:21:27Z</time>
      </trkpt>
      <trkpt lat="43.4043" lon="6.06454">
        <ele>209.19999694824</ele>
        <time>2013-12-21T15:21:28Z</time>
      </trkpt>
      <trkpt lat="43.40425" lon="6.06454">
        <ele>210</ele>
        <time>2013-12-21T15:21:30Z</time>
      </trkpt>
      <trkpt lat="43.4042" lon="6.06457">
        <ele>210</ele>
        <time>2013-12-21T15:21:32Z</time>
      </trkpt>
      <trkpt lat="43.40414" lon="6.0647">
        <ele>210</ele>
        <time>2013-12-21T15:21:36Z</time>
      </trkpt>
      <trkpt lat="43.40406" lon="6.06492">
        <ele>210</ele>
        <time>2013-12-21T15:21:42Z</time>
      </trkpt>
      <trkpt lat="43.40405" lon="6.06502">
        <ele>210</ele>
        <time>2013-12-21T15:21:45Z</time>
      </trkpt>
      <trkpt lat="43.40404" lon="6.06514">
        <ele>210</ele>
        <time>2013-12-21T15:21:49Z</time>
      </trkpt>
      <trkpt lat="43.40402" lon="6.06531">
        <ele>210</ele>
        <time>2013-12-21T15:21:54Z</time>
      </trkpt>
      <trkpt lat="43.404" lon="6.06538">
        <ele>210</ele>
        <time>2013-12-21T15:21:57Z</time>
      </trkpt>
      <trkpt lat="43.40402" lon="6.0654">
        <ele>210</ele>
        <time>2013-12-21T15:22:00Z</time>
      </trkpt>
      <trkpt lat="43.40405" lon="6.06541">
        <ele>210</ele>
        <time>2013-12-21T15:22:03Z</time>
      </trkpt>
      <trkpt lat="43.40409" lon="6.06543">
        <ele>210</ele>
        <time>2013-12-21T15:22:06Z</time>
      </trkpt>
      <trkpt lat="43.40417" lon="6.06546">
        <ele>210</ele>
        <time>2013-12-21T15:22:11Z</time>
      </trkpt>
      <trkpt lat="43.40419" lon="6.06546">
        <ele>210</ele>
        <time>2013-12-21T15:22:12Z</time>
      </trkpt>
      <trkpt lat="43.40422" lon="6.06545">
        <ele>210</ele>
        <time>2013-12-21T15:22:18Z</time>
      </trkpt>
      <trkpt lat="43.40422" lon="6.06545">
        <ele>210</ele>
        <time>2013-12-21T15:22:40Z</time>
      </trkpt>
    </trkseg>
  </trk>
</gpx>